[[[{"header":{"parameterUnit":"kt","parameterCategory":2,"dx":1,"dy":1,"la1":29.285339999999998,"la2":30.599998999999997,"lo1":-89.70041500000002,"lo2":-87.6738589999976,"nx":112,"ny":82,"refTime":"2022-11-02T00:00:00:Z","depth":0,"parameterNumber":1,"parameterNumberName":"U-component_of_WINDS"},"data":[4.9027,5.0451,5.0435,4.3589,4.2389,4.095,3.3504,3.3726,3.5239,3.4188,3.6166,3.8484,3.9704,3.7191,0.0,0.0,0.0,0.0,0.0,2.8382,0.0,0.0,0.0,0.0,0.0,0.0,0.0,0.0,0.0,0.0,0.0,6.633,6.7945,6.8973,7.0137,7.0765,7.0765,7.2797,7.387,7.3895,7.6116,7.7165,7.7165,7.7165,7.7165,7.7165,7.7165,7.7165,7.7165,7.7165,7.6061,7.4491,7.5303,7.5151,7.4668,7.6513,7.7165,7.689,7.5049,7.375,7.2128,6.7393,6.6387,6.6875,6.5886,6.7576,7.0588,7.4109,7.6111,7.7165,7.7165,7.7165,7.7165,7.7165,7.7165,7.7165,7.7165,7.7165,7.6563,7.4538,6.6517,6.2402,6.9841,7.1106,7.2434,7.6563,7.7165,7.7165,7.7165,7.7165,7.7165,7.7165,7.7165,7.7165,7.7165,7.7165,7.7165,7.7165,7.7165,7.7165,7.7165,7.7165,7.7165,7.7165,7.7165,7.7165,7.7165,7.7165,7.7165,7.7165,7.7165,7.7165,4.583,4.7106,4.6965,3.9365,3.7997,3.6752,2.9977,3.0036,3.1436,3.1115,3.3899,3.6193,3.5532,0.0,0.0,0.0,0.0,0.0,0.0,0.0,0.0,0.0,0.0,0.0,0.0,0.0,4.7978,5.5201,5.403,5.6617,6.4939,6.7018,6.8481,6.9554,7.0353,7.0765,7.0765,7.2797,7.387,7.3895,7.6116,7.7165,7.7165,7.7165,7.7165,7.7165,7.7165,7.7165,7.7165,7.7165,7.6061,7.4515,7.6463,7.601,7.4542,7.6463,7.7165,7.689,7.4974,7.3056,7.0641,6.5898,6.4957,6.5886,6.6896,6.916,7.1995,7.4491,7.6186,7.7165,7.7165,7.7165,7.7165,7.7165,7.7165,7.7165,7.7165,7.7165,7.7165,7.7165,7.1054,6.8296,7.5858,7.7165,7.7165,7.7165,7.7165,7.7165,7.7165,7.7165,7.7165,7.7165,7.7165,7.7165,7.7165,7.7165,7.7165,7.7165,7.7165,7.7165,7.7165,7.7165,7.7165,7.7165,7.7165,7.7165,7.7165,7.7165,7.7165,7.7165,7.7165,7.7165,4.4513,4.3118,4.1411,3.3948,3.2143,3.1359,2.8186,2.8999,3.0744,3.1781,3.3704,3.519,3.5239,0.0,0.0,0.0,0.0,0.0,0.0,0.0,0.0,0.0,0.0,0.0,0.0,4.5933,4.669,5.73,5.3113,5.5128,6.6823,6.8437,6.9554,7.0741,7.0765,7.0765,7.0765,7.2797,7.387,7.3895,7.6116,7.7165,7.7165,7.7165,7.7165,7.7165,7.709,7.7115,7.7165,7.709,7.7115,7.7165,7.7165,7.7165,7.7165,7.7165,7.7165,7.7165,7.7165,7.3412,6.8113,6.5155,6.2382,6.074,6.36,6.6496,6.9128,7.1038,7.4263,7.7165,7.7165,7.7165,7.7165,7.7165,7.7165,7.7165,7.7165,7.7165,7.7165,7.7165,7.7165,7.7165,7.7165,7.7165,7.7165,7.7165,7.7165,7.7165,7.7165,7.7165,7.7165,7.7165,7.7165,7.7165,7.7165,7.7165,7.7165,7.7165,7.7165,7.7165,7.7165,7.7165,7.7165,7.7165,7.7165,7.7165,7.7165,7.7165,7.7165,7.7165,7.7165,7.7165,3.724,3.8094,3.8557,3.3387,3.329,3.3433,2.9464,2.8406,2.8779,3.0578,3.0818,0.0,0.0,0.0,0.0,0.0,0.0,3.4681,3.2021,3.6362,0.0,4.2438,4.4488,4.8149,5.4323,5.3288,5.5128,6.2075,5.8314,5.913,6.7018,6.8437,6.9554,7.0741,7.0765,7.0765,7.0765,7.2797,7.387,7.3895,7.6116,7.7165,7.7165,7.7165,7.7165,7.704,7.4998,7.5252,7.699,7.4923,7.5303,7.7165,7.7165,7.7165,7.7165,7.7165,7.7165,7.7165,7.7165,7.3412,6.7791,6.2828,6.2123,6.3711,6.655,6.9425,7.2255,7.4821,7.6337,7.7165,7.7165,7.7165,7.7165,7.7165,7.7165,7.7165,7.7165,7.7165,7.7165,7.7165,7.7165,7.7165,7.7165,7.7165,7.7165,7.7165,7.7165,7.7165,7.7165,7.7165,7.7165,7.7165,7.7165,7.7165,7.7165,7.7165,7.7165,7.7165,7.7165,7.7165,7.7165,7.7165,7.7165,7.7165,7.7165,7.7165,7.7165,7.7165,7.7165,7.7165,7.7165,7.7165,3.6247,3.6444,3.68,3.2489,3.3092,3.3479,2.8675,2.8174,2.8926,2.9694,0.0,0.0,0.0,0.0,0.0,0.0,3.5192,3.6923,3.5021,4.0118,4.4825,4.702,5.0849,5.4299,5.6678,5.6483,5.8629,6.4566,6.101,6.136,6.7774,6.914,7.0039,7.0765,7.0765,7.0939,7.1403,7.3041,7.4114,7.4603,7.6335,7.7165,7.7165,7.7165,7.7165,7.699,7.4109,7.4515,7.694,7.4081,7.4617,7.7165,7.7165,7.7165,7.7165,7.7165,7.7165,7.699,7.5784,7.2434,6.7867,6.3308,6.2179,6.3308,6.7361,6.9766,7.1943,7.6034,7.7165,7.7165,7.7165,7.7165,7.7165,7.7165,7.7165,7.7165,7.7165,7.7165,7.7165,7.7165,7.7165,7.7165,7.7165,7.7165,7.7165,7.7165,7.7165,7.7165,7.7165,7.7165,7.7165,7.7165,7.7165,7.7165,7.7165,7.7165,7.7165,7.7165,7.7165,7.7165,7.7165,7.7165,7.7165,7.7165,7.7165,7.7165,7.7165,7.7165,7.7165,7.7165,7.7165,7.7165,3.8009,3.6146,3.5243,3.1471,3.1819,3.2014,2.7864,0.0,3.0866,3.0789,0.0,3.2115,3.3168,0.0,0.0,3.3512,3.7143,3.9827,3.9461,4.3654,4.7501,4.9605,5.7385,6.1571,5.8925,5.7702,5.9531,6.5451,6.2498,6.2921,6.8705,7.0088,7.0765,7.0765,7.0765,7.1183,7.2136,7.3285,7.4383,7.5432,7.6629,7.7165,7.7165,7.7165,7.7165,7.699,7.4109,7.4515,7.694,7.4081,7.4617,7.7165,7.7165,7.7165,7.7165,7.7165,7.7165,7.6789,7.4286,7.1293,6.8167,6.5647,6.2661,6.1022,6.6103,6.8081,6.9841,7.5554,7.7165,7.7165,7.7165,7.7165,7.7165,7.7165,7.7165,7.7165,7.7165,7.7165,7.7165,7.7165,7.7165,7.7165,7.7165,7.7165,7.7165,7.7165,7.7165,7.7165,7.7165,7.7165,7.7165,7.7165,7.7165,7.7165,7.7165,7.7165,7.7165,7.7165,7.7165,7.7165,7.7165,7.7165,7.7165,7.7165,7.7165,7.7165,7.7165,7.7165,7.7165,7.7165,7.7165,7.7165,3.2861,3.1348,3.1279,3.0668,2.9567,2.9708,0.0,0.0,0.0,4.0655,4.063,3.9925,4.0972,4.1167,4.146,4.231,4.6123,4.8114,4.544,5.2493,5.8398,5.9653,6.1458,6.2742,6.3076,6.2905,6.3621,6.5744,6.5896,6.6847,6.89,7.0088,7.0765,7.0765,7.0765,7.0863,7.1037,7.2919,7.3992,7.4236,7.6213,7.7165,7.7165,7.7165,7.7165,7.699,7.4109,7.4515,7.694,7.4081,7.4617,7.7165,7.7165,7.7165,7.7165,7.7165,7.7165,7.7115,7.6563,7.2976,6.8488,6.7952,6.4263,6.0269,6.1397,6.4922,6.9841,7.5554,7.7165,7.7165,7.7165,7.7165,7.7165,7.7165,7.7165,7.7165,7.7165,7.7165,7.7165,7.7165,7.7165,7.7165,7.7165,7.7165,7.7165,7.7165,7.7165,7.7165,7.7165,7.7165,7.7165,7.7165,7.7165,7.7165,7.7165,7.7165,7.7165,7.7165,7.7165,7.7165,7.7165,7.7165,7.7165,7.7165,7.7165,7.7165,7.7165,7.7165,7.7165,7.7165,7.7165,7.7165,3.1357,2.9976,2.9794,2.8434,2.8131,0.0,0.0,3.2168,3.4483,3.98,4.0484,4.095,4.3654,4.4606,4.4971,4.4918,4.9483,5.3259,5.3762,5.8447,6.201,6.2506,6.3108,6.3711,6.4297,6.4346,6.4566,6.5103,6.653,6.814,6.9819,7.0451,7.0765,7.0765,7.0765,7.1034,7.1525,7.3089,7.4163,7.4725,7.6384,7.7165,7.7165,7.7165,7.7165,7.699,7.4109,7.4515,7.694,7.4081,7.4617,7.7165,7.7165,7.7165,7.7165,7.7165,7.7165,7.694,7.553,7.3159,7.0505,6.9075,6.668,6.4338,6.4338,6.7382,7.163,7.596,7.7165,7.7165,7.7165,7.7165,7.7165,7.7165,7.7165,7.7165,7.7165,7.7165,7.7165,7.7165,7.7165,7.7165,7.7165,7.7165,7.7165,7.7165,7.7165,7.7165,7.7165,7.7165,7.7165,7.7165,7.7165,7.7165,7.7165,7.7165,7.7165,7.7165,7.7165,7.7165,7.7165,7.7165,7.7165,7.7165,7.7165,7.7165,7.7165,7.7165,7.7165,7.7165,7.7165,7.7165,3.0244,2.9232,2.9155,2.7276,2.765,0.0,2.9577,3.2098,3.5559,4.0118,4.1679,4.3341,4.6825,4.8191,4.8612,4.7898,5.2141,5.6934,6.079,6.2254,6.2962,6.2962,6.3743,6.4346,6.4346,6.4346,6.4419,6.4639,6.6403,6.8428,7.0668,7.0765,7.0765,7.0765,7.0765,7.1232,7.2307,7.3334,7.4456,7.5628,7.6652,7.7165,7.7165,7.7165,7.7165,7.704,7.4719,7.5049,7.699,7.4668,7.51,7.7165,7.7165,7.7165,7.7165,7.7165,7.7165,7.6839,7.4515,7.3366,7.2515,7.0189,6.9075,6.8595,6.8595,7.061,7.3366,7.5682,7.6714,7.7165,7.7165,7.7165,7.7165,7.7165,7.7165,7.7165,7.7165,7.7165,7.7165,7.7165,7.7165,7.7165,7.7165,7.7165,7.7165,7.7165,7.7165,7.7165,7.7165,7.7165,7.7165,7.7165,7.7165,7.7165,7.7165,7.7165,7.7165,7.7165,7.7165,7.7165,7.7165,7.7165,7.7165,7.7165,7.7165,7.7165,7.7165,7.7165,7.7165,7.7165,7.7165,7.7165,2.6504,2.6699,2.8211,3.0319,2.884,0.0,4.167,4.3195,4.4683,5.3737,5.569,5.5909,5.6397,5.6568,5.6934,5.7726,5.8458,5.9751,6.2067,6.3401,6.4151,6.4151,6.4248,6.4346,6.4346,6.4346,6.4737,6.5646,6.6774,6.8428,7.0668,7.0765,7.0765,7.0765,7.0765,7.1232,7.2307,7.3334,7.4456,7.5628,7.6652,7.7165,7.7165,7.7165,7.7165,7.7165,7.6839,7.689,7.7165,7.6839,7.689,7.7165,7.7165,7.7165,7.7165,7.7165,7.7165,7.7115,7.6789,7.5049,7.2826,7.2515,7.0716,6.8595,6.8595,7.061,7.2929,7.3314,7.5202,7.7165,7.7165,7.7165,7.7165,7.7165,7.7165,7.7165,7.7165,7.7165,7.7165,7.7165,7.7165,7.7165,7.7165,7.7165,7.7165,7.7165,7.7165,7.7165,7.7165,7.7165,7.7165,7.7165,7.7165,7.7165,7.7165,7.7165,7.7165,7.7165,7.7165,7.7165,7.7165,7.7165,7.7165,7.7165,7.7165,7.7165,7.7165,7.7165,7.7165,7.7165,7.7165,7.7165,2.5683,2.6203,2.7269,2.8545,0.0,0.0,3.851,4.1752,4.5416,5.2673,5.4222,5.4944,5.7447,5.791,5.8276,5.9287,5.997,6.1132,6.3304,6.4028,6.4346,6.4346,6.4346,6.4346,6.4346,6.4346,6.4785,6.5817,6.6847,6.8116,6.9628,7.0402,7.0765,7.0765,7.0765,7.1232,7.2307,7.3334,7.4456,7.5628,7.6652,7.7165,7.7165,7.7165,7.7165,7.7165,7.7165,7.7165,7.7165,7.7165,7.7165,7.7165,7.7165,7.7165,7.7165,7.7165,7.7165,7.7165,7.7165,7.6388,7.5378,7.5378,7.4589,7.3619,7.3619,7.4412,7.5378,7.5378,7.6237,7.7165,7.7165,7.7165,7.7165,7.7165,7.7165,7.7165,7.7165,7.7165,7.7165,7.7165,7.7165,7.7165,7.7165,7.7165,7.7165,7.7165,7.7165,7.7165,7.7165,7.7165,7.7165,7.7165,7.7165,7.7165,7.7165,7.7165,7.7165,7.7165,7.7165,7.7165,7.7165,7.7165,7.7165,7.7165,7.7165,7.7165,7.7165,7.7165,7.7165,7.7165,7.7165,7.7165,2.5756,0.0,0.0,0.0,0.0,0.0,3.956,4.3244,4.7051,5.2243,5.3294,5.4212,5.7325,5.791,5.835,5.9716,6.0546,6.1831,6.4028,6.4346,6.4346,6.4346,6.4346,6.4346,6.4346,6.4346,6.4908,6.6232,6.7018,6.8042,6.9408,7.0304,7.0765,7.0765,7.0765,7.1379,7.2699,7.3504,7.4603,7.6067,7.6774,7.7165,7.7165,7.7165,7.7165,7.7165,7.7165,7.6714,7.601,7.601,7.601,7.601,7.601,7.6438,7.7165,7.7165,7.7165,7.7165,7.7165,7.7165,7.7165,7.7165,7.7165,7.7165,7.7165,7.7165,7.7165,7.7165,7.7165,7.7165,7.7165,7.7165,7.7165,7.7165,7.7165,7.7165,7.7165,7.7165,7.7165,7.7165,7.7165,7.7165,7.7165,7.7165,7.7165,7.7165,7.7165,7.7165,7.7165,7.7165,7.7165,7.7165,7.7165,7.7165,7.7165,7.7165,7.7165,7.7165,7.7165,7.7165,7.7165,7.7165,7.7165,7.7165,7.7165,7.7165,7.7165,7.7165,7.7165,7.7165,7.7165,7.7165,0.0,0.0,0.0,3.8676,3.8385,3.9354,5.1332,5.2624,5.2512,5.6812,5.7715,5.7764,5.7886,5.791,5.8632,6.0644,6.101,6.1831,6.4028,6.4346,6.4346,6.4346,6.4346,6.4346,6.4346,6.4346,6.5183,6.7238,6.7433,6.8404,7.0573,7.0765,7.0765,7.0765,7.0765,7.1745,7.3822,7.387,7.4969,7.7116,7.7141,7.7165,7.7165,7.7165,7.7165,7.7165,7.7165,7.5581,7.2981,7.2981,7.2981,7.2981,7.2981,7.4719,7.7165,7.7165,7.7165,7.7165,7.7165,7.7165,7.7165,7.7165,7.7165,7.7165,7.7165,7.7165,7.7165,7.7165,7.7165,7.7165,7.7165,7.7165,7.7165,7.7165,7.7165,7.7165,7.7165,7.7165,7.7165,7.7165,7.7165,7.7165,7.7165,7.7165,7.7165,7.7165,7.7165,7.7165,7.7165,7.7165,7.7165,7.7165,7.7165,7.7165,7.7165,7.7165,7.7165,7.7165,7.7165,7.7165,7.7165,7.7165,7.7165,7.7165,7.7165,7.7165,7.7165,7.7165,7.7165,7.7165,7.7165,7.7165,3.0829,3.3455,3.6511,4.2514,4.4644,4.6545,5.1446,5.4212,5.619,5.7655,5.791,5.791,5.791,5.791,5.8594,6.0707,6.1049,6.1831,6.4028,6.4346,6.4346,6.4346,6.4346,6.4346,6.4346,6.4346,6.5183,6.7286,6.7457,6.8428,7.0668,7.0765,7.0765,7.0765,7.0765,7.1745,7.387,7.387,7.4969,7.7165,7.7165,7.7165,7.7165,7.7165,7.7165,7.7165,7.7165,7.6614,7.5733,7.5733,7.5733,7.5733,7.5733,7.6287,7.7165,7.7165,7.7165,7.7165,7.7165,7.7165,7.7165,7.7165,7.7165,7.7165,7.7165,7.7165,7.7165,7.7165,7.7165,7.7165,7.7165,7.7165,7.7165,7.7165,7.7165,7.7165,7.7165,7.7165,7.7165,7.7165,7.7165,7.7165,7.7165,7.7165,7.7165,7.7165,7.7165,7.7165,7.7165,7.7165,7.7165,7.7165,7.7165,7.7165,7.7165,7.7165,7.7165,7.7165,7.7165,7.7165,7.7165,7.7165,7.7165,7.7165,7.7165,7.7165,7.7165,7.7165,7.7165,7.7165,7.7165,7.7165,3.4186,3.7378,4.0552,4.6886,4.9929,5.1769,5.3432,5.5946,5.791,5.791,5.791,5.791,5.791,5.791,5.8472,6.0204,6.079,6.1684,6.345,6.4077,6.4346,6.4346,6.4346,6.4346,6.4346,6.4346,6.5183,6.7286,6.7457,6.8428,7.0668,7.0765,7.0765,7.0765,7.0765,7.1379,7.2723,7.3504,7.4969,7.7165,7.7165,7.7165,7.7165,7.7165,7.7165,7.7165,7.7165,7.6614,7.5632,7.5632,7.5632,7.5632,7.5632,7.6237,7.7165,7.7165,7.7165,7.7165,7.7165,7.7165,7.7165,7.7165,7.7165,7.7165,7.7165,7.7165,7.7165,7.7165,7.7165,7.7165,7.7165,7.7165,7.7165,7.7165,7.7165,7.7165,7.7165,7.7165,7.7165,7.7165,7.7165,7.7165,7.7165,7.7165,7.7165,7.7165,7.7165,7.7165,7.7165,7.7165,7.7165,7.7165,7.7165,7.7165,7.7165,7.7165,7.7165,7.7165,7.7165,7.7165,7.7165,7.7165,7.7165,7.7165,7.7165,7.7165,7.7165,7.7165,7.7165,7.7165,7.7165,7.7165,3.6516,4.0028,4.3538,5.2122,5.4514,5.5303,5.7561,5.8074,5.8061,5.7948,5.791,5.791,5.791,5.791,5.8276,5.9287,6.0351,6.14,6.2433,6.3596,6.4346,6.4346,6.4346,6.4346,6.4346,6.4346,6.5183,6.7286,6.7457,6.8428,7.0668,7.0765,7.0765,7.0765,7.0765,7.0765,7.0765,7.2748,7.4895,7.7067,7.7141,7.7165,7.7165,7.7165,7.7165,7.7165,7.7165,7.5632,7.3084,7.3084,7.3084,7.3084,7.3084,7.477,7.7165,7.7165,7.7165,7.7165,7.7165,7.7165,7.7165,7.7165,7.7165,7.7165,7.7165,7.7165,7.7165,7.7165,7.7165,7.7165,7.7165,7.7165,7.7165,7.7165,7.7165,7.7165,7.7165,7.7165,7.7165,7.7165,7.7165,7.7165,7.7165,7.7165,7.7165,7.7165,7.7165,7.7165,7.7165,7.7165,7.7165,7.7165,7.7165,7.7165,7.7165,7.7165,7.7165,7.7165,7.7165,7.7165,7.7165,7.7165,7.7165,7.7165,7.7165,7.7165,7.7165,7.7165,7.7165,7.7165,7.7165,7.7165,4.0833,4.8145,5.3727,5.8926,6.0635,6.0877,6.0126,5.9971,5.9558,5.8186,5.791,5.791,5.791,5.791,5.8276,5.9287,6.0351,6.14,6.2433,6.3596,6.4346,6.4346,6.4346,6.4346,6.4346,6.4346,6.5183,6.7286,6.7457,6.8428,7.0668,7.0765,7.0765,7.0765,7.0765,7.0765,7.0765,7.2063,7.3845,7.6019,7.6824,7.7165,7.7165,7.7165,7.7165,7.7165,7.7165,7.6789,7.6061,7.6061,7.6061,7.6061,7.6061,7.6513,7.7165,7.7165,7.7165,7.7165,7.7165,7.7165,7.7165,7.7165,7.7165,7.7165,7.7165,7.7165,7.7165,7.7165,7.7165,7.7165,7.7165,7.7165,7.7165,7.7165,7.7165,7.7165,7.7165,7.7165,7.7165,7.7165,7.7165,7.7165,7.7165,7.7165,7.7165,7.7165,7.7165,7.7165,7.7165,7.7165,7.7165,7.7165,7.7165,7.7165,7.7165,7.7165,7.7165,7.7165,7.7165,7.7165,7.7165,7.7165,7.7165,7.7165,7.7165,7.7165,7.7165,7.7165,7.7165,7.7165,7.7165,7.7165,3.9612,4.9163,5.7867,6.1502,6.3486,6.3899,6.1265,6.0645,6.0128,5.8274,5.791,5.791,5.791,5.791,5.8106,5.8716,5.9667,6.0717,6.1766,6.2864,6.3743,6.4273,6.4346,6.4346,6.4346,6.4346,6.5183,6.7286,6.7457,6.8428,7.0668,7.0765,7.0765,7.0765,7.0765,7.0765,7.0765,7.1794,7.3186,7.4822,7.6408,7.7165,7.7165,7.7165,7.7165,7.7165,7.7165,7.7165,7.7165,7.7165,7.7165,7.7165,7.7165,7.7165,7.7165,7.7165,7.7165,7.7165,7.7165,7.7165,7.7165,7.7165,7.7165,7.7165,7.7165,7.7165,7.7165,7.7165,7.7165,7.7165,7.7165,7.7165,7.7165,7.7165,7.7165,7.7165,7.7165,7.7165,7.7165,7.7165,7.7165,7.7165,7.7165,7.7165,7.7165,7.7165,7.7165,7.7165,7.7165,7.7165,7.7165,7.7165,7.7165,7.7165,7.7165,7.7165,7.7165,7.7165,7.7165,7.7165,7.7165,7.7165,7.7165,7.7165,7.7165,7.7165,7.7165,7.7165,7.7165,7.7165,7.7165,7.7165,3.7675,4.7515,5.7933,6.1795,6.45,6.539,6.2109,6.1194,6.049,5.866,5.8498,5.861,5.8312,5.8299,5.8224,5.7948,5.8813,5.9863,6.0888,6.1937,6.3035,6.4199,6.4346,6.4346,6.4346,6.4346,6.5176,6.7091,6.736,6.8355,7.0402,7.0692,7.0765,7.0765,7.0765,7.0765,7.0765,7.1647,7.2601,7.37,7.5749,7.6872,7.7165,7.7165,7.7165,7.7165,7.7165,7.7165,7.7165,7.7165,7.7165,7.7165,7.7165,7.7165,7.7165,7.7165,7.7165,7.7165,7.7165,7.7165,7.7165,7.7165,7.7165,7.7165,7.7165,7.7165,7.7165,7.7165,7.7165,7.7165,7.7165,7.7165,7.7165,7.7165,7.7165,7.7165,7.7165,7.7165,7.7165,7.7165,7.7165,7.7165,7.7165,7.7165,7.7165,7.7165,7.7165,7.7165,7.7165,7.7165,7.7165,7.7165,7.7165,7.7165,7.7165,7.7165,7.7165,7.7165,7.7165,7.7165,7.7165,7.7165,7.7165,7.7165,7.7165,7.7165,7.7165,7.7165,7.7165,7.7165,7.7165,7.7165,4.6388,5.1617,5.5989,6.2908,6.5798,6.6595,6.5428,6.4002,6.2372,6.0537,6.1372,6.1976,6.0454,6.0164,5.9668,5.8186,5.8813,5.9863,6.0888,6.1937,6.3035,6.4199,6.4346,6.4346,6.4346,6.4346,6.4859,6.6061,6.6945,6.7994,6.9262,7.0255,7.0765,7.0765,7.0765,7.0765,7.0765,7.0961,7.155,7.2624,7.3846,7.5408,7.7165,7.7165,7.7165,7.7165,7.7165,7.7165,7.7165,7.7165,7.7165,7.7165,7.7165,7.7165,7.7165,7.7165,7.7165,7.7165,7.7165,7.7165,7.7165,7.7165,7.7165,7.7165,7.7165,7.7165,7.7165,7.7165,7.7165,7.7165,7.7165,7.7165,7.7165,7.7165,7.7165,7.7165,7.7165,7.7165,7.7165,7.7165,7.7165,7.7165,7.7165,7.7165,7.7165,7.7165,7.7165,7.7165,7.7165,7.7165,7.7165,7.7165,7.7165,7.7165,7.7165,7.7165,7.7165,7.7165,7.7165,7.7165,7.7165,7.7165,7.7165,7.7165,7.7165,7.7165,7.7165,7.7165,7.7165,7.7165,7.7165,7.7165,4.3209,4.9079,5.4872,5.991,6.4129,6.6752,6.5464,6.4974,6.4547,6.3659,6.3425,6.3106,6.2232,6.1301,6.0382,5.9484,5.8955,5.9228,6.0814,6.1473,6.2401,6.4151,6.4346,6.4346,6.4346,6.4346,6.4785,6.5817,6.6847,6.792,6.8949,7.0088,7.0765,7.0765,7.0765,7.0765,7.0765,7.0765,7.1257,7.2356,7.3358,7.4749,7.6385,7.6385,7.6678,7.7165,7.7165,7.7165,7.7165,7.7165,7.7165,7.7165,7.7165,7.7165,7.7165,7.7165,7.7165,7.7165,7.7165,7.7165,7.7165,7.7165,7.7165,7.7165,7.7165,7.7165,7.7165,7.7165,7.7165,7.7165,7.7165,7.7165,7.7165,7.7165,7.7165,7.7165,7.7165,7.7165,7.7165,7.7165,7.7165,7.7165,7.7165,7.7165,7.7165,7.7165,7.7165,7.7165,7.7165,7.7165,7.7165,7.7165,7.7165,7.7165,7.7165,7.7165,7.7165,7.7165,7.7165,7.7165,7.7165,7.7165,7.7165,7.7165,7.7165,7.7165,7.7165,7.7165,7.7165,7.7165,7.7165,7.7165,4.0106,4.6642,5.3999,5.7117,6.1481,6.5021,6.4955,6.5626,6.6387,6.6641,6.5356,6.4145,6.3982,6.258,6.1264,6.0738,5.9436,5.9125,6.0796,6.1049,6.188,6.4077,6.4346,6.4346,6.4346,6.4346,6.4688,6.55,6.6506,6.7579,6.8607,6.9771,7.05,7.0765,7.0765,7.0765,7.0765,7.0765,7.1135,7.1989,7.3016,7.4114,7.5261,7.5481,7.6189,7.7165,7.7165,7.7165,7.7165,7.7165,7.7165,7.7165,7.7165,7.7165,7.7165,7.7165,7.7165,7.7165,7.7165,7.7165,7.7165,7.7165,7.7165,7.7165,7.7165,7.7165,7.7165,7.7165,7.7165,7.7165,7.7165,7.7165,7.7165,7.7165,7.7165,7.7165,7.7165,7.7165,7.7165,7.7165,7.7165,7.7165,7.7165,7.7165,7.7165,7.7165,7.7165,7.7165,7.7165,7.7165,7.7165,7.7165,7.7165,7.7165,7.7165,7.7165,7.7165,7.7165,7.7165,7.7165,7.7165,7.7165,7.7165,7.7165,7.7165,7.7165,7.7165,7.7165,7.7165,7.7165,7.7165,7.7165,4.5997,4.9384,5.3043,5.7905,5.8775,5.9883,6.552,6.6882,6.7315,6.8503,6.7653,6.6541,6.598,6.4822,6.3278,6.1038,6.0501,6.0547,6.0968,6.1049,6.188,6.4077,6.4346,6.4346,6.4346,6.4346,6.4395,6.4492,6.5427,6.65,6.753,6.8603,6.9628,7.0741,7.0765,7.0765,7.0765,7.0765,7.0814,7.0936,7.1965,7.2992,7.4066,7.5139,7.6189,7.7165,7.7165,7.7165,7.7165,7.7165,7.7165,7.7165,7.7165,7.7165,7.7165,7.7165,7.7165,7.7165,7.7165,7.7165,7.7165,7.7165,7.7165,7.7165,7.7165,7.7165,7.7165,7.7165,7.7165,7.7165,7.7165,7.7165,7.7165,7.7165,7.7165,7.7165,7.7165,7.7165,7.7165,7.7165,7.7165,7.7165,7.7165,7.7165,7.7165,7.7165,7.7165,7.7165,7.7165,7.7165,7.7165,7.7165,7.7165,7.7165,7.7165,7.7165,7.7165,7.7165,7.7165,7.7165,7.7165,7.7165,7.7165,7.7165,7.7165,7.7165,7.7165,7.7165,7.7165,7.7165,7.7165,7.7165,3.8378,4.3265,4.8482,4.9813,5.4411,5.9243,6.1801,6.2383,6.3402,6.7097,6.8057,6.7926,6.6859,6.5985,6.4443,6.1575,6.086,6.0504,6.0135,6.0644,6.1595,6.3108,6.3931,6.4346,6.4346,6.4346,6.4346,6.4346,6.5323,6.6354,6.7384,6.8437,6.9554,7.0741,7.0765,7.0765,7.0765,7.0765,7.0765,7.079,7.1818,7.2504,7.2943,7.4041,7.5139,7.6287,7.6872,7.7165,7.7165,7.7165,7.7165,7.7165,7.7165,7.7165,7.7165,7.7165,7.7165,7.7165,7.7165,7.7165,7.7165,7.7165,7.7165,7.7165,7.7165,7.7165,7.7165,7.7165,7.7165,7.7165,7.7165,7.7165,7.7165,7.7165,7.7165,7.7165,7.7165,7.7165,7.7165,7.7165,7.7165,7.7165,7.7165,7.7165,7.7165,7.7165,7.7165,7.7165,7.7165,7.7165,7.7165,7.7165,7.7165,7.7165,7.7165,7.7165,7.7165,7.7165,7.7165,7.7165,7.7165,7.7165,7.7165,7.7165,7.7165,7.7165,7.7165,7.7165,7.7165,7.7165,7.7165,7.7165,3.4081,3.8791,4.4265,4.4576,4.9994,5.5811,5.776,5.8196,5.965,6.4856,6.663,6.7124,6.6573,6.6103,6.4851,6.1893,6.1433,6.0983,5.9672,6.0375,6.1424,6.2498,6.3596,6.4346,6.4346,6.4346,6.4346,6.4346,6.503,6.589,6.6921,6.7994,6.9067,7.0207,7.0573,7.0765,7.0765,7.0765,7.0765,7.0744,7.1501,7.2014,7.2356,7.3065,7.4188,7.5652,7.6409,7.6872,7.7165,7.7165,7.7165,7.7165,7.7165,7.7165,7.7165,7.7165,7.7165,7.7165,7.7165,7.7165,7.7165,7.7165,7.7165,7.7165,7.7165,7.7165,7.7165,7.7165,7.7165,7.7165,7.7165,7.7165,7.7165,7.7165,7.7165,7.7165,7.7165,7.7165,7.7165,7.7165,7.7165,7.7165,7.7165,7.7165,7.7165,7.7165,7.7165,7.7165,7.7165,7.7165,7.7165,7.7165,7.7165,7.7165,7.7165,7.7165,7.7165,7.7165,7.7165,7.7165,7.7165,7.7165,7.7165,7.7165,7.7165,7.7165,7.7165,7.7165,7.7165,7.7165,7.7165,7.7165,3.7006,3.8256,4.1192,4.4934,4.5923,4.7697,5.4153,5.5636,5.7062,6.2152,6.3227,6.3605,6.4885,6.5147,6.4314,6.1824,6.2502,6.2441,5.9839,6.0375,6.1424,6.2498,6.3596,6.4346,6.4346,6.4346,6.4346,6.4346,6.4346,6.481,6.5842,6.6896,6.7969,6.8997,7.0137,7.0765,7.0765,7.0765,7.0765,7.0765,7.079,7.1306,7.2331,7.2356,7.3552,7.5603,7.5628,7.6238,7.7165,7.7165,7.7165,7.7165,7.7165,7.7165,7.7165,7.7165,7.7165,7.7165,7.7165,7.7165,7.7165,7.7165,7.7165,7.7165,7.7165,7.7165,7.7165,7.7165,7.7165,7.7165,7.7165,7.7165,7.7165,7.7165,7.7165,7.7165,7.7165,7.7165,7.7165,7.7165,7.7165,7.7165,7.7165,7.7165,7.7165,7.7165,7.7165,7.7165,7.7165,7.7165,7.7165,7.7165,7.7165,7.7165,7.7165,7.7165,7.7165,7.7165,7.7165,7.7165,7.7165,7.7165,7.7165,7.7165,7.7165,7.7165,7.7165,7.7165,7.7165,7.7165,7.7165,7.7165,3.3907,3.6902,4.0524,4.1716,4.4631,4.8227,5.2059,5.4299,5.6305,5.8777,5.9941,6.093,6.2239,6.5349,6.6377,6.2127,6.2502,6.2187,5.8892,5.9326,6.0375,6.14,6.2474,6.345,6.4273,6.4346,6.4346,6.4346,6.4346,6.481,6.5842,6.6872,6.7945,6.8973,7.0137,7.0765,7.0765,7.0765,7.0765,7.0765,7.0765,7.0961,7.1257,7.1989,7.2697,7.3454,7.4944,7.5799,7.6165,7.6848,7.7165,7.7165,7.7165,7.7165,7.7165,7.7165,7.7165,7.7165,7.7165,7.7165,7.7165,7.7165,7.7165,7.7165,7.7165,7.7165,7.7165,7.7165,7.7165,7.7165,7.7165,7.7165,7.7165,7.7165,7.7165,7.7165,7.7165,7.7165,7.7165,7.7165,7.7165,7.7165,7.7165,7.7165,7.7165,7.7165,7.7165,7.7165,7.7165,7.7165,7.7165,7.7165,7.7165,7.7165,7.7165,7.7165,7.7165,7.7165,7.7165,7.7165,7.7165,7.7165,7.7165,7.7165,7.7165,7.7165,7.7165,7.7165,7.7165,7.7165,7.7165,7.7165,3.4271,3.7035,3.9844,4.1357,4.3343,4.5881,4.9442,5.078,5.1908,5.4149,5.5171,5.6396,5.8692,6.3722,6.6034,6.1439,6.2207,6.2082,5.8424,5.8838,5.9887,6.0912,6.1961,6.306,6.4224,6.4346,6.4346,6.4346,6.4346,6.4639,6.5256,6.6652,6.775,6.8388,6.9962,7.0765,7.0765,7.0765,7.0765,7.0765,7.0765,7.0765,7.079,7.1428,7.194,7.2404,7.3772,7.4846,7.5652,7.6336,7.6849,7.7165,7.7165,7.7165,7.7165,7.7165,7.7165,7.7165,7.7165,7.7165,7.7165,7.7165,7.7165,7.7165,7.7165,7.7165,7.7165,7.7165,7.7165,7.7165,7.7165,7.7165,7.7165,7.7165,7.7165,7.7165,7.7165,7.7165,7.7165,7.7165,7.7165,7.7165,7.7165,7.7165,7.7165,7.7165,7.7165,7.7165,7.7165,7.7165,7.7165,7.7165,7.7165,7.7165,7.7165,7.7165,7.7165,7.7165,7.7165,7.7165,7.7165,7.7165,7.7165,7.7165,7.7165,7.7165,7.7165,7.7165,7.7165,7.7165,7.7165,7.7165,3.6761,3.7959,3.9048,4.2763,4.2248,4.2016,4.6752,4.6039,4.5333,4.8686,4.9442,5.0611,5.4357,6.0173,6.346,6.0451,6.1833,6.2082,5.8598,5.8931,5.992,6.0829,6.1839,6.2937,6.4102,6.4297,6.4346,6.4346,6.4346,6.4346,6.4346,6.633,6.7457,6.7457,6.9621,7.0765,7.0765,7.0765,7.0765,7.0765,7.0765,7.0765,7.0765,7.0765,7.1257,7.2209,7.2282,7.3479,7.5384,7.5555,7.6189,7.7043,7.7116,7.7165,7.7165,7.7165,7.7165,7.7165,7.7165,7.7165,7.7165,7.7165,7.7165,7.7165,7.7165,7.7165,7.7165,7.7165,7.7165,7.7165,7.7165,7.7165,7.7165,7.7165,7.7165,7.7165,7.7165,7.7165,7.7165,7.7165,7.7165,7.7165,7.7165,7.7165,7.7165,7.7165,7.7165,7.7165,7.7165,7.7165,7.7165,7.7165,7.7165,7.7165,7.7165,7.7165,7.7165,7.7165,7.7165,7.7165,7.7165,7.7165,7.7165,7.7165,7.7165,7.7165,7.7165,7.7165,7.7165,7.7165,7.7165,7.7165,3.2239,3.4612,3.7256,3.9182,4.2898,4.6375,4.7566,4.7362,4.6686,4.5653,4.6176,4.7377,4.928,5.4099,5.9307,6.3825,6.3478,6.2014,6.027,6.0236,6.0252,5.9871,6.0766,6.1815,6.2913,6.3833,6.4346,6.4346,6.4346,6.4346,6.4346,6.633,6.7457,6.7457,6.9621,7.0765,7.0765,7.0765,7.0765,7.0765,7.0765,7.0765,7.0765,7.0765,7.0912,7.1135,7.1965,7.2624,7.3235,7.492,7.575,7.6067,7.6848,7.7165,7.7165,7.7165,7.7165,7.7165,7.7165,7.7165,7.7165,7.7165,7.7165,7.7165,7.7165,7.7165,7.7165,7.7165,7.7165,7.7165,7.7165,7.7165,7.7165,7.7165,7.7165,7.7165,7.7165,7.7165,7.7165,7.7165,7.7165,7.7165,7.7165,7.7165,7.7165,7.7165,7.7165,7.7165,7.7165,7.7165,7.7165,7.7165,7.7165,7.7165,7.7165,7.7165,7.7165,7.7165,7.7165,7.7165,7.7165,7.7165,7.7165,7.7165,7.7165,7.7165,7.7165,7.7165,7.7165,7.7165,7.7165,7.7165,3.3709,3.6545,3.8768,3.768,4.0902,4.4166,4.3576,4.3431,4.2898,4.0968,4.155,4.3325,4.6367,4.8802,5.29,6.0854,6.1077,6.0154,5.9789,5.9533,5.9442,5.949,6.0399,6.1424,6.2498,6.3645,6.4346,6.4346,6.4346,6.4346,6.4346,6.5866,6.6945,6.7433,6.9087,7.0231,7.0765,7.0765,7.0765,7.0765,7.0765,7.0765,7.0765,7.0765,7.0765,7.0814,7.133,7.1867,7.2453,7.4138,7.5139,7.5725,7.675,7.7165,7.7165,7.7165,7.7165,7.7165,7.7165,7.7165,7.7165,7.7165,7.7165,7.7165,7.7165,7.7165,7.7165,7.7165,7.7165,7.7165,7.7165,7.7165,7.7165,7.7165,7.7165,7.7165,7.7165,7.7165,7.7165,7.7165,7.7165,7.7165,7.7165,7.7165,7.7165,7.7165,7.7165,7.7165,7.7165,7.7165,7.7165,7.7165,7.7165,7.7165,7.7165,7.7165,7.7165,7.7165,7.7165,7.7165,7.7165,7.7165,7.7165,7.7165,7.7165,7.7165,7.7165,7.7165,7.7165,7.7165,7.7165,7.7165,3.6757,3.9637,4.0839,3.7525,3.8499,3.9942,3.8844,3.8437,3.7971,3.6878,3.7506,3.9619,4.3916,4.4518,4.678,5.4003,5.6257,5.7383,5.8148,5.8339,5.8567,5.9155,6.0302,6.1376,6.2279,6.3548,6.4346,6.4346,6.4346,6.4346,6.4346,6.5329,6.6403,6.7408,6.8437,6.9481,7.0475,7.0646,7.0765,7.0765,7.0765,7.0765,7.0765,7.0765,7.0765,7.0765,7.0765,7.1232,7.216,7.3187,7.4285,7.5457,7.6531,7.7019,7.7165,7.7165,7.7165,7.7165,7.7165,7.7165,7.7165,7.7165,7.7165,7.7165,7.7165,7.7165,7.7165,7.7165,7.7165,7.7165,7.7165,7.7165,7.7165,7.7165,7.7165,7.7165,7.7165,7.7165,7.7165,7.7165,7.7165,7.7165,7.7165,7.7165,7.7165,7.7165,7.7165,7.7165,7.7165,7.7165,7.7165,7.7165,7.7165,7.7165,7.7165,7.7165,7.7165,7.7165,7.7165,7.7165,7.7165,7.7165,7.7165,7.7165,7.7165,7.7165,7.7165,7.7165,7.7165,7.7165,7.7165,7.7165,3.4585,3.7081,3.9066,3.8483,3.9275,4.0185,3.9971,3.9088,3.8233,3.8047,3.8163,3.8542,3.931,4.283,4.5362,4.4663,5.0005,5.4765,5.6038,5.8536,5.9718,5.8356,5.9863,6.1083,6.1229,6.3149,6.4346,6.4346,6.4346,6.4346,6.4346,6.5329,6.6403,6.7408,6.8437,6.9071,6.9286,7.0255,7.0765,7.0765,7.0765,7.0765,7.0765,7.0765,7.0765,7.0765,7.0765,7.0863,7.1037,7.2136,7.3163,7.4261,7.5408,7.6409,7.7165,7.7165,7.7165,7.7165,7.7165,7.7165,7.7165,7.7165,7.7165,7.7165,7.7165,7.7165,7.7165,7.7165,7.7165,7.7165,7.7165,7.7165,7.7165,7.7165,7.7165,7.7165,7.7165,7.7165,7.7165,7.7165,7.7165,7.7165,7.7165,7.7165,7.7165,7.7165,7.7165,7.7165,7.7165,7.7165,7.7165,7.7165,7.7165,7.7165,7.7165,7.7165,7.7165,7.7165,7.7165,7.7165,7.7165,7.7165,7.7165,7.7165,7.7165,7.7165,7.7165,7.7165,7.7165,7.7165,7.7165,7.7165,3.3643,3.6103,3.8296,3.7103,3.7157,3.7498,3.7498,3.6914,3.6409,3.6409,3.6855,3.7663,3.9088,4.0677,4.2753,4.5806,4.8463,5.1254,5.4399,5.6822,5.8162,5.795,5.9779,6.1049,6.1049,6.3052,6.4346,6.4346,6.4346,6.4346,6.4346,6.481,6.5524,6.6598,6.7628,6.8457,6.8997,7.0161,7.0765,7.0765,7.0765,7.0765,7.0765,7.0765,7.0765,7.0765,7.0765,7.0765,7.0863,7.1892,7.2624,7.3187,7.4944,7.5921,7.6409,7.6945,7.7165,7.7165,7.7165,7.7165,7.7165,7.7165,7.7165,7.7165,7.7165,7.7165,7.7165,7.7165,7.7165,7.7165,7.7165,7.7165,7.7165,7.7165,7.7165,7.7165,7.7165,7.7165,7.7165,7.7165,7.7165,7.7165,7.7165,7.7165,7.7165,7.7165,7.7165,7.7165,7.7165,7.7165,7.7165,7.7165,7.7165,7.7165,7.7165,7.7165,7.7165,7.7165,7.7165,7.7165,7.7165,7.7165,7.7165,7.7165,7.7165,7.7165,7.7165,7.7165,7.7165,7.7165,7.7165,7.7165,3.4398,0.0,3.8457,3.6762,3.6323,3.625,0.0,3.5778,3.5536,3.531,3.6068,3.743,3.9419,3.899,4.0207,4.6112,4.6015,4.6834,5.1594,5.3239,5.4824,5.7227,5.9155,6.0473,6.1,6.2807,6.4053,6.4321,6.4346,6.4346,6.4346,6.4346,6.4834,6.5866,6.6652,6.7603,6.8632,6.9771,7.0475,7.0765,7.0765,7.0765,7.0765,7.0765,7.0765,7.0765,7.0765,7.0765,7.0839,7.1599,7.2111,7.2502,7.4187,7.5139,7.5701,7.6531,7.6945,7.7165,7.7165,7.7165,7.7165,7.7165,7.7165,7.7165,7.7165,7.7165,7.7165,7.7165,7.7165,7.7165,7.7165,7.7165,7.7165,7.7165,7.7165,7.7165,7.7165,7.7165,7.7165,7.7165,7.7165,7.7165,7.7165,7.7165,7.7165,7.7165,7.7165,7.7165,7.7165,7.7165,7.7165,7.7165,7.7165,7.7165,7.7165,7.7165,7.7165,7.7165,7.7165,7.7165,7.7165,7.7165,7.7165,7.7165,7.7165,7.7165,7.7165,7.7165,7.7165,7.7165,7.7165,7.7165,0.0,3.9002,3.9879,3.9725,3.9673,3.9451,3.8468,3.8126,0.0,3.679,3.7436,3.8204,3.8378,3.8349,3.8458,3.9013,3.9107,4.0961,4.6248,4.7221,4.9589,5.5605,5.7398,5.8925,6.0839,6.2059,6.3182,6.4248,6.4346,6.4346,6.4346,6.4346,6.4834,6.5866,6.5964,6.6525,6.7555,6.8583,6.9676,7.0765,7.0765,7.0765,7.0765,7.0765,7.0765,7.0765,7.0765,7.0765,7.0765,7.0863,7.1428,7.2356,7.2502,7.3796,7.5628,7.5677,7.636,7.7165,7.7165,7.7165,7.7165,7.7165,7.7165,7.7165,7.7165,7.7165,7.7165,7.7165,7.7165,7.7165,7.7165,7.7165,7.7165,7.7165,7.7165,7.7165,7.7165,7.7165,7.7165,7.7165,7.7165,7.7165,7.7165,7.7165,7.7165,7.7165,7.7165,7.7165,7.7165,7.7165,7.7165,7.7165,7.7165,7.7165,7.7165,7.7165,7.7165,7.7165,7.7165,7.7165,7.7165,7.7165,7.7165,7.7165,7.7165,7.7165,7.7165,7.7165,7.7165,7.7165,7.7165,7.7165,3.9664,4.0334,4.0791,3.9429,3.8578,3.783,3.6789,3.5885,3.5347,3.5723,3.5964,3.6565,3.8012,3.8309,3.9092,4.151,4.1063,4.2004,4.6457,4.7917,4.9767,5.2893,5.6592,5.9472,6.0888,6.1986,6.3084,6.4248,6.4346,6.4346,6.4346,6.4346,6.4517,6.4932,6.5549,6.6086,6.65,6.8189,6.9192,6.9652,7.0402,7.0765,7.0765,7.0765,7.0765,7.0765,7.0765,7.0765,0.0,7.0765,7.101,7.1403,7.2063,7.2844,7.3747,7.5091,7.5872,7.6312,7.6921,7.7165,7.7165,7.7165,7.7165,7.7165,7.7165,7.7165,7.7165,7.7165,7.7165,7.7165,7.7165,7.7165,7.7165,7.7165,7.7165,7.7165,7.7165,7.7165,7.7165,7.7165,7.7165,7.7165,7.7165,7.7165,7.7165,7.7165,7.7165,7.7165,7.7165,7.7165,7.7165,7.7165,7.7165,7.7165,7.7165,7.7165,7.7165,7.7165,7.7165,7.7165,7.7165,7.7165,7.7165,7.7165,7.7165,7.7165,7.7165,7.7165,7.7165,7.7165,7.7165,7.7165,4.1831,4.2246,4.2414,4.0899,3.9727,3.8508,3.6753,3.5668,3.4969,3.4734,3.5074,3.5816,3.7056,3.7579,3.8814,4.184,4.1649,4.2645,4.7077,4.8902,5.0418,5.2258,5.6007,5.8702,5.9423,6.1083,6.2718,6.4224,6.4346,6.4346,6.4346,6.4346,6.4346,6.4346,6.5054,6.5549,6.589,6.7311,6.8213,6.851,6.9673,7.0231,7.0231,7.0573,7.0765,7.0765,7.0765,7.0765,7.0765,7.0765,7.0765,7.0863,7.1525,7.2014,7.2502,7.4016,7.5017,7.5725,7.6434,7.6872,7.7165,7.7165,7.7165,7.7165,7.7165,7.7165,7.7165,7.7165,7.7165,7.7165,7.7165,7.7165,7.7165,7.7165,7.7165,7.7165,7.7165,7.7165,7.7165,7.7165,7.7165,7.7165,7.7165,7.7165,7.7165,7.7165,7.7165,7.7165,7.7165,7.7165,7.7165,7.7165,7.7165,7.7165,7.7165,7.7165,7.7165,7.7165,7.7165,7.7165,7.7165,7.7165,7.7165,7.7165,7.7165,7.7165,7.7165,7.7165,7.7165,7.7165,7.7165,7.7165,4.4625,4.4918,4.4918,4.4918,4.4113,4.2484,3.9241,3.8481,3.7559,3.4283,3.5271,3.6383,3.5386,3.6029,3.7122,3.8305,3.9375,4.1959,4.7417,4.9125,5.098,5.4225,5.5531,5.6153,5.6214,5.913,6.1977,6.4175,6.4346,6.4346,6.4346,6.4346,6.4346,6.4346,6.4346,6.4834,6.5866,6.589,6.6427,6.7457,6.8486,6.8997,6.9046,7.0231,7.0765,7.0765,7.0765,7.0765,7.0765,7.0765,7.0765,7.0765,7.0765,7.1379,7.2307,7.2331,7.3699,7.5579,7.5603,7.6312,7.7141,7.7165,7.7165,7.7165,7.7165,7.7165,7.7165,7.7165,7.7165,7.7165,7.7165,7.7165,7.7165,7.7165,7.7165,7.7165,7.7165,7.7165,7.7165,7.7165,7.7165,7.7165,7.7165,7.7165,7.7165,7.7165,7.7165,7.7165,7.7165,7.7165,7.7165,7.7165,7.7165,7.7165,7.7165,7.7165,7.7165,7.7165,7.7165,7.7165,7.7165,7.7165,7.7165,7.7165,7.7165,7.7165,7.7165,7.7165,7.7165,7.7165,7.7165,7.7165,4.482,4.4918,4.4918,4.4918,4.4113,4.2484,3.9241,3.7924,3.6695,3.4165,3.4104,3.4925,3.6067,3.6525,3.7356,3.9264,4.1135,4.3191,4.5528,4.8832,5.1657,5.3333,5.5068,5.6507,5.7349,5.9619,6.1977,6.4175,6.4346,6.4346,6.4346,6.4346,6.4346,6.4346,6.4346,6.4492,6.481,6.5524,6.6061,6.6403,6.8164,6.8997,6.9046,7.0231,7.0765,7.0765,7.0765,7.0765,7.0765,7.0765,7.0765,7.0765,7.0765,7.0961,7.1281,7.2063,7.2746,7.3528,7.5066,7.5823,7.6214,7.6921,7.7165,7.7165,7.7165,7.7165,7.7165,7.7165,7.7165,7.7165,7.7165,7.7165,7.7165,7.7165,7.7165,7.7165,7.7165,7.7165,7.7165,7.7165,7.7165,7.7165,7.7165,7.7165,7.7165,7.7165,7.7165,7.7165,7.7165,7.7165,7.7165,7.7165,7.7165,7.7165,7.7165,7.7165,7.7165,7.7165,7.7165,7.7165,7.7165,7.7165,7.7165,7.7165,7.7165,7.7165,7.7165,7.7165,7.7165,7.7165,7.7165,7.7165,4.4918,4.5264,4.5605,4.5605,4.5459,4.4313,4.0657,3.8997,3.736,3.4323,3.398,3.4537,3.5426,3.6603,3.8279,4.0931,4.3201,4.5637,4.8382,5.1419,5.3772,5.4871,5.6129,5.7141,5.7837,5.9789,6.1586,6.293,6.3833,6.4346,6.4346,6.4346,6.4346,6.4346,6.4346,6.4346,6.4346,6.4981,6.5256,6.528,6.6945,6.7994,6.8412,6.9551,7.0329,7.0765,7.0765,7.0765,7.0765,7.0765,7.0765,7.0765,7.0765,7.0765,7.0863,7.1452,7.1965,7.2526,7.3845,7.4871,7.5725,7.636,7.658,7.658,7.658,7.6823,7.7165,7.7165,7.7165,7.7165,7.7165,7.7165,7.7165,7.7165,7.7165,7.7165,7.7165,7.7165,7.7165,7.7165,7.7165,7.7165,7.7165,7.7165,7.7165,7.7165,7.7165,7.7165,7.7165,7.7165,7.7165,7.7165,7.7165,7.7165,7.7165,7.7165,7.7165,7.7165,7.7165,7.7165,7.7165,7.7165,7.7165,7.7165,7.7165,7.7165,7.7165,7.7165,7.7165,7.7165,7.7165,7.7165,4.4918,4.5752,4.666,4.666,4.741,4.7093,4.2756,4.105,3.9121,3.4747,3.4467,3.4812,3.3973,3.6481,3.9659,4.2856,4.5523,4.8954,5.3932,5.5605,5.6726,5.7788,5.791,5.791,5.791,5.9755,6.0952,6.1049,6.3003,6.4199,6.4199,6.4297,6.4346,6.4346,6.4346,6.4346,6.4346,6.4346,6.4346,6.4346,6.5378,6.6403,6.7335,6.8461,6.9579,7.0573,7.0741,7.0765,7.0765,7.0765,7.0765,7.0765,7.0765,7.0765,7.0765,7.0765,7.1354,7.2185,7.2282,7.365,7.5335,7.5432,7.5457,7.5457,7.5457,7.6214,7.7019,7.7019,7.7067,7.7165,7.7165,7.7165,7.7165,7.7165,7.7165,7.7165,7.7165,7.7165,7.7165,7.7165,7.7165,7.7165,7.7165,7.7165,7.7165,7.7165,7.7165,7.7165,7.7165,7.7165,7.7165,7.7165,7.7165,7.7165,7.7165,7.7165,7.7165,7.7165,7.7165,7.7165,7.7165,7.7165,7.7165,7.7165,7.7165,7.7165,7.7165,7.7165,7.7165,7.7165,7.7165,7.7165,4.4918,4.5752,4.666,4.666,4.741,4.7093,4.2756,4.1611,3.9999,3.4871,3.3968,3.4023,3.3715,3.7067,4.0626,4.2966,4.8055,5.2405,5.4347,5.6324,5.7642,5.7886,5.791,5.791,5.791,5.9082,6.0155,6.1,6.223,6.2962,6.2962,6.3857,6.4346,6.4346,6.4346,6.4346,6.4346,6.4346,6.4346,6.4346,6.5378,6.6012,6.6305,6.8164,6.9119,6.9433,7.0353,7.0765,7.0765,7.0765,7.0765,7.0765,7.0765,7.0765,7.0765,7.0765,7.0912,7.1183,7.2038,7.2649,7.3161,7.3968,7.4236,7.4236,7.4236,7.5017,7.5945,7.5945,7.6556,7.7165,7.7165,7.7165,7.7165,7.7165,7.7165,7.7165,7.7165,7.7165,7.7165,7.7165,7.7165,7.7165,7.7165,7.7165,7.7165,7.7165,7.7165,7.7165,7.7165,7.7165,7.7165,7.7165,7.7165,7.7165,7.7165,7.7165,7.7165,7.7165,7.7165,7.7165,7.7165,7.7165,7.7165,7.7165,7.7165,7.7165,7.7165,7.7165,7.7165,7.7165,7.7165,7.7165,4.5605,4.6557,4.7539,4.8027,4.8954,4.893,4.5635,4.4488,4.2759,3.79,3.6438,3.5732,3.4652,3.8455,4.2443,4.4582,4.9925,5.4372,5.5982,5.7203,5.791,5.791,5.791,5.791,5.791,5.8886,5.9741,6.0253,6.1702,6.258,6.258,6.3182,6.3743,6.4321,6.4346,6.4346,6.4346,6.4346,6.4346,6.4346,6.4908,6.5402,6.5939,6.753,6.8534,6.9046,7.0255,7.0765,7.0765,7.0765,7.0765,7.0765,7.0765,7.0765,7.0765,7.0765,7.0765,7.0863,7.1354,7.1892,7.2331,7.238,7.2699,7.3114,7.3114,7.3895,7.4798,7.4798,7.5603,7.6434,7.6434,7.6824,7.7165,7.7165,7.7165,7.7165,7.7165,7.7165,7.7165,7.7165,7.7165,7.7165,7.7165,7.7165,7.7165,7.7165,7.7165,7.7165,7.7165,7.7165,7.7165,7.7165,7.7165,7.7165,7.7165,7.7165,7.7165,7.7165,7.7165,7.7165,7.7165,7.7165,7.7165,7.7165,7.7165,7.7165,7.7165,7.7165,7.7165,7.7165,7.7165,7.7165,4.602,4.7239,4.841,4.9296,5.05,5.0948,4.8703,4.7532,4.5757,4.1611,3.9852,3.847,3.6551,4.0598,4.4777,4.664,5.159,5.5836,5.7666,5.791,5.791,5.791,5.791,5.791,5.791,5.8716,5.9263,5.9458,6.1067,6.2043,6.2043,6.2384,6.3035,6.4028,6.4248,6.4346,6.4346,6.4346,6.4346,6.4346,6.4346,6.481,6.5646,6.672,6.7652,6.8555,6.9868,7.0451,7.0451,7.0692,7.0765,7.0765,7.0765,7.0765,7.0765,7.0765,7.0765,7.0765,7.0765,7.1306,7.1916,7.1012,7.133,7.2063,7.2063,7.2795,7.3602,7.3602,7.4407,7.531,7.531,7.6116,7.6872,7.6872,7.7019,7.7165,7.7165,7.7165,7.7165,7.7165,7.7165,7.7165,7.7165,7.7165,7.7165,7.7165,7.7165,7.7165,7.7165,7.7165,7.7165,7.7165,7.7165,7.7165,7.7165,7.697,7.6872,7.6872,7.6701,7.6579,7.6579,7.6824,7.6872,7.6872,7.7067,7.7165,7.7165,7.7165,7.7391,7.7816,7.7816,7.804,4.4845,4.6624,4.8264,4.8386,4.9987,5.0948,4.8703,4.8093,4.7044,4.363,4.2084,4.0989,3.9807,4.3943,4.7669,4.7954,5.3347,5.7593,5.7899,5.791,5.791,5.791,5.791,5.791,5.791,5.8032,5.8496,5.9409,5.9726,5.9872,5.9872,6.1604,6.2693,6.284,6.3833,6.4346,6.4346,6.4346,6.4346,6.4346,6.4346,6.4419,6.459,6.5622,6.6183,6.6427,6.8384,6.9262,6.9335,7.0329,7.0765,7.0765,7.0765,7.0765,7.0765,7.0765,7.0765,7.0765,7.0765,7.0863,7.0915,7.0814,7.0863,7.0985,7.0985,7.1696,7.2551,7.2551,7.3285,7.409,7.409,7.492,7.5823,7.5823,7.6531,7.7165,7.7165,7.7165,7.7165,7.7165,7.7165,7.7165,7.7165,7.7165,7.7165,7.7165,7.7165,7.7165,7.7165,7.7165,7.7165,7.7165,7.7165,7.7165,7.7165,7.636,7.5823,7.5823,7.4871,7.431,7.431,7.531,7.5823,7.5823,7.6727,7.7165,7.7165,7.7165,7.8263,8.0366,8.0366,8.1518,4.4455,4.6093,4.7636,4.8776,4.9808,5.0451,5.0134,5.006,4.9271,4.663,4.5269,4.4029,4.2292,4.5879,4.9069,4.9069,5.4054,5.791,5.791,5.791,5.791,5.791,5.791,5.791,5.791,5.791,5.8106,5.8569,5.8618,5.8862,5.9433,6.0912,6.1986,6.2555,6.376,6.4346,6.4346,6.4346,6.4346,6.4346,6.4346,6.4346,6.437,6.5445,6.589,6.5964,6.7482,6.8164,6.8189,6.8697,6.8892,6.8965,6.9551,6.9771,6.9868,7.0524,7.0765,7.0765,7.0765,7.0765,7.0765,7.0765,7.0765,7.0765,7.0765,7.1061,7.1428,7.1428,7.2209,7.2992,7.2992,7.3797,7.4603,7.4603,7.5506,7.6312,7.6312,7.6776,7.7165,7.7165,7.7165,7.7165,7.7165,7.7165,7.7165,7.7165,7.7165,7.7165,7.7165,7.7165,7.7165,7.7165,7.6678,7.6312,7.6312,7.5237,7.4603,7.4603,7.4163,7.387,7.387,7.4358,7.4603,7.4603,7.5091,7.5969,7.7271,7.8017,7.9567,8.1847,8.2598,8.3543,4.4044,4.5657,4.7195,4.905,4.9729,5.0127,5.0867,5.107,5.0671,4.932,4.8198,4.6953,4.5294,4.8076,5.0589,5.0589,5.4713,5.791,5.791,5.791,5.791,5.791,5.791,5.791,5.791,5.791,5.791,5.791,5.791,5.8252,5.9019,6.0058,6.101,6.175,6.3157,6.3906,6.3906,6.4199,6.4346,6.4346,6.4346,6.4346,6.437,6.5134,6.55,6.5549,6.6622,6.7043,6.7067,6.7335,6.7457,6.753,6.8291,6.8607,6.8774,6.9868,7.0329,7.0329,7.0329,7.0329,7.0378,7.0646,7.0765,7.0765,7.0765,7.0765,7.0765,7.0765,7.1306,7.1916,7.1916,7.265,7.348,7.348,7.431,7.5188,7.5188,7.5749,7.6335,7.6335,7.6335,7.6335,7.6335,7.6335,7.653,7.7067,7.6921,7.6652,7.636,7.6335,7.6335,7.6335,7.5652,7.5188,7.5188,7.4114,7.348,7.348,7.3212,7.3065,7.3065,7.3309,7.348,7.348,7.432,7.5604,7.7399,7.8911,8.0795,8.3078,8.4432,8.5337,4.3296,4.5472,4.7311,4.8535,4.9573,5.0249,4.9918,4.9865,5.0134,5.1144,5.0402,4.9564,4.9442,5.1355,5.2893,5.2893,5.575,5.791,5.791,5.791,5.791,5.791,5.791,5.791,5.791,5.791,5.791,5.791,5.791,5.7935,5.7984,5.9008,5.958,5.9629,6.1604,6.2693,6.2693,6.3767,6.4346,6.4346,6.4346,6.4346,6.4346,6.4395,6.4419,6.4492,6.5524,6.5964,6.6061,6.7043,6.7457,6.7457,6.7506,6.753,6.7652,6.8705,6.9095,6.9095,6.9095,6.9095,6.9286,7.0402,7.0765,7.0765,7.0765,7.0765,7.0765,7.0765,7.0814,7.0863,7.0863,7.1599,7.2404,7.2404,7.3187,7.3968,7.3968,7.4017,7.4041,7.4041,7.4041,7.4041,7.4041,7.4041,7.4749,7.6848,7.6336,7.531,7.4188,7.4041,7.4041,7.4041,7.3992,7.3968,7.3968,7.2992,7.2404,7.2404,7.1452,7.0936,7.0936,7.1867,7.2404,7.2404,7.5592,7.726,7.7399,7.9557,8.1866,8.4321,8.5604,8.748,4.3039,4.4975,4.6703,4.9478,5.0445,5.0851,5.1413,5.1496,5.1863,5.3142,5.3038,5.2681,5.2439,5.4491,5.5739,5.4317,5.6537,5.833,5.7976,5.791,5.791,5.791,5.791,5.791,5.791,5.791,5.791,5.791,5.791,5.791,5.791,5.8935,5.9482,5.9482,6.0863,6.1913,6.258,6.3011,6.3613,6.4346,6.4346,6.4346,6.4346,6.4346,6.4346,6.4346,6.4737,6.4908,6.4932,6.528,6.5427,6.5524,6.6208,6.6476,6.6598,6.7628,6.8018,6.8018,6.8018,6.8018,6.8091,6.8502,6.9087,6.9603,6.9603,7.0137,7.0765,7.0765,7.0765,7.0765,7.0765,7.1012,7.1306,7.1306,7.2111,7.2845,7.2845,7.3407,7.387,7.387,7.387,7.387,7.387,7.387,7.4139,7.4944,7.4187,7.3601,7.3846,7.387,7.387,7.387,7.326,7.2845,7.2845,7.1916,7.1306,7.1306,7.0985,7.0765,7.0765,7.1086,7.197,7.3397,7.4633,7.6677,7.962,8.1248,8.3246,8.5484,8.6815,8.7899,4.1594,4.337,4.5373,4.8929,5.015,5.0719,5.1724,5.1958,5.2305,5.351,5.4128,5.4362,5.4082,5.6164,5.7459,5.5965,5.7378,5.8612,5.8249,5.8053,5.791,5.791,5.791,5.791,5.791,5.791,5.791,5.791,5.791,5.791,5.791,5.8594,5.896,5.896,5.996,6.0839,6.1531,6.1913,6.262,6.376,6.376,6.3955,6.4346,6.4346,6.4346,6.4346,6.4346,6.4346,6.4346,6.4346,6.4346,6.4419,6.5085,6.5353,6.5475,6.653,6.672,6.6476,6.6799,6.6921,6.6969,6.7335,6.792,6.8461,6.8461,6.9038,6.9743,7.0085,7.0161,7.0255,7.0646,7.0765,7.0765,7.0765,7.1257,7.1794,7.1794,7.2356,7.2797,7.2797,7.2797,7.2797,7.2797,7.3089,7.3212,7.2845,7.2868,7.2868,7.2797,7.2797,7.2797,7.2797,7.2209,7.1794,7.1794,7.1135,7.0765,7.0765,7.0765,7.0765,7.0765,7.1493,7.2549,7.4031,7.5552,7.7829,8.0839,8.2478,8.4017,8.5495,8.6814,8.7395,3.9098,4.0885,4.3427,4.6778,4.8568,4.978,5.0691,5.0898,5.1218,5.234,5.3604,5.4464,5.4485,5.6391,5.7977,5.7931,5.8394,5.8734,5.875,5.8296,5.7937,5.7937,5.7924,5.791,5.791,5.791,5.791,5.791,5.791,5.7948,5.8023,5.7948,5.7948,5.8023,5.8949,5.9433,5.9482,6.0497,6.1498,6.2571,6.2571,6.3133,6.4248,6.4273,6.4297,6.4346,6.4346,6.4346,6.4346,6.4346,6.4346,6.4346,6.4346,6.4346,6.4468,6.5451,6.5225,6.4492,6.5475,6.5842,6.6012,6.7018,6.736,6.7408,6.7408,6.7433,6.7677,6.8656,6.8949,6.9237,7.0353,7.0692,7.0716,7.0716,7.0765,7.0765,7.0765,7.0765,7.0765,7.0765,7.0765,7.0765,7.0765,7.1599,7.1916,7.0936,7.2502,7.3041,7.0988,7.0765,7.0765,7.0765,7.0765,7.0765,7.0765,7.0765,7.0765,7.0765,7.0741,7.0716,7.0716,7.2807,7.3972,7.406,7.8459,8.0767,8.0848,8.3014,8.4061,8.4148,8.5408,8.6018,4.1739,4.3212,4.436,4.7089,4.8044,4.8613,4.9813,5.0082,5.0962,5.4111,5.5021,5.5493,5.6142,5.7723,5.8704,5.8042,5.9072,5.9802,5.9315,5.8825,5.8493,5.8493,5.8153,5.791,5.791,5.791,5.791,5.791,5.791,5.8536,5.9825,5.866,5.8511,5.9862,5.892,5.874,5.9482,5.9751,6.0448,6.1473,6.1473,6.162,6.1977,6.2718,6.3523,6.4346,6.4346,6.4346,6.4346,6.4346,6.4346,6.4346,6.4346,6.4346,6.437,6.4688,6.459,6.4395,6.4688,6.4785,6.4834,6.5085,6.5695,6.633,6.633,6.6823,6.7506,6.7799,6.7896,6.7945,6.8306,6.8941,6.9481,6.9481,7.0112,7.0765,7.0765,7.0765,7.0765,7.0765,7.0765,7.0765,7.0765,7.101,7.1107,7.0814,7.1232,7.1403,7.0863,7.0765,7.0765,7.0765,7.0765,7.0765,7.0765,7.0765,7.0765,7.0765,6.9966,6.9481,6.9481,7.081,7.2344,7.4019,7.6678,7.8897,8.0579,8.1201,8.1957,8.2896,8.3275,8.3876,3.8076,3.8765,3.9518,4.2974,4.3838,4.4884,4.8838,4.8947,4.9093,5.2442,5.4008,5.4972,5.5467,5.7606,5.9104,5.8572,5.9596,6.033,5.9956,5.9375,5.8931,5.875,5.9095,5.9358,5.9358,5.9899,6.0215,6.0215,6.0215,6.0671,6.1728,6.0779,6.0335,6.0645,5.9631,5.8994,5.8838,5.8838,5.935,6.0399,6.0399,6.0619,6.1074,6.1668,6.2303,6.2954,6.2954,6.3223,6.3596,6.3596,6.3906,6.4346,6.4346,6.4346,6.4224,6.332,6.2954,6.2954,6.2954,6.3271,6.3596,6.3596,6.4353,6.5274,6.5274,6.5646,6.6256,6.6652,6.6818,6.6896,6.7335,6.792,6.8384,6.8384,6.8847,6.9523,6.9917,7.0015,7.0161,7.0646,7.0765,7.0765,7.0765,7.0765,7.0765,7.0765,7.0765,7.0765,7.0765,7.0765,7.0765,7.0765,7.0765,7.0548,7.0063,6.96,6.9401,6.9401,6.8725,6.8759,6.961,7.1184,7.3039,7.5242,7.7382,7.9102,8.0481,8.0481,8.086,8.1587,8.1587,8.1965,3.091,3.0807,3.1849,3.6154,3.7348,3.9251,0.0,4.6272,4.5644,4.8447,5.0931,5.2771,5.3422,5.6233,5.8632,5.9185,5.9856,6.0383,6.0524,6.0005,5.9422,5.8983,6.0327,6.1289,6.1195,6.2395,6.3134,6.3134,6.3302,6.346,6.3659,6.346,6.2723,6.1301,6.0835,5.9862,5.8237,5.7999,5.8398,5.9287,5.9287,5.9814,6.0668,6.079,6.0839,6.0839,6.0961,6.1571,6.2409,6.2409,6.3035,6.398,6.398,6.398,6.3777,6.1998,6.1341,6.1381,6.1617,6.2298,6.3047,6.3047,6.3615,6.4311,6.4434,6.4317,6.437,6.5427,6.572,6.5939,6.6847,6.7189,6.7262,6.7262,6.736,6.7701,6.8632,6.8827,6.9164,7.0182,7.0475,7.0548,7.0548,7.0692,7.0692,7.0402,7.0378,7.0378,7.0378,7.0378,7.0378,7.0378,7.0378,6.9941,6.89,6.7994,6.7457,6.7457,6.7335,6.8214,7.0309,7.2476,7.4556,7.6549,7.8744,7.9812,7.9812,7.9812,7.9899,8.0045,8.019,8.0016,0.0,0.0,0.0,0.0,0.0,0.0,0.0,3.7122,3.9419,4.3707,4.5317,4.7402,5.2157,5.3114,5.4527,5.8632,5.9434,5.9877,6.0944,6.0625,6.0218,6.0123,6.0432,6.0441,5.9911,6.1028,6.1791,6.1791,6.2777,6.4036,6.5484,6.4173,6.3899,6.4987,6.2197,6.0465,6.0128,5.866,5.8008,5.8228,5.8228,5.8325,5.8545,5.9423,5.9814,5.9838,6.0668,6.1171,6.1367,6.1367,6.1449,6.1684,6.1684,6.1684,6.1795,6.2826,6.3229,6.3434,6.5028,6.5709,6.5893,6.5893,6.4954,6.4065,6.5003,6.4187,6.3182,6.4346,6.4639,6.4688,6.4908,6.5549,6.6208,6.6208,6.6823,6.7506,6.7725,6.775,6.7823,6.8042,6.8774,6.9359,6.9359,7.0112,7.0133,6.838,6.8111,6.8111,6.8111,6.8111,6.8111,6.8111,6.8111,6.7994,6.7774,6.7555,6.7457,6.7457,6.6628,6.7118,6.9216,7.0417,7.2077,7.4121,7.5213,7.5762,7.5762,7.5762,7.6315,7.7355,7.8409,7.7216,0.0,0.0,0.0,0.0,0.0,0.0,0.0,0.0,0.0,0.0,0.0,4.29,4.6817,0.0,5.2303,5.5557,5.7403,5.8836,6.0088,6.0027,5.9856,5.9856,6.0454,6.0983,6.1287,6.2515,6.3556,6.4204,6.4851,6.5886,6.7471,6.666,6.6138,6.611,6.3425,6.156,6.0645,5.8821,5.791,5.791,5.791,5.791,5.7935,5.8472,5.8716,5.874,5.9253,5.9472,5.9521,6.0033,6.057,6.1031,6.0884,6.0854,6.1056,6.2878,6.3546,6.3692,6.4691,6.5378,6.5788,6.5788,6.5531,6.5132,6.4739,6.4648,6.4543,6.4167,6.4463,6.4913,6.4913,6.5045,6.5127,6.5127,6.5524,6.6037,6.653,6.6652,6.6823,6.7335,6.7896,6.8262,6.8262,7.0435,7.1125,6.793,6.8344,6.8622,6.7564,6.7457,6.7238,6.6725,6.6652,6.6476,6.5939,6.589,6.589,6.589,6.4865,6.563,6.8667,6.872,7.0016,7.3018,7.3483,7.3668,7.3668,7.3668,7.4017,7.4652,7.5326,7.457,0.0,0.0,0.0,0.0,0.0,0.0,0.0,0.0,0.0,0.0,0.0,0.0,0.0,0.0,0.0,5.2087,5.5061,5.7523,5.8802,5.8719,5.8661,5.8923,6.0088,6.1252,6.2326,6.3838,6.5176,6.6224,6.6544,6.7155,6.82,6.8491,6.7889,6.6331,6.4404,6.2688,6.1194,5.9006,5.791,5.791,5.791,0.0,5.791,5.791,5.791,5.791,5.791,5.791,5.7984,5.8838,5.9667,6.0502,6.0998,6.1158,6.1408,6.3218,6.3899,6.3968,6.4309,6.5005,6.5718,6.5718,6.6089,6.6309,6.4983,6.5368,0.0,6.4724,6.4981,6.5729,6.5729,6.4989,6.4321,6.4706,6.4674,6.4947,6.6146,6.6619,6.7017,6.7845,6.8193,6.8238,6.7831,7.0702,7.1798,6.8231,6.9302,6.9663,6.7386,6.7301,6.6975,6.5713,6.5598,6.5231,6.4419,6.376,6.3589,6.398,6.2547,6.3225,6.6654,6.6172,6.7511,7.1147,7.124,7.1632,7.2388,7.2388,7.2388,7.2301,6.9567,6.8957,0.0,0.0,0.0,0.0,0.0,0.0,0.0,0.0,0.0,0.0,0.0,0.0,0.0,0.0,0.0,0.0,5.3511,5.6008,5.7536,5.6742,5.6422,5.7582,5.8777,5.9565,5.9737,6.1948,6.346,6.3605,6.4681,6.5438,6.5554,6.666,0.0,0.0,0.0,6.3252,6.3071,5.9656,5.791,5.791,5.791,5.791,5.791,5.791,5.791,5.791,5.791,5.791,5.791,5.8057,5.8154,5.8581,6.1797,6.3071,6.3287,6.5121,6.5784,6.6044,6.7754,0.0,0.0,6.8555,6.7458,6.6324,6.7127,6.6325,6.5307,6.611,6.6436,6.6542,6.6542,6.5201,6.4277,6.5983,6.5945,6.6063,6.7896,6.9113,6.9895,7.0002,7.0865,7.0994,6.9129,6.99,7.0212,6.8727,6.9572,6.9255,6.6129,6.6734,6.671,6.4726,6.4517,0.0,6.4346,6.1693,6.0839,6.2693,6.0058,5.8995,6.0278,6.135,6.3171,6.5929,6.5964,6.7708,7.117,7.117,7.117,7.085,5.8225,5.5378,0.0,0.0,0.0,0.0,0.0,0.0,0.0,0.0,0.0,0.0,0.0,0.0,0.0,0.0,0.0,0.0,4.9382,5.1484,5.1427,5.2519,5.3829,5.5134,5.6389,5.744,5.8193,5.9243,6.0493,6.192,6.2559,6.3518,6.503,6.5642,6.5933,6.5933,6.4653,6.3929,6.3929,6.1016,5.9484,5.9509,5.8424,5.791,5.791,5.791,5.8536,5.9484,5.9484,6.0117,6.1102,6.1102,6.1102,6.1256,0.0,0.0,0.0,0.0,6.6824,6.7911,6.8732,6.9015,6.9015,6.9015,6.8449,6.7678,6.7048,6.7055,6.7167,6.6493,6.6807,6.7348,6.7348,6.6407,6.5663,6.6477,6.6479,6.6487,6.7335,6.7868,6.8254,6.8254,6.9218,0.0,6.9553,7.1336,7.1892,6.9041,7.0635,7.1245,6.8672,6.7802,6.6844,6.5287,6.4057,6.306,6.249,6.1156,0.0,0.0,0.0,5.9626,5.9417,6.0927,0.0,0.0,0.0,6.1116,6.314,5.9359,0.0,0.0,5.3072,5.1987,0.0,0.0,0.0,0.0,0.0,0.0,0.0,0.0,0.0,0.0,0.0,0.0,0.0,0.0,0.0,0.0,4.4834,4.713,4.5927,4.8286,5.0337,5.0942,5.3101,5.4619,5.4822,5.6157,5.773,5.9537,6.0002,6.1163,6.3373,6.3867,6.4216,6.4565,6.4076,6.3812,6.3812,6.1504,6.0332,6.0296,5.9352,5.8899,5.8925,5.9262,6.0153,6.1408,6.1408,6.2161,6.3356,6.3356,6.3356,6.3406,6.3708,6.465,6.5811,6.5811,6.6956,6.852,6.8898,6.8549,6.7997,6.8346,6.823,6.7718,6.6683,6.7367,6.8269,6.7191,6.7502,6.817,6.817,6.7335,6.6667,6.7191,6.7188,6.7191,6.7754,6.8107,6.8326,6.8326,6.8828,6.944,7.0008,7.2324,7.3008,6.9744,7.1562,7.2385,6.9965,6.8758,6.7347,6.5368,6.3816,6.2376,6.1162,6.0204,5.996,6.057,5.9765,5.9204,5.9043,5.9466,6.073,6.2965,5.9117,5.7077,0.0,0.0,0.0,0.0,0.0,0.0,0.0,0.0,0.0,0.0,0.0,0.0,0.0,0.0,0.0,0.0,0.0,0.0,0.0,0.0,0.0,0.0,0.0,0.0,4.27,4.4556,4.5653,4.4567,4.8795,5.0838,4.8379,5.2704,5.5695,5.5782,5.6942,5.8193,5.9417,6.0669,6.192,6.3198,6.2713,6.2438,6.2438,6.0527,5.9514,5.954,6.0726,6.132,6.1381,6.2606,6.3218,6.3287,6.3287,6.3287,6.3356,6.3356,6.3356,6.3485,6.4606,6.5085,6.5174,6.5174,6.5989,6.7301,6.8549,6.7357,6.5438,6.6719,6.6282,6.5467,6.6658,6.7066,6.7388,6.8574,6.8949,6.8978,6.8978,6.7552,6.658,6.8501,6.8427,6.8515,7.0383,7.17,7.2508,7.2508,7.1642,7.0891,7.0927,7.1948,7.2355,7.1066,7.1907,0.0,6.832,6.8973,6.8194,6.4223,6.3766,6.301,6.1208,5.8117,5.7239,5.9385,5.6556,5.5787,5.7886,5.498,5.3933,5.5128,5.7334,5.75,5.5636,0.0,0.0,0.0,0.0,0.0,0.0,0.0,0.0,0.0,0.0,0.0,0.0,0.0,0.0,0.0,0.0,0.0,0.0,0.0,0.0,0.0,0.0,0.0,0.0,4.125,4.4227,4.2976,4.5777,4.7017,4.4906,4.7423,4.9703,5.0969,5.3509,5.5516,5.6771,5.8079,5.8981,5.9417,6.0858,6.1634,6.1634,6.1479,6.1408,6.1408,6.0531,6.0126,6.0153,6.0593,6.1479,6.2717,6.2717,6.3421,6.4523,6.4523,6.4523,6.4564,6.4957,6.5118,6.5118,6.5118,6.5409,6.5846,6.6281,6.5845,6.5176,6.5642,6.5467,6.5176,6.5671,6.5788,6.5875,6.631,6.7037,6.7708,6.7708,6.788,6.8197,6.8857,6.8831,6.8862,6.9498,6.9975,7.0265,7.0265,6.852,6.6543,6.4797,6.8433,7.0236,6.6397,6.9771,7.233,7.1199,7.03,6.9269,6.7896,6.535,6.3243,6.1925,5.9685,5.8385,5.8447,5.7422,5.7154,5.7886,5.8019,5.8272,5.867,6.1107,5.7436,4.7339,0.0,0.0,0.0,0.0,0.0,0.0,0.0,0.0,0.0,0.0,0.0,0.0,0.0,0.0,0.0,0.0,0.0,0.0,0.0,0.0,0.0,0.0,0.0,0.0,0.0,0.0,4.031,4.2345,0.0,4.0298,4.1671,4.3492,4.526,4.8415,5.1109,5.3077,5.4475,5.5753,5.6797,5.8402,5.9448,5.9913,6.0429,6.0672,6.0672,6.0284,6.0111,6.0139,6.1086,6.2195,6.3369,6.3369,6.4038,6.4972,6.314,6.186,6.1045,6.1045,6.0463,5.9737,6.0696,6.1336,6.1802,6.2267,6.2995,6.3605,6.2704,6.165,6.0844,6.1747,6.1298,6.0812,6.2338,6.3746,6.5006,6.6082,6.733,6.8288,6.8288,6.8666,6.9015,6.9015,6.8288,6.7619,6.7619,6.6252,6.4012,6.0524,6.3373,6.5177,6.221,6.5321,6.8751,7.1109,7.0286,6.922,6.855,6.6164,6.3792,6.1811,6.054,5.9327,5.801,5.791,5.8224,5.8858,6.0044,6.0088,5.8948,6.0196,5.5033,0.0,0.0,0.0,0.0,0.0,0.0,0.0,0.0,0.0,0.0,0.0,0.0,0.0,0.0,0.0,0.0,0.0,0.0,0.0,0.0,0.0,0.0,0.0,0.0,0.0,0.0,0.0,3.6645,3.8536,0.0,0.0,0.0,0.0,3.8732,4.1864,4.5057,4.8181,4.9817,5.2084,5.5118,5.5322,5.5997,5.7396,5.7457,5.7518,5.7553,5.9942,6.1048,6.1135,6.3605,6.471,6.471,6.471,6.471,6.4332,5.9328,5.5804,5.3533,5.3271,5.1728,4.9924,5.2417,5.416,5.5501,5.6894,5.8997,6.0575,5.7921,5.5008,5.293,5.492,5.3681,0.0,0.0,5.8885,6.0827,6.3895,6.5702,6.675,6.6924,6.7941,6.8811,6.8811,6.6863,6.5031,6.4741,6.4508,6.2761,5.7629,0.0,5.7454,5.839,5.9004,6.1597,6.7884,6.8872,6.8293,6.6435,6.6143,6.4649,6.1086,6.0717,5.9862,5.8061,5.7999,5.8821,6.0573,6.0594,5.8998,5.5776,5.4739,0.0,0.0,0.0,0.0,0.0,0.0,0.0,0.0,0.0,0.0,0.0,0.0,0.0,0.0,0.0,0.0,0.0,0.0,0.0,0.0,0.0,0.0,0.0,0.0,0.0,0.0,3.3675,3.728,3.6696,3.7157,3.5704,0.0,0.0,0.0,0.0,0.0,0.0,4.2128,4.3596,4.6152,5.0119,5.1158,5.3019,5.5771,5.6656,5.7269,5.7524,5.8193,5.8513,5.8513,5.9183,5.9474,5.9474,5.9474,5.9474,5.9154,5.4934,5.281,5.1821,4.8031,4.7032,4.7839,4.8588,5.0022,5.1893,5.4366,5.6336,5.6942,5.2048,5.0617,4.9908,4.5101,0.0,0.0,0.0,0.0,5.3622,5.7699,6.0533,6.2847,6.5063,6.5904,6.6106,6.6106,6.5583,6.3867,5.9583,5.6334,5.2499,4.693,4.9106,0.0,4.8372,5.4932,6.1131,6.3871,6.7027,6.8796,6.8293,6.6955,6.5155,6.2862,6.1444,5.9862,5.8061,5.9203,6.0164,6.0645,5.9633,5.7734,5.4961,0.0,0.0,0.0,0.0,0.0,0.0,0.0,0.0,0.0,0.0,0.0,0.0,0.0,0.0,0.0,0.0,0.0,0.0,0.0,0.0,0.0,0.0,0.0,0.0,0.0,0.0,0.0,3.0251,3.4164,3.4625,3.3988,3.2025,0.0,0.0,0.0,0.0,0.0,0.0,0.0,0.0,0.0,4.2734,4.3573,4.5721,4.9359,5.1333,5.2505,5.2961,5.4811,5.5409,5.5022,5.6157,5.668,5.6709,5.7291,5.5824,5.2879,4.9696,4.7178,4.49,0.0,0.0,0.0,0.0,4.2076,4.3393,4.6163,4.7625,4.7675,4.3764,0.0,0.0,0.0,0.0,0.0,0.0,0.0,4.8829,5.2131,5.6889,6.1112,6.226,6.3024,6.3402,6.3402,5.9877,5.5724,5.249,4.8981,4.4808,3.9356,4.0765,0.0,0.0,0.0,5.7037,6.1941,6.6355,6.9015,6.9015,6.8008,6.627,6.359,6.2443,6.0743,5.8098,5.913,5.9143,5.7735,5.6578,5.3275,0.0,0.0,0.0,0.0,0.0,0.0,0.0,0.0,0.0,0.0,0.0,0.0,0.0,0.0,0.0,0.0,0.0,0.0,0.0,0.0,0.0,0.0,0.0,0.0,0.0,0.0,0.0,0.0,0.0,3.0085,3.1317,0.0,0.0,0.0,0.0,0.0,0.0,0.0,0.0,0.0,0.0,0.0,0.0,0.0,3.6973,4.1036,4.3546,4.5113,4.5865,4.9669,5.1037,5.0245,5.287,5.4211,5.4386,5.4951,0.0,4.7077,4.4169,0.0,0.0,0.0,0.0,0.0,0.0,0.0,0.0,0.0,0.0,0.0,0.0,0.0,0.0,0.0,0.0,0.0,0.0,0.0,0.0,0.0,0.0,5.8453,5.8161,5.8992,5.9557,5.854,5.1328,4.4955,4.4516,4.2011,3.8474,0.0,0.0,0.0,0.0,0.0,0.0,6.0628,6.5974,6.9031,6.8986,6.9015,6.7463,6.3693,6.3256,6.1625,5.7928,5.7619,5.6257,5.3232,5.2272,0.0,0.0,0.0,0.0,0.0,0.0,0.0,0.0,0.0,0.0,0.0,0.0,0.0,0.0,0.0,0.0,0.0,0.0,0.0,0.0,0.0,0.0,0.0,0.0,0.0,0.0,0.0,0.0,0.0,0.0,0.0,0.0,0.0,0.0,0.0,0.0,0.0,0.0,0.0,0.0,0.0,0.0,0.0,0.0,0.0,0.0,0.0,0.0,0.0,0.0,4.1251,4.208,4.1995,4.4848,4.6777,4.7694,4.4374,4.4268,4.598,3.9525,0.0,0.0,0.0,0.0,0.0,0.0,0.0,0.0,0.0,0.0,0.0,0.0,0.0,0.0,0.0,0.0,0.0,0.0,0.0,0.0,0.0,0.0,4.641,5.0724,5.2183,5.0808,4.4316,0.0,0.0,0.0,0.0,0.0,0.0,0.0,0.0,0.0,0.0,0.0,5.6612,6.4142,6.899,6.8995,6.9015,6.7463,6.3693,6.2572,6.0464,5.6715,5.3516,5.1072,0.0,0.0,0.0,0.0,0.0,0.0,0.0,0.0,0.0,0.0,0.0,0.0,0.0,0.0,0.0,0.0,0.0,0.0,0.0,0.0,0.0,0.0,0.0,0.0,0.0,0.0,0.0,0.0,0.0,0.0,0.0,0.0,0.0,0.0,0.0,0.0,0.0,0.0,0.0,0.0,0.0,0.0,0.0,0.0,0.0,0.0,0.0,0.0,0.0,0.0,0.0,0.0,0.0,0.0,0.0,0.0,0.0,0.0,3.7669,3.5369,0.0,0.0,0.0,0.0,0.0,0.0,0.0,0.0,0.0,0.0,0.0,0.0,0.0,0.0,0.0,0.0,0.0,0.0,0.0,0.0,0.0,0.0,0.0,0.0,0.0,0.0,0.0,0.0,0.0,0.0,0.0,0.0,0.0,0.0,0.0,0.0,0.0,0.0,0.0,0.0,5.5411,6.3665,6.902,6.9017,6.8403,6.6876,6.4106,6.1963,5.8661,5.3669,5.0188,0.0,0.0,0.0,0.0,0.0,0.0,0.0,0.0,0.0,0.0,0.0,0.0,0.0,0.0,0.0,0.0,0.0,0.0,0.0,0.0,0.0,0.0,0.0,0.0,0.0,0.0,0.0,0.0,0.0,0.0,0.0,0.0,0.0,0.0,0.0,0.0,0.0,0.0,0.0,0.0,0.0,0.0,0.0,0.0,0.0,0.0,0.0,0.0,0.0,0.0,0.0,0.0,0.0,0.0,0.0,0.0,0.0,0.0,0.0,3.1837,2.7946,0.0,0.0,0.0,0.0,0.0,0.0,0.0,0.0,0.0,0.0,0.0,0.0,0.0,0.0,0.0,0.0,0.0,0.0,0.0,0.0,0.0,0.0,0.0,0.0,0.0,0.0,0.0,0.0,0.0,0.0,0.0,0.0,0.0,0.0,0.0,0.0,0.0,0.0,0.0,0.0,5.4805,6.3275,6.8636,6.8591,6.7447,6.5744,6.3571,6.103,5.6672,4.9935,4.6086,0.0,0.0,0.0,0.0,0.0,0.0,0.0,0.0,0.0,0.0,0.0,0.0,0.0,0.0,0.0,0.0,0.0,0.0,0.0,0.0,0.0,0.0,0.0,0.0,0.0,0.0,0.0,0.0,0.0,0.0,0.0,0.0,0.0,0.0,0.0,0.0,0.0,0.0,0.0,0.0,0.0,0.0,0.0,0.0,0.0,0.0,0.0,0.0,0.0,0.0,0.0,0.0,0.0,0.0,0.0,0.0,0.0,0.0,0.0,0.0,0.0,0.0,0.0,0.0,0.0,0.0,0.0,0.0,0.0,0.0,0.0,0.0,0.0,0.0,0.0,0.0,0.0,0.0,0.0,0.0,0.0,0.0,0.0,0.0,0.0,0.0,0.0,0.0,0.0,0.0,0.0,0.0,0.0,0.0,0.0,0.0,0.0,0.0,0.0,0.0,0.0,5.348,6.1936,6.738,6.7256,6.6062,6.3937,6.0576,5.9173,5.4737,4.6,0.0,0.0,0.0,0.0,0.0,0.0,0.0,0.0,0.0,0.0,0.0,0.0,0.0,0.0,0.0,0.0,0.0,0.0,0.0,0.0,0.0,0.0,0.0,0.0,0.0,0.0,0.0,0.0,0.0,0.0,0.0,0.0,0.0,0.0,0.0,0.0,0.0,0.0,0.0,0.0,0.0,0.0,0.0,0.0,0.0,0.0,0.0,0.0,0.0,0.0,0.0,0.0,0.0,0.0,0.0,0.0,0.0,0.0,0.0,0.0,0.0,0.0,0.0,0.0,0.0,0.0,0.0,0.0,0.0,0.0,0.0,0.0,0.0,0.0,0.0,0.0,0.0,0.0,0.0,0.0,0.0,0.0,0.0,0.0,0.0,0.0,0.0,0.0,0.0,0.0,0.0,0.0,0.0,0.0,0.0,0.0,0.0,0.0,0.0,0.0,0.0,0.0,5.3094,6.1025,6.6288,6.7089,6.5217,6.3396,6.1962,5.896,5.3403,4.463,0.0,0.0,0.0,0.0,0.0,0.0,0.0,0.0,0.0,0.0,0.0,0.0,0.0,0.0,0.0,0.0,0.0,0.0,0.0,0.0,0.0,0.0,0.0,0.0,0.0,0.0,0.0,0.0,0.0,0.0,0.0,0.0,0.0,0.0,0.0,0.0,0.0,0.0,0.0,0.0,0.0,0.0,0.0,0.0,0.0,0.0,0.0,0.0,0.0,0.0,0.0,0.0,0.0,0.0,0.0,0.0,0.0,0.0,0.0,0.0,0.0,0.0,0.0,0.0,0.0,0.0,0.0,0.0,0.0,0.0,0.0,0.0,0.0,0.0,0.0,0.0,0.0,0.0,0.0,0.0,0.0,0.0,0.0,0.0,0.0,0.0,0.0,0.0,0.0,0.0,0.0,0.0,0.0,0.0,0.0,0.0,0.0,0.0,0.0,0.0,0.0,0.0,5.2377,6.0275,6.5545,6.6584,6.4617,6.2727,6.1435,5.7984,5.1875,4.2352,0.0,0.0,0.0,0.0,0.0,0.0,0.0,0.0,0.0,0.0,0.0,0.0,0.0,0.0,0.0,0.0,0.0,0.0,0.0,0.0,0.0,0.0,0.0,0.0,0.0,0.0,0.0,0.0,0.0,0.0,0.0,0.0,0.0,0.0,0.0,0.0,0.0,0.0,0.0,0.0,0.0,0.0,0.0,0.0,0.0,0.0,0.0,0.0,0.0,0.0,0.0,0.0,0.0,0.0,0.0,0.0,0.0,0.0,0.0,0.0,0.0,0.0,0.0,0.0,0.0,0.0,0.0,0.0,0.0,0.0,0.0,0.0,0.0,0.0,0.0,0.0,0.0,0.0,0.0,0.0,0.0,0.0,0.0,0.0,0.0,0.0,0.0,0.0,0.0,0.0,0.0,0.0,0.0,0.0,0.0,0.0,0.0,0.0,0.0,0.0,0.0,0.0,5.1044,5.9657,6.5175,6.5303,6.4151,6.1653,5.7358,5.5691,4.9902,0.0,0.0,0.0,0.0,0.0,0.0,0.0,0.0,0.0,0.0,0.0,0.0,0.0,0.0,0.0,0.0,0.0,0.0,0.0,0.0,0.0,0.0,0.0,0.0,0.0,0.0,0.0,0.0,0.0,0.0,0.0,0.0,0.0,0.0,0.0,0.0,0.0,0.0,0.0,0.0,0.0,0.0,0.0,0.0,0.0,0.0,0.0,0.0,0.0,0.0,0.0,0.0,0.0,0.0,0.0,0.0,0.0,0.0,0.0,0.0,0.0,0.0,0.0,0.0,0.0,0.0,0.0,0.0,0.0,0.0,0.0,0.0,0.0,0.0,0.0,0.0,0.0,0.0,0.0,0.0,0.0,0.0,0.0,0.0,0.0,0.0,0.0,0.0,0.0,0.0,0.0,0.0,0.0,0.0,0.0,0.0,0.0,0.0,0.0,0.0,0.0,0.0,0.0,4.7834,5.4086,5.9245,6.3291,6.1816,6.0018,5.867,5.5423,4.9719,4.0867,0.0,0.0,0.0,0.0,0.0,0.0,0.0,0.0,0.0,0.0,0.0,0.0,0.0,0.0,0.0,0.0,0.0,0.0,0.0,0.0,0.0,0.0,0.0,0.0,0.0,0.0,0.0,0.0,0.0,0.0,0.0,0.0,0.0,0.0,0.0,0.0,0.0,0.0,0.0,0.0,0.0,0.0,0.0,0.0,0.0,0.0,0.0,0.0,0.0,0.0,0.0,0.0,0.0,0.0,0.0,0.0,0.0,0.0,0.0,0.0,0.0,0.0,0.0,0.0,0.0,0.0,0.0,0.0,0.0,0.0,0.0,0.0,0.0,0.0,0.0,0.0,0.0,0.0,0.0,0.0,0.0,0.0,0.0,0.0,0.0,0.0,0.0,0.0,0.0,0.0,0.0,0.0,0.0,0.0,0.0,0.0,0.0,0.0,0.0,0.0,0.0,0.0,0.0,5.2997,5.8281,6.2522,6.1212,5.9617,5.8649,5.4711,4.9015,4.1339,0.0,0.0,0.0,0.0,0.0,0.0,0.0,0.0,0.0,0.0,0.0,0.0,0.0,0.0,0.0,0.0,0.0,0.0,0.0,0.0,0.0,0.0,0.0,0.0,0.0,0.0,0.0,0.0,0.0,0.0,0.0,0.0,0.0,0.0,0.0,0.0,0.0,0.0,0.0,0.0,0.0,0.0,0.0,0.0,0.0,0.0,0.0,0.0,0.0,0.0,0.0,0.0,0.0,0.0,0.0,0.0,0.0,0.0,0.0,0.0,0.0,0.0,0.0,0.0,0.0,0.0,0.0,0.0,0.0,0.0,0.0,0.0,0.0,0.0,0.0,0.0,0.0,0.0,0.0,0.0,0.0,0.0,0.0,0.0,0.0,0.0,0.0,0.0,0.0,0.0,0.0,0.0,0.0,0.0,0.0,0.0,0.0,0.0,0.0,0.0,0.0,0.0,0.0,5.5183,6.0747,6.2611,6.1781,6.0047,5.754,5.354,4.7871,4.015,3.3693,0.0,0.0,0.0,0.0,0.0,0.0,0.0,0.0,0.0,0.0,0.0,0.0,0.0,0.0,0.0,0.0,0.0,0.0,0.0,0.0,0.0,0.0,0.0,0.0,0.0,0.0,0.0,0.0,0.0,0.0,0.0,0.0,0.0,0.0,0.0,0.0,0.0,0.0,0.0,0.0,0.0,0.0,0.0,0.0,0.0,0.0,0.0,0.0,0.0,0.0,0.0,0.0,0.0,0.0,0.0,0.0,0.0,0.0,0.0,0.0,0.0,0.0,0.0,0.0,0.0,0.0,0.0,0.0,0.0,0.0,0.0,0.0,0.0,0.0,0.0,0.0,0.0,0.0,0.0,0.0,0.0,0.0,0.0,0.0,0.0,0.0,0.0,0.0,0.0,0.0,0.0,0.0,0.0,0.0,0.0,0.0,0.0,0.0,0.0,0.0,0.0,0.0,5.208,5.5839,6.0688,6.0158,5.8851,5.7304,5.268,4.6937,4.0076,3.3838,0.0,0.0,0.0,0.0,0.0,0.0,0.0,0.0,0.0,0.0,0.0,0.0,0.0,0.0,0.0,0.0,0.0,0.0,0.0,0.0,0.0,0.0,0.0,0.0,0.0,0.0,0.0,0.0,0.0,0.0,0.0,0.0,0.0,0.0,0.0,0.0,0.0,0.0,0.0,0.0,0.0,0.0,0.0,0.0,0.0,0.0,0.0,0.0,0.0,0.0,0.0,0.0,0.0,0.0,0.0,0.0,0.0,0.0,0.0,0.0,0.0,0.0,0.0,0.0,0.0,0.0,0.0,0.0,0.0,0.0,0.0,0.0,0.0,0.0,0.0,0.0,0.0,0.0,0.0,0.0,0.0,0.0,0.0,0.0,0.0,0.0,0.0,0.0,0.0,0.0,0.0,0.0,0.0,0.0,0.0,0.0,0.0,0.0,0.0,0.0,0.0,0.0,4.4708,5.0301,5.9159,5.8812,5.7466,5.6368,5.1442,4.5648,3.9176,3.4172,0.0,0.0,0.0,0.0,0.0,0.0,0.0,0.0,0.0,0.0,0.0,0.0,0.0,0.0,0.0,0.0,0.0,0.0,0.0,0.0,0.0,0.0,0.0,0.0,0.0,0.0,0.0,0.0,0.0,0.0,0.0,0.0,0.0,0.0,0.0,0.0,0.0,0.0,0.0,0.0,0.0,0.0,0.0,0.0,0.0,0.0,0.0,0.0,0.0,0.0,0.0,0.0,0.0,0.0,0.0,0.0,0.0,0.0,0.0,0.0,0.0,0.0,0.0,0.0,0.0,0.0,0.0,0.0,0.0,0.0,0.0,0.0,0.0,0.0,0.0,0.0,0.0,0.0,0.0,0.0,0.0,0.0,0.0,0.0,0.0,0.0,0.0,0.0,0.0,0.0,0.0,0.0,0.0,0.0,0.0,0.0,0.0,0.0,0.0,0.0,0.0,0.0,0.0,4.6036,5.6791,5.7269,5.6328,5.5006,5.0393,4.4657,3.7906,0.0,0.0,0.0,0.0,0.0,0.0,0.0,0.0,0.0,0.0,0.0,0.0,0.0,0.0,0.0,0.0,0.0,0.0,0.0,0.0,0.0,0.0,0.0,0.0,0.0,0.0,0.0,0.0,0.0,0.0,0.0,0.0,0.0,0.0,0.0,0.0,0.0,0.0,0.0,0.0,0.0,0.0,0.0,0.0,0.0,0.0,0.0,0.0,0.0,0.0,0.0,0.0,0.0,0.0,0.0,0.0,0.0,0.0,0.0,0.0,0.0,0.0,0.0,0.0,0.0,0.0,0.0,0.0,0.0,0.0,0.0,0.0,0.0,0.0,0.0,0.0,0.0,0.0,0.0,0.0,0.0,0.0,0.0,0.0,0.0,0.0,0.0,0.0,0.0,0.0,0.0,0.0,0.0,0.0,0.0,0.0,0.0,0.0,0.0,0.0,0.0,0.0,0.0,0.0,4.7227,5.0558,5.4728,5.623,5.3619,5.072,4.5421,3.6927,0.0,0.0,0.0,0.0,0.0,0.0,0.0,0.0,0.0,0.0,0.0,0.0,0.0,0.0]}],[{"header":{"parameterUnit":"kt","parameterCategory":2,"dx":1,"dy":1,"la1":29.285339999999998,"la2":30.599998999999997,"lo1":-89.70041500000002,"lo2":-87.6738589999976,"nx":112,"ny":82,"refTime":"2022-11-02T00:00:00:Z","depth":0,"parameterNumber":2,"parameterNumberName":"V-component_of_WINDS"},"data":[5.8428,6.0059,5.9973,5.189,5.0518,4.8802,3.9884,4.0193,4.1996,4.0698,4.3102,4.5915,4.7369,4.4323,0.0,0.0,0.0,0.0,0.0,3.3675,0.0,0.0,0.0,0.0,0.0,0.0,0.0,0.0,0.0,0.0,0.0,7.9049,8.1063,8.2381,8.3586,8.4148,8.4148,8.6756,8.8035,8.8064,9.0711,9.1962,9.1962,9.1962,9.1962,9.1962,9.1962,9.1962,9.1962,9.1962,9.268,9.3753,9.3199,9.3323,9.3661,9.2406,9.1962,9.2143,9.3404,9.4289,9.5392,9.8748,9.9473,9.9146,9.9897,9.8669,9.6491,9.4007,9.2639,9.1962,9.1962,9.1962,9.1962,9.1962,9.1962,9.1962,9.1962,9.1962,9.2364,9.3812,9.9432,10.2332,9.7126,9.6204,9.5256,9.2364,9.1962,9.1962,9.1962,9.1962,9.1962,9.1962,9.1962,9.1962,9.1962,9.1962,9.1962,9.1962,9.1962,9.1962,9.1962,9.1962,9.1962,9.1962,9.1962,9.1962,9.1962,9.1962,9.1962,9.1962,9.1962,9.1962,5.4619,5.6076,5.5847,4.6861,4.5233,4.375,3.5607,3.5756,3.7506,3.7081,4.0444,4.3228,4.2345,0.0,0.0,0.0,0.0,0.0,0.0,0.0,0.0,0.0,0.0,0.0,0.0,0.0,5.7178,6.5787,6.4391,6.7473,7.7391,7.9958,8.1703,8.2984,8.3751,8.4148,8.4148,8.6756,8.8035,8.8064,9.0711,9.1962,9.1962,9.1962,9.1962,9.1962,9.1962,9.1962,9.1962,9.1962,9.268,9.3783,9.2448,9.2722,9.3712,9.2448,9.1962,9.2143,9.3416,9.478,9.6452,9.9798,10.0504,9.9897,9.9178,9.752,9.5541,9.3753,9.2627,9.1962,9.1962,9.1962,9.1962,9.1962,9.1962,9.1962,9.1962,9.1962,9.1962,9.1962,9.6243,9.8219,9.2846,9.1962,9.1962,9.1962,9.1962,9.1962,9.1962,9.1962,9.1962,9.1962,9.1962,9.1962,9.1962,9.1962,9.1962,9.1962,9.1962,9.1962,9.1962,9.1962,9.1962,9.1962,9.1962,9.1962,9.1962,9.1962,9.1962,9.1962,9.1962,9.1962,5.3048,5.1443,4.9406,4.0503,3.8349,3.7372,3.3443,3.4445,3.6599,3.7959,4.0212,4.1938,4.1996,0.0,0.0,0.0,0.0,0.0,0.0,0.0,0.0,0.0,0.0,0.0,0.0,5.4681,5.5582,6.8288,6.3227,6.5699,7.9725,8.1741,8.2984,8.4119,8.4148,8.4148,8.4148,8.6756,8.8035,8.8064,9.0711,9.1962,9.1962,9.1962,9.1962,9.1962,9.1975,9.2004,9.1962,9.1975,9.2004,9.1962,9.1962,9.1962,9.1962,9.1962,9.1962,9.1962,9.1962,9.46,9.8299,10.033,10.2299,10.3503,10.1412,9.9401,9.7588,9.6112,9.3885,9.1962,9.1962,9.1962,9.1962,9.1962,9.1962,9.1962,9.1962,9.1962,9.1962,9.1962,9.1962,9.1962,9.1962,9.1962,9.1962,9.1962,9.1962,9.1962,9.1962,9.1962,9.1962,9.1962,9.1962,9.1962,9.1962,9.1962,9.1962,9.1962,9.1962,9.1962,9.1962,9.1962,9.1962,9.1962,9.1962,9.1962,9.1962,9.1962,9.1962,9.1962,9.1962,9.1962,4.4381,4.5399,4.6002,3.9833,3.9717,3.9844,3.4997,3.3704,3.4184,3.6441,3.6686,0.0,0.0,0.0,0.0,0.0,0.0,4.1423,3.8204,4.3383,0.0,5.0576,5.3019,5.7381,6.474,6.3576,6.5699,7.3896,6.9419,7.0469,7.9958,8.1741,8.2984,8.4119,8.4148,8.4148,8.4148,8.6756,8.8035,8.8064,9.0711,9.1962,9.1962,9.1962,9.1962,9.2017,9.3445,9.3241,9.2059,9.3457,9.3199,9.1962,9.1962,9.1962,9.1962,9.1962,9.1962,9.1962,9.1962,9.46,9.8522,10.2026,10.2501,10.1343,9.9364,9.7331,9.5344,9.3538,9.2502,9.1962,9.1962,9.1962,9.1962,9.1962,9.1962,9.1962,9.1962,9.1962,9.1962,9.1962,9.1962,9.1962,9.1962,9.1962,9.1962,9.1962,9.1962,9.1962,9.1962,9.1962,9.1962,9.1962,9.1962,9.1962,9.1962,9.1962,9.1962,9.1962,9.1962,9.1962,9.1962,9.1962,9.1962,9.1962,9.1962,9.1962,9.1962,9.1962,9.1962,9.1962,9.1962,9.1962,4.1332,4.2016,4.2662,3.8505,3.9437,3.9855,3.4173,3.3502,3.4358,3.5349,0.0,0.0,0.0,0.0,0.0,0.0,4.1986,4.4052,4.1783,4.7864,5.348,5.6098,6.0667,6.471,6.7621,6.7388,6.9948,7.6861,7.2708,7.3207,8.086,8.2489,8.3469,8.4148,8.4148,8.4448,8.5001,8.7046,8.8326,8.8908,9.0973,9.1962,9.1962,9.1962,9.1962,9.2059,9.4007,9.3783,9.2101,9.4077,9.3701,9.1962,9.1962,9.1962,9.1962,9.1962,9.1962,9.2059,9.2858,9.5256,9.8516,10.1684,10.2468,10.1684,9.8817,9.7134,9.558,9.2751,9.1962,9.1962,9.1962,9.1962,9.1962,9.1962,9.1962,9.1962,9.1962,9.1962,9.1962,9.1962,9.1962,9.1962,9.1962,9.1962,9.1962,9.1962,9.1962,9.1962,9.1962,9.1962,9.1962,9.1962,9.1962,9.1962,9.1962,9.1962,9.1962,9.1962,9.1962,9.1962,9.1962,9.1962,9.1962,9.1962,9.1962,9.1962,9.1962,9.1962,9.1962,9.1962,9.1962,9.1962,4.1073,3.9794,3.9228,3.6929,3.7878,3.8111,3.3317,0.0,3.6745,3.6611,0.0,3.8274,3.9571,0.0,0.0,4.0026,4.4314,4.7464,4.7028,5.2083,5.6735,5.9183,6.8464,7.3377,7.0146,6.8843,7.1025,7.8002,7.4482,7.5069,8.2061,8.3527,8.4148,8.4148,8.4148,8.4739,8.5873,8.7337,8.8646,8.9797,9.1222,9.1962,9.1962,9.1962,9.1962,9.2059,9.4007,9.3783,9.2101,9.4077,9.3701,9.1962,9.1962,9.1962,9.1962,9.1962,9.1962,9.2226,9.3915,9.6018,9.8262,10.0009,10.2129,10.3337,9.9753,9.8368,9.7126,9.3094,9.1962,9.1962,9.1962,9.1962,9.1962,9.1962,9.1962,9.1962,9.1962,9.1962,9.1962,9.1962,9.1962,9.1962,9.1962,9.1962,9.1962,9.1962,9.1962,9.1962,9.1962,9.1962,9.1962,9.1962,9.1962,9.1962,9.1962,9.1962,9.1962,9.1962,9.1962,9.1962,9.1962,9.1962,9.1962,9.1962,9.1962,9.1962,9.1962,9.1962,9.1962,9.1962,9.1962,9.1962,3.6058,3.4816,3.493,3.6067,3.5159,3.5288,0.0,0.0,0.0,4.8504,4.8475,4.758,4.8882,4.9115,4.9464,5.0535,5.4968,5.7213,5.4153,6.2558,6.9596,7.117,7.3324,7.4773,7.5088,7.4884,7.582,7.8351,7.8619,7.9754,8.2294,8.3527,8.4148,8.4148,8.4148,8.4264,8.4565,8.6901,8.8181,8.8472,9.0827,9.1962,9.1962,9.1962,9.1962,9.2059,9.4007,9.3783,9.2101,9.4077,9.3701,9.1962,9.1962,9.1962,9.1962,9.1962,9.1962,9.2004,9.2364,9.4889,9.8039,9.8411,10.0994,10.3866,10.3071,10.0571,9.7126,9.3094,9.1962,9.1962,9.1962,9.1962,9.1962,9.1962,9.1962,9.1962,9.1962,9.1962,9.1962,9.1962,9.1962,9.1962,9.1962,9.1962,9.1962,9.1962,9.1962,9.1962,9.1962,9.1962,9.1962,9.1962,9.1962,9.1962,9.1962,9.1962,9.1962,9.1962,9.1962,9.1962,9.1962,9.1962,9.1962,9.1962,9.1962,9.1962,9.1962,9.1962,9.1962,9.1962,9.1962,9.1962,3.2578,3.1692,3.1811,3.3182,3.3489,0.0,0.0,3.8378,4.1095,4.7537,4.83,4.8802,5.2083,5.3218,5.3654,5.365,5.9037,6.3402,6.4071,6.9655,7.3901,7.4575,7.521,7.5844,7.6541,7.66,7.6861,7.7501,7.9376,8.1296,8.3207,8.3867,8.4148,8.4148,8.4148,8.4468,8.5146,8.7105,8.8384,8.9053,9.1031,9.1962,9.1962,9.1962,9.1962,9.2059,9.4007,9.3783,9.2101,9.4077,9.3701,9.1962,9.1962,9.1962,9.1962,9.1962,9.1962,9.2101,9.3064,9.47,9.6598,9.7626,9.9323,10.0991,10.0991,9.8848,9.5815,9.2763,9.1962,9.1962,9.1962,9.1962,9.1962,9.1962,9.1962,9.1962,9.1962,9.1962,9.1962,9.1962,9.1962,9.1962,9.1962,9.1962,9.1962,9.1962,9.1962,9.1962,9.1962,9.1962,9.1962,9.1962,9.1962,9.1962,9.1962,9.1962,9.1962,9.1962,9.1962,9.1962,9.1962,9.1962,9.1962,9.1962,9.1962,9.1962,9.1962,9.1962,9.1962,9.1962,9.1962,9.1962,2.9238,2.8915,2.9315,3.1171,3.2553,0.0,3.5249,3.8338,4.2471,4.7864,4.9726,5.1652,5.5866,5.7495,5.7934,5.7146,6.2209,6.7851,7.2447,7.4192,7.5035,7.5035,7.5966,7.66,7.66,7.66,7.6687,7.6948,7.9136,8.155,8.4032,8.4148,8.4148,8.4148,8.4148,8.4797,8.6076,8.7395,8.8733,9.003,9.1351,9.1962,9.1962,9.1962,9.1962,9.2017,9.362,9.3404,9.2059,9.3661,9.3364,9.1962,9.1962,9.1962,9.1962,9.1962,9.1962,9.2184,9.3783,9.454,9.5146,9.6828,9.7626,9.7964,9.7964,9.6521,9.454,9.2941,9.2239,9.1962,9.1962,9.1962,9.1962,9.1962,9.1962,9.1962,9.1962,9.1962,9.1962,9.1962,9.1962,9.1962,9.1962,9.1962,9.1962,9.1962,9.1962,9.1962,9.1962,9.1962,9.1962,9.1962,9.1962,9.1962,9.1962,9.1962,9.1962,9.1962,9.1962,9.1962,9.1962,9.1962,9.1962,9.1962,9.1962,9.1962,9.1962,9.1962,9.1962,9.1962,9.1962,9.1962,2.4797,2.5254,2.7243,3.3342,3.2526,0.0,4.9386,5.1478,5.3252,6.4042,6.6368,6.663,6.7212,6.7415,6.7851,6.8872,6.9745,7.1287,7.4051,7.5559,7.6367,7.6367,7.6483,7.66,7.66,7.66,7.7065,7.8234,7.9667,8.155,8.4032,8.4148,8.4148,8.4148,8.4148,8.4797,8.6076,8.7395,8.8733,9.003,9.1351,9.1962,9.1962,9.1962,9.1962,9.1962,9.2184,9.2143,9.1962,9.2184,9.2143,9.1962,9.1962,9.1962,9.1962,9.1962,9.1962,9.2004,9.2226,9.3404,9.4909,9.5146,9.6444,9.7964,9.7964,9.6521,9.4829,9.458,9.3282,9.1962,9.1962,9.1962,9.1962,9.1962,9.1962,9.1962,9.1962,9.1962,9.1962,9.1962,9.1962,9.1962,9.1962,9.1962,9.1962,9.1962,9.1962,9.1962,9.1962,9.1962,9.1962,9.1962,9.1962,9.1962,9.1962,9.1962,9.1962,9.1962,9.1962,9.1962,9.1962,9.1962,9.1962,9.1962,9.1962,9.1962,9.1962,9.1962,9.1962,9.1962,9.1962,9.1962,2.356,2.4839,2.6797,3.0847,0.0,0.0,4.5793,4.9813,5.4124,6.2704,6.4477,6.5408,6.8462,6.9015,6.9451,7.0734,7.1549,7.2854,7.5442,7.6222,7.66,7.66,7.66,7.66,7.66,7.66,7.7123,7.8438,7.9754,8.1267,8.3071,8.3809,8.4148,8.4148,8.4148,8.4797,8.6076,8.7395,8.8733,9.003,9.1351,9.1962,9.1962,9.1962,9.1962,9.1962,9.1962,9.1962,9.1962,9.1962,9.1962,9.1962,9.1962,9.1962,9.1962,9.1962,9.1962,9.1962,9.1962,9.246,9.3188,9.3188,9.3772,9.444,9.444,9.3864,9.3188,9.3188,9.2585,9.1962,9.1962,9.1962,9.1962,9.1962,9.1962,9.1962,9.1962,9.1962,9.1962,9.1962,9.1962,9.1962,9.1962,9.1962,9.1962,9.1962,9.1962,9.1962,9.1962,9.1962,9.1962,9.1962,9.1962,9.1962,9.1962,9.1962,9.1962,9.1962,9.1962,9.1962,9.1962,9.1962,9.1962,9.1962,9.1962,9.1962,9.1962,9.1962,9.1962,9.1962,9.1962,9.1962,2.2913,0.0,0.0,0.0,0.0,0.0,4.7093,5.1536,5.6073,6.2123,6.3373,6.4535,6.8317,6.9015,6.9538,7.1167,7.2156,7.3605,7.6222,7.66,7.66,7.66,7.66,7.66,7.66,7.66,7.7268,7.8932,7.9958,8.118,8.2809,8.3693,8.4148,8.4148,8.4148,8.4972,8.6639,8.7599,8.8908,9.0553,9.1496,9.1962,9.1962,9.1962,9.1962,9.1962,9.1962,9.2239,9.2722,9.2722,9.2722,9.2722,9.2722,9.2419,9.1962,9.1962,9.1962,9.1962,9.1962,9.1962,9.1962,9.1962,9.1962,9.1962,9.1962,9.1962,9.1962,9.1962,9.1962,9.1962,9.1962,9.1962,9.1962,9.1962,9.1962,9.1962,9.1962,9.1962,9.1962,9.1962,9.1962,9.1962,9.1962,9.1962,9.1962,9.1962,9.1962,9.1962,9.1962,9.1962,9.1962,9.1962,9.1962,9.1962,9.1962,9.1962,9.1962,9.1962,9.1962,9.1962,9.1962,9.1962,9.1962,9.1962,9.1962,9.1962,9.1962,9.1962,9.1962,9.1962,9.1962,9.1962,0.0,0.0,0.0,4.0446,4.212,4.5222,6.0905,6.2646,6.2443,6.7706,6.8782,6.884,6.8986,6.9015,6.9797,7.2272,7.2708,7.3605,7.6222,7.66,7.66,7.66,7.66,7.66,7.66,7.66,7.7682,8.0219,8.0452,8.1521,8.4012,8.4148,8.4148,8.4148,8.4148,8.5408,8.7977,8.8035,8.9344,9.1903,9.1932,9.1962,9.1962,9.1962,9.1962,9.1962,9.1962,9.3023,9.4789,9.4789,9.4789,9.4789,9.4789,9.362,9.1962,9.1962,9.1962,9.1962,9.1962,9.1962,9.1962,9.1962,9.1962,9.1962,9.1962,9.1962,9.1962,9.1962,9.1962,9.1962,9.1962,9.1962,9.1962,9.1962,9.1962,9.1962,9.1962,9.1962,9.1962,9.1962,9.1962,9.1962,9.1962,9.1962,9.1962,9.1962,9.1962,9.1962,9.1962,9.1962,9.1962,9.1962,9.1962,9.1962,9.1962,9.1962,9.1962,9.1962,9.1962,9.1962,9.1962,9.1962,9.1962,9.1962,9.1962,9.1962,9.1962,9.1962,9.1962,9.1962,9.1962,9.1962,2.5926,3.0925,3.6831,4.3547,4.9257,5.486,6.1107,6.4535,6.689,6.8634,6.9015,6.9015,6.9015,6.9015,6.9829,7.2268,7.2675,7.3605,7.6222,7.66,7.66,7.66,7.66,7.66,7.66,7.66,7.7682,8.0278,8.0481,8.155,8.4032,8.4148,8.4148,8.4148,8.4148,8.5408,8.8035,8.8035,8.9344,9.1962,9.1962,9.1962,9.1962,9.1962,9.1962,9.1962,9.1962,9.2323,9.2899,9.2899,9.2899,9.2899,9.2899,9.2544,9.1962,9.1962,9.1962,9.1962,9.1962,9.1962,9.1962,9.1962,9.1962,9.1962,9.1962,9.1962,9.1962,9.1962,9.1962,9.1962,9.1962,9.1962,9.1962,9.1962,9.1962,9.1962,9.1962,9.1962,9.1962,9.1962,9.1962,9.1962,9.1962,9.1962,9.1962,9.1962,9.1962,9.1962,9.1962,9.1962,9.1962,9.1962,9.1962,9.1962,9.1962,9.1962,9.1962,9.1962,9.1962,9.1962,9.1962,9.1962,9.1962,9.1962,9.1962,9.1962,9.1962,9.1962,9.1962,9.1962,9.1962,9.1962,2.8718,3.4175,4.0199,4.7555,5.425,5.9883,6.3256,6.6599,6.9015,6.9015,6.9015,6.9015,6.9015,6.9015,6.9684,7.1749,7.2447,7.3431,7.5617,7.628,7.66,7.66,7.66,7.66,7.66,7.66,7.7682,8.0278,8.0481,8.155,8.4032,8.4148,8.4148,8.4148,8.4148,8.4972,8.6668,8.7599,8.9344,9.1962,9.1962,9.1962,9.1962,9.1962,9.1962,9.1962,9.1962,9.2323,9.2982,9.2982,9.2982,9.2982,9.2982,9.2585,9.1962,9.1962,9.1962,9.1962,9.1962,9.1962,9.1962,9.1962,9.1962,9.1962,9.1962,9.1962,9.1962,9.1962,9.1962,9.1962,9.1962,9.1962,9.1962,9.1962,9.1962,9.1962,9.1962,9.1962,9.1962,9.1962,9.1962,9.1962,9.1962,9.1962,9.1962,9.1962,9.1962,9.1962,9.1962,9.1962,9.1962,9.1962,9.1962,9.1962,9.1962,9.1962,9.1962,9.1962,9.1962,9.1962,9.1962,9.1962,9.1962,9.1962,9.1962,9.1962,9.1962,9.1962,9.1962,9.1962,9.1962,9.1962,3.0607,3.5027,4.0599,5.2522,5.7133,6.0552,6.7321,6.8828,6.8888,6.8983,6.9015,6.9015,6.9015,6.9015,6.9451,7.0734,7.1923,7.3174,7.4487,7.5791,7.66,7.66,7.66,7.66,7.66,7.66,7.7682,8.0278,8.0481,8.155,8.4032,8.4148,8.4148,8.4148,8.4148,8.4148,8.4148,8.6697,8.9257,9.1845,9.1932,9.1962,9.1962,9.1962,9.1962,9.1962,9.1962,9.2982,9.471,9.471,9.471,9.471,9.471,9.3579,9.1962,9.1962,9.1962,9.1962,9.1962,9.1962,9.1962,9.1962,9.1962,9.1962,9.1962,9.1962,9.1962,9.1962,9.1962,9.1962,9.1962,9.1962,9.1962,9.1962,9.1962,9.1962,9.1962,9.1962,9.1962,9.1962,9.1962,9.1962,9.1962,9.1962,9.1962,9.1962,9.1962,9.1962,9.1962,9.1962,9.1962,9.1962,9.1962,9.1962,9.1962,9.1962,9.1962,9.1962,9.1962,9.1962,9.1962,9.1962,9.1962,9.1962,9.1962,9.1962,9.1962,9.1962,9.1962,9.1962,9.1962,9.1962,3.4263,4.2642,4.9992,5.5493,5.9521,6.2971,6.6121,6.6824,6.7244,6.8732,6.9015,6.9015,6.9015,6.9015,6.9451,7.0734,7.1923,7.3174,7.4487,7.5791,7.66,7.66,7.66,7.66,7.66,7.66,7.7682,8.0278,8.0481,8.155,8.4032,8.4148,8.4148,8.4148,8.4148,8.4148,8.4148,8.5786,8.7908,9.0495,9.1454,9.1962,9.1962,9.1962,9.1962,9.1962,9.1962,9.2226,9.268,9.268,9.268,9.268,9.268,9.2406,9.1962,9.1962,9.1962,9.1962,9.1962,9.1962,9.1962,9.1962,9.1962,9.1962,9.1962,9.1962,9.1962,9.1962,9.1962,9.1962,9.1962,9.1962,9.1962,9.1962,9.1962,9.1962,9.1962,9.1962,9.1962,9.1962,9.1962,9.1962,9.1962,9.1962,9.1962,9.1962,9.1962,9.1962,9.1962,9.1962,9.1962,9.1962,9.1962,9.1962,9.1962,9.1962,9.1962,9.1962,9.1962,9.1962,9.1962,9.1962,9.1962,9.1962,9.1962,9.1962,9.1962,9.1962,9.1962,9.1962,9.1962,9.1962,3.3238,4.269,5.1762,5.6233,5.9787,6.2862,6.5484,6.611,6.6632,6.8608,6.9015,6.9015,6.9015,6.9015,6.9247,6.9975,7.1109,7.2359,7.361,7.4919,7.5966,7.6512,7.66,7.66,7.66,7.66,7.7682,8.0278,8.0481,8.155,8.4032,8.4148,8.4148,8.4148,8.4148,8.4148,8.4148,8.5466,8.7123,8.917,9.106,9.1962,9.1962,9.1962,9.1962,9.1962,9.1962,9.1962,9.1962,9.1962,9.1962,9.1962,9.1962,9.1962,9.1962,9.1962,9.1962,9.1962,9.1962,9.1962,9.1962,9.1962,9.1962,9.1962,9.1962,9.1962,9.1962,9.1962,9.1962,9.1962,9.1962,9.1962,9.1962,9.1962,9.1962,9.1962,9.1962,9.1962,9.1962,9.1962,9.1962,9.1962,9.1962,9.1962,9.1962,9.1962,9.1962,9.1962,9.1962,9.1962,9.1962,9.1962,9.1962,9.1962,9.1962,9.1962,9.1962,9.1962,9.1962,9.1962,9.1962,9.1962,9.1962,9.1962,9.1962,9.1962,9.1962,9.1962,9.1962,9.1962,9.1962,9.1962,3.1648,3.9826,4.9261,5.5457,5.8523,6.0977,6.4526,6.5551,6.6303,6.8229,6.8417,6.8321,6.8576,6.8637,6.8701,6.8983,7.0091,7.1341,7.2563,7.3814,7.5122,7.6425,7.66,7.66,7.66,7.66,7.7588,8.0045,8.0365,8.1462,8.3809,8.4061,8.4148,8.4148,8.4148,8.4148,8.4148,8.5292,8.6523,8.7832,9.0275,9.1613,9.1962,9.1962,9.1962,9.1962,9.1962,9.1962,9.1962,9.1962,9.1962,9.1962,9.1962,9.1962,9.1962,9.1962,9.1962,9.1962,9.1962,9.1962,9.1962,9.1962,9.1962,9.1962,9.1962,9.1962,9.1962,9.1962,9.1962,9.1962,9.1962,9.1962,9.1962,9.1962,9.1962,9.1962,9.1962,9.1962,9.1962,9.1962,9.1962,9.1962,9.1962,9.1962,9.1962,9.1962,9.1962,9.1962,9.1962,9.1962,9.1962,9.1962,9.1962,9.1962,9.1962,9.1962,9.1962,9.1962,9.1962,9.1962,9.1962,9.1962,9.1962,9.1962,9.1962,9.1962,9.1962,9.1962,9.1962,9.1962,9.1962,9.1962,3.8924,4.3264,4.7032,5.3491,5.6011,5.7763,6.088,6.2758,6.4377,6.6209,6.5384,6.4812,6.6336,6.6599,6.7146,6.8732,7.0091,7.1341,7.2563,7.3814,7.5122,7.6425,7.66,7.66,7.66,7.66,7.721,7.8729,7.987,8.1121,8.2635,8.3635,8.4148,8.4148,8.4148,8.4148,8.4148,8.4381,8.5175,8.6454,8.8006,8.9868,9.1962,9.1962,9.1962,9.1962,9.1962,9.1962,9.1962,9.1962,9.1962,9.1962,9.1962,9.1962,9.1962,9.1962,9.1962,9.1962,9.1962,9.1962,9.1962,9.1962,9.1962,9.1962,9.1962,9.1962,9.1962,9.1962,9.1962,9.1962,9.1962,9.1962,9.1962,9.1962,9.1962,9.1962,9.1962,9.1962,9.1962,9.1962,9.1962,9.1962,9.1962,9.1962,9.1962,9.1962,9.1962,9.1962,9.1962,9.1962,9.1962,9.1962,9.1962,9.1962,9.1962,9.1962,9.1962,9.1962,9.1962,9.1962,9.1962,9.1962,9.1962,9.1962,9.1962,9.1962,9.1962,9.1962,9.1962,9.1962,9.1962,9.1962,3.6216,4.1091,4.5941,5.0215,5.3751,5.6823,5.9268,6.0921,6.2197,6.3106,6.3287,6.3659,6.4513,6.545,6.6402,6.7309,6.8876,7.0585,7.2476,7.3261,7.4366,7.6367,7.66,7.66,7.66,7.66,7.7123,7.8438,7.9754,8.1034,8.2352,8.3527,8.4148,8.4148,8.4148,8.4148,8.4148,8.4148,8.4826,8.6135,8.7425,8.9082,9.0931,9.0931,9.128,9.1962,9.1962,9.1962,9.1962,9.1962,9.1962,9.1962,9.1962,9.1962,9.1962,9.1962,9.1962,9.1962,9.1962,9.1962,9.1962,9.1962,9.1962,9.1962,9.1962,9.1962,9.1962,9.1962,9.1962,9.1962,9.1962,9.1962,9.1962,9.1962,9.1962,9.1962,9.1962,9.1962,9.1962,9.1962,9.1962,9.1962,9.1962,9.1962,9.1962,9.1962,9.1962,9.1962,9.1962,9.1962,9.1962,9.1962,9.1962,9.1962,9.1962,9.1962,9.1962,9.1962,9.1962,9.1962,9.1962,9.1962,9.1962,9.1962,9.1962,9.1962,9.1962,9.1962,9.1962,9.1962,9.1962,9.1962,3.3653,3.9094,4.521,4.7874,5.1532,5.5166,5.7847,5.909,5.9776,6.0004,6.1012,6.2012,6.2669,6.3751,6.4912,6.5922,6.7402,6.938,7.2293,7.2675,7.3663,7.628,7.66,7.66,7.66,7.66,7.7007,7.806,7.9347,8.0627,8.1945,8.3149,8.3925,8.4148,8.4148,8.4148,8.4148,8.4148,8.4681,8.5698,8.7017,8.8326,8.9594,8.9855,9.0699,9.1962,9.1962,9.1962,9.1962,9.1962,9.1962,9.1962,9.1962,9.1962,9.1962,9.1962,9.1962,9.1962,9.1962,9.1962,9.1962,9.1962,9.1962,9.1962,9.1962,9.1962,9.1962,9.1962,9.1962,9.1962,9.1962,9.1962,9.1962,9.1962,9.1962,9.1962,9.1962,9.1962,9.1962,9.1962,9.1962,9.1962,9.1962,9.1962,9.1962,9.1962,9.1962,9.1962,9.1962,9.1962,9.1962,9.1962,9.1962,9.1962,9.1962,9.1962,9.1962,9.1962,9.1962,9.1962,9.1962,9.1962,9.1962,9.1962,9.1962,9.1962,9.1962,9.1962,9.1962,9.1962,9.1962,9.1962,3.8681,4.1438,4.4459,4.8588,4.9264,5.0247,5.5283,5.6494,5.6923,5.7928,5.7463,5.7652,6.0394,6.0249,6.1107,6.5384,6.6242,6.7837,7.2098,7.2675,7.3663,7.628,7.66,7.66,7.66,7.66,7.6658,7.6774,7.7972,7.9252,8.0569,8.1849,8.3071,8.4119,8.4148,8.4148,8.4148,8.4148,8.4206,8.4352,8.5669,8.6988,8.8268,8.9449,9.0699,9.1962,9.1962,9.1962,9.1962,9.1962,9.1962,9.1962,9.1962,9.1962,9.1962,9.1962,9.1962,9.1962,9.1962,9.1962,9.1962,9.1962,9.1962,9.1962,9.1962,9.1962,9.1962,9.1962,9.1962,9.1962,9.1962,9.1962,9.1962,9.1962,9.1962,9.1962,9.1962,9.1962,9.1962,9.1962,9.1962,9.1962,9.1962,9.1962,9.1962,9.1962,9.1962,9.1962,9.1962,9.1962,9.1962,9.1962,9.1962,9.1962,9.1962,9.1962,9.1962,9.1962,9.1962,9.1962,9.1962,9.1962,9.1962,9.1962,9.1962,9.1962,9.1962,9.1962,9.1962,9.1962,9.1962,9.1962,3.2346,3.6385,4.0681,4.1752,4.5605,4.9711,5.18,5.2288,5.32,5.6239,5.7043,5.7376,5.7864,5.9088,6.0821,6.314,6.4979,6.7418,7.1112,7.2272,7.3406,7.521,7.6105,7.66,7.66,7.66,7.66,7.66,7.7762,7.9078,8.0394,8.1741,8.2984,8.4119,8.4148,8.4148,8.4148,8.4148,8.4148,8.4177,8.5495,8.6407,8.693,8.8239,8.9548,9.0815,9.1613,9.1962,9.1962,9.1962,9.1962,9.1962,9.1962,9.1962,9.1962,9.1962,9.1962,9.1962,9.1962,9.1962,9.1962,9.1962,9.1962,9.1962,9.1962,9.1962,9.1962,9.1962,9.1962,9.1962,9.1962,9.1962,9.1962,9.1962,9.1962,9.1962,9.1962,9.1962,9.1962,9.1962,9.1962,9.1962,9.1962,9.1962,9.1962,9.1962,9.1962,9.1962,9.1962,9.1962,9.1962,9.1962,9.1962,9.1962,9.1962,9.1962,9.1962,9.1962,9.1962,9.1962,9.1962,9.1962,9.1962,9.1962,9.1962,9.1962,9.1962,9.1962,9.1962,9.1962,9.1962,9.1962,2.8725,3.2621,3.7143,3.7362,4.195,4.6831,4.8466,4.8832,5.0052,5.4361,5.5909,5.6324,5.58,5.7462,5.949,6.1489,6.3754,6.6624,7.041,7.1952,7.3203,7.4482,7.5791,7.66,7.66,7.66,7.66,7.66,7.7414,7.8525,7.9841,8.1121,8.2402,8.3576,8.4012,8.4148,8.4148,8.4148,8.4148,8.4216,8.5117,8.5728,8.6135,8.7076,8.8413,9.0059,9.096,9.1613,9.1962,9.1962,9.1962,9.1962,9.1962,9.1962,9.1962,9.1962,9.1962,9.1962,9.1962,9.1962,9.1962,9.1962,9.1962,9.1962,9.1962,9.1962,9.1962,9.1962,9.1962,9.1962,9.1962,9.1962,9.1962,9.1962,9.1962,9.1962,9.1962,9.1962,9.1962,9.1962,9.1962,9.1962,9.1962,9.1962,9.1962,9.1962,9.1962,9.1962,9.1962,9.1962,9.1962,9.1962,9.1962,9.1962,9.1962,9.1962,9.1962,9.1962,9.1962,9.1962,9.1962,9.1962,9.1962,9.1962,9.1962,9.1962,9.1962,9.1962,9.1962,9.1962,9.1962,9.1962,3.1086,3.2136,3.4603,3.7704,3.8534,4.0022,4.544,4.6685,4.788,5.2209,5.3113,5.343,5.4445,5.4665,5.6278,6.102,6.2707,6.5155,7.0218,7.1952,7.3203,7.4482,7.5791,7.66,7.66,7.66,7.66,7.66,7.66,7.7152,7.8467,7.9812,8.1092,8.241,8.3586,8.4148,8.4148,8.4148,8.4148,8.4148,8.4177,8.4885,8.6105,8.6135,8.7559,9.0001,9.003,9.0757,9.1962,9.1962,9.1962,9.1962,9.1962,9.1962,9.1962,9.1962,9.1962,9.1962,9.1962,9.1962,9.1962,9.1962,9.1962,9.1962,9.1962,9.1962,9.1962,9.1962,9.1962,9.1962,9.1962,9.1962,9.1962,9.1962,9.1962,9.1962,9.1962,9.1962,9.1962,9.1962,9.1962,9.1962,9.1962,9.1962,9.1962,9.1962,9.1962,9.1962,9.1962,9.1962,9.1962,9.1962,9.1962,9.1962,9.1962,9.1962,9.1962,9.1962,9.1962,9.1962,9.1962,9.1962,9.1962,9.1962,9.1962,9.1962,9.1962,9.1962,9.1962,9.1962,9.1962,9.1962,2.8578,3.1033,3.4041,3.5042,3.7533,4.0512,4.3683,4.5562,4.7246,4.932,5.0296,5.1126,5.2283,5.4895,5.7956,6.1253,6.2707,6.482,6.903,7.0702,7.1952,7.3174,7.4453,7.5617,7.6512,7.66,7.66,7.66,7.66,7.7152,7.8467,7.9783,8.1063,8.2381,8.3586,8.4148,8.4148,8.4148,8.4148,8.4148,8.4148,8.4381,8.4826,8.5698,8.6542,8.7443,8.9216,9.0233,9.0669,9.1583,9.1962,9.1962,9.1962,9.1962,9.1962,9.1962,9.1962,9.1962,9.1962,9.1962,9.1962,9.1962,9.1962,9.1962,9.1962,9.1962,9.1962,9.1962,9.1962,9.1962,9.1962,9.1962,9.1962,9.1962,9.1962,9.1962,9.1962,9.1962,9.1962,9.1962,9.1962,9.1962,9.1962,9.1962,9.1962,9.1962,9.1962,9.1962,9.1962,9.1962,9.1962,9.1962,9.1962,9.1962,9.1962,9.1962,9.1962,9.1962,9.1962,9.1962,9.1962,9.1962,9.1962,9.1962,9.1962,9.1962,9.1962,9.1962,9.1962,9.1962,9.1962,9.1962,2.8853,3.1111,3.3433,3.4702,3.641,3.8584,4.1487,4.2609,4.3508,4.5386,4.6294,4.7374,4.9303,5.3528,5.7656,6.0707,6.2411,6.471,6.8481,7.012,7.1371,7.2592,7.3843,7.5151,7.6454,7.66,7.66,7.66,7.66,7.6948,7.7769,7.9521,8.0831,8.1683,8.3286,8.4148,8.4148,8.4148,8.4148,8.4148,8.4148,8.4148,8.4177,8.503,8.564,8.6193,8.7821,8.91,9.0059,9.0873,9.1483,9.1962,9.1962,9.1962,9.1962,9.1962,9.1962,9.1962,9.1962,9.1962,9.1962,9.1962,9.1962,9.1962,9.1962,9.1962,9.1962,9.1962,9.1962,9.1962,9.1962,9.1962,9.1962,9.1962,9.1962,9.1962,9.1962,9.1962,9.1962,9.1962,9.1962,9.1962,9.1962,9.1962,9.1962,9.1962,9.1962,9.1962,9.1962,9.1962,9.1962,9.1962,9.1962,9.1962,9.1962,9.1962,9.1962,9.1962,9.1962,9.1962,9.1962,9.1962,9.1962,9.1962,9.1962,9.1962,9.1962,9.1962,9.1962,9.1962,9.1962,9.1962,3.0846,3.1781,3.2729,3.5803,3.5411,3.5334,3.9317,3.8631,3.7996,4.0852,4.1487,4.2515,4.5611,5.0492,5.5409,5.96,6.1765,6.4288,6.8232,6.9843,7.1095,7.2413,7.3697,7.5006,7.6309,7.6541,7.66,7.66,7.66,7.66,7.66,7.9049,8.0481,8.0481,8.2879,8.4148,8.4148,8.4148,8.4148,8.4148,8.4148,8.4148,8.4148,8.4148,8.4826,8.596,8.6047,8.7472,8.9739,8.9943,9.0699,9.1816,9.1903,9.1962,9.1962,9.1962,9.1962,9.1962,9.1962,9.1962,9.1962,9.1962,9.1962,9.1962,9.1962,9.1962,9.1962,9.1962,9.1962,9.1962,9.1962,9.1962,9.1962,9.1962,9.1962,9.1962,9.1962,9.1962,9.1962,9.1962,9.1962,9.1962,9.1962,9.1962,9.1962,9.1962,9.1962,9.1962,9.1962,9.1962,9.1962,9.1962,9.1962,9.1962,9.1962,9.1962,9.1962,9.1962,9.1962,9.1962,9.1962,9.1962,9.1962,9.1962,9.1962,9.1962,9.1962,9.1962,9.1962,9.1962,9.1962,9.1962,2.6962,2.8978,3.1261,3.2805,3.5996,3.8999,4.0001,3.983,3.9218,3.8265,3.8704,3.9754,4.1443,4.5445,5.1159,5.9258,5.9519,6.0609,6.599,6.7046,6.8252,7.1037,7.2418,7.3668,7.4977,7.5989,7.66,7.66,7.66,7.66,7.66,7.9049,8.0481,8.0481,8.2879,8.4148,8.4148,8.4148,8.4148,8.4148,8.4148,8.4148,8.4148,8.4148,8.4323,8.4681,8.5669,8.6454,8.7181,8.9187,9.0175,9.0553,9.1583,9.1962,9.1962,9.1962,9.1962,9.1962,9.1962,9.1962,9.1962,9.1962,9.1962,9.1962,9.1962,9.1962,9.1962,9.1962,9.1962,9.1962,9.1962,9.1962,9.1962,9.1962,9.1962,9.1962,9.1962,9.1962,9.1962,9.1962,9.1962,9.1962,9.1962,9.1962,9.1962,9.1962,9.1962,9.1962,9.1962,9.1962,9.1962,9.1962,9.1962,9.1962,9.1962,9.1962,9.1962,9.1962,9.1962,9.1962,9.1962,9.1962,9.1962,9.1962,9.1962,9.1962,9.1962,9.1962,9.1962,9.1962,9.1962,9.1962,2.8223,3.0631,3.253,3.1582,3.4359,3.7142,3.6605,3.6483,3.5996,3.4338,3.4826,3.6314,3.8949,4.095,4.4982,5.3544,5.6583,5.9631,6.4679,6.6554,6.8305,7.0663,7.1981,7.3203,7.4482,7.5849,7.66,7.66,7.66,7.66,7.66,7.8496,7.987,8.0452,8.2335,8.3605,8.4148,8.4148,8.4148,8.4148,8.4148,8.4148,8.4148,8.4148,8.4148,8.4206,8.4914,8.5553,8.6251,8.8257,8.9449,9.0146,9.1467,9.1962,9.1962,9.1962,9.1962,9.1962,9.1962,9.1962,9.1962,9.1962,9.1962,9.1962,9.1962,9.1962,9.1962,9.1962,9.1962,9.1962,9.1962,9.1962,9.1962,9.1962,9.1962,9.1962,9.1962,9.1962,9.1962,9.1962,9.1962,9.1962,9.1962,9.1962,9.1962,9.1962,9.1962,9.1962,9.1962,9.1962,9.1962,9.1962,9.1962,9.1962,9.1962,9.1962,9.1962,9.1962,9.1962,9.1962,9.1962,9.1962,9.1962,9.1962,9.1962,9.1962,9.1962,9.1962,9.1962,9.1962,9.1962,9.1962,3.0911,3.3444,3.4726,3.1943,3.2556,3.3553,3.2558,3.2217,3.1826,3.0944,3.1436,3.317,3.685,3.7314,3.9166,4.5264,5.2289,5.8585,6.3249,6.6597,6.9106,7.0498,7.1865,7.3145,7.4221,7.5733,7.66,7.66,7.66,7.66,7.66,7.7856,7.9136,8.0423,8.1741,8.2896,8.3896,8.41,8.4148,8.4148,8.4148,8.4148,8.4148,8.4148,8.4148,8.4148,8.4148,8.4797,8.5902,8.7221,8.853,8.9826,9.1106,9.1787,9.1962,9.1962,9.1962,9.1962,9.1962,9.1962,9.1962,9.1962,9.1962,9.1962,9.1962,9.1962,9.1962,9.1962,9.1962,9.1962,9.1962,9.1962,9.1962,9.1962,9.1962,9.1962,9.1962,9.1962,9.1962,9.1962,9.1962,9.1962,9.1962,9.1962,9.1962,9.1962,9.1962,9.1962,9.1962,9.1962,9.1962,9.1962,9.1962,9.1962,9.1962,9.1962,9.1962,9.1962,9.1962,9.1962,9.1962,9.1962,9.1962,9.1962,9.1962,9.1962,9.1962,9.1962,9.1962,9.1962,9.1962,9.1962,2.9539,3.2341,3.5253,3.4765,3.4216,3.3794,3.3577,3.2799,3.2046,3.1854,3.1952,3.2269,3.2948,3.5899,3.8021,3.7436,4.4435,5.2541,6.0028,6.4232,6.7203,6.9086,7.1341,7.2796,7.297,7.5175,7.66,7.66,7.66,7.66,7.66,7.7856,7.9136,8.0423,8.1741,8.2498,8.2664,8.3635,8.4148,8.4148,8.4148,8.4148,8.4148,8.4148,8.4148,8.4148,8.4148,8.4264,8.4565,8.5873,8.7192,8.8501,8.9768,9.096,9.1962,9.1962,9.1962,9.1962,9.1962,9.1962,9.1962,9.1962,9.1962,9.1962,9.1962,9.1962,9.1962,9.1962,9.1962,9.1962,9.1962,9.1962,9.1962,9.1962,9.1962,9.1962,9.1962,9.1962,9.1962,9.1962,9.1962,9.1962,9.1962,9.1962,9.1962,9.1962,9.1962,9.1962,9.1962,9.1962,9.1962,9.1962,9.1962,9.1962,9.1962,9.1962,9.1962,9.1962,9.1962,9.1962,9.1962,9.1962,9.1962,9.1962,9.1962,9.1962,9.1962,9.1962,9.1962,9.1962,9.1962,9.1962,3.1614,3.4373,3.7022,3.5635,3.4916,3.4549,3.4549,3.3274,3.2071,3.2071,3.1616,3.1603,3.2799,3.4094,3.5874,3.8436,4.297,4.8851,5.6455,6.2762,6.7204,6.8833,7.1163,7.2675,7.2675,7.5059,7.66,7.66,7.66,7.66,7.66,7.7152,7.8089,7.9368,8.0685,8.1674,8.241,8.3615,8.4148,8.4148,8.4148,8.4148,8.4148,8.4148,8.4148,8.4148,8.4148,8.4148,8.4264,8.5582,8.6454,8.7221,8.9216,9.0379,9.096,9.17,9.1962,9.1962,9.1962,9.1962,9.1962,9.1962,9.1962,9.1962,9.1962,9.1962,9.1962,9.1962,9.1962,9.1962,9.1962,9.1962,9.1962,9.1962,9.1962,9.1962,9.1962,9.1962,9.1962,9.1962,9.1962,9.1962,9.1962,9.1962,9.1962,9.1962,9.1962,9.1962,9.1962,9.1962,9.1962,9.1962,9.1962,9.1962,9.1962,9.1962,9.1962,9.1962,9.1962,9.1962,9.1962,9.1962,9.1962,9.1962,9.1962,9.1962,9.1962,9.1962,9.1962,9.1962,9.1962,9.1962,3.6288,0.0,3.9867,3.7861,3.6963,3.6448,0.0,3.4438,3.2813,3.2498,3.1596,3.1408,3.3113,3.268,3.3887,3.9427,4.1889,4.5723,5.3252,6.011,6.5409,6.82,7.0498,7.2069,7.2617,7.4768,7.6251,7.657,7.66,7.66,7.66,7.66,7.7181,7.8496,7.9521,8.0656,8.1974,8.3149,8.3896,8.4148,8.4148,8.4148,8.4148,8.4148,8.4148,8.4148,8.4148,8.4148,8.4235,8.5233,8.5844,8.6309,8.8315,8.9449,9.0117,9.1106,9.17,9.1962,9.1962,9.1962,9.1962,9.1962,9.1962,9.1962,9.1962,9.1962,9.1962,9.1962,9.1962,9.1962,9.1962,9.1962,9.1962,9.1962,9.1962,9.1962,9.1962,9.1962,9.1962,9.1962,9.1962,9.1962,9.1962,9.1962,9.1962,9.1962,9.1962,9.1962,9.1962,9.1962,9.1962,9.1962,9.1962,9.1962,9.1962,9.1962,9.1962,9.1962,9.1962,9.1962,9.1962,9.1962,9.1962,9.1962,9.1962,9.1962,9.1962,9.1962,9.1962,9.1962,9.1962,9.1962,0.0,4.4571,4.4096,4.3877,4.222,4.0277,3.906,3.6979,0.0,3.3749,3.2686,3.2021,3.2168,3.2143,3.2955,3.5593,3.7931,4.2462,5.1082,5.4682,5.9097,6.634,6.8404,7.0146,7.2505,7.3959,7.5297,7.6483,7.66,7.66,7.66,7.66,7.7181,7.8496,7.8612,7.9281,8.0598,8.1915,8.3129,8.4148,8.4148,8.4148,8.4148,8.4148,8.4148,8.4148,8.4148,8.4148,8.4148,8.4264,8.503,8.6135,8.6309,8.785,9.003,9.0088,9.0902,9.1962,9.1962,9.1962,9.1962,9.1962,9.1962,9.1962,9.1962,9.1962,9.1962,9.1962,9.1962,9.1962,9.1962,9.1962,9.1962,9.1962,9.1962,9.1962,9.1962,9.1962,9.1962,9.1962,9.1962,9.1962,9.1962,9.1962,9.1962,9.1962,9.1962,9.1962,9.1962,9.1962,9.1962,9.1962,9.1962,9.1962,9.1962,9.1962,9.1962,9.1962,9.1962,9.1962,9.1962,9.1962,9.1962,9.1962,9.1962,9.1962,9.1962,9.1962,9.1962,9.1962,9.1962,9.1962,4.6956,4.7434,4.7392,4.5759,4.4135,4.2618,4.1309,3.8693,3.6166,3.4876,3.3245,3.2067,3.2073,3.2074,3.3498,3.787,4.0221,4.383,5.0532,5.5183,5.9245,6.2966,6.7444,7.0876,7.2563,7.3872,7.518,7.6483,7.66,7.66,7.66,7.66,7.6803,7.7297,7.8118,7.8758,7.9252,8.1354,8.2643,8.31,8.3809,8.4148,8.4148,8.4148,8.4148,8.4148,8.4148,8.4148,0.0,8.4148,8.4439,8.5001,8.5786,8.6716,8.7792,8.939,9.0321,9.0844,9.1671,9.1962,9.1962,9.1962,9.1962,9.1962,9.1962,9.1962,9.1962,9.1962,9.1962,9.1962,9.1962,9.1962,9.1962,9.1962,9.1962,9.1962,9.1962,9.1962,9.1962,9.1962,9.1962,9.1962,9.1962,9.1962,9.1962,9.1962,9.1962,9.1962,9.1962,9.1962,9.1962,9.1962,9.1962,9.1962,9.1962,9.1962,9.1962,9.1962,9.1962,9.1962,9.1962,9.1962,9.1962,9.1962,9.1962,9.1962,9.1962,9.1962,9.1962,9.1962,9.1962,9.1962,4.9797,5.0291,5.0547,4.8795,4.7449,4.5994,4.3849,4.1031,3.8246,3.6125,3.4019,3.2676,3.3001,3.2811,3.4453,4.0184,4.2428,4.5731,5.2227,5.6691,6.0086,6.221,6.6746,7.0036,7.0818,7.2796,7.4744,7.6454,7.66,7.66,7.66,7.66,7.66,7.66,7.7443,7.8118,7.8525,8.0307,8.1383,8.1828,8.3033,8.3605,8.3605,8.4012,8.4148,8.4148,8.4148,8.4148,8.4148,8.4148,8.4148,8.4264,8.5146,8.5728,8.6309,8.8111,8.9303,9.0146,9.0989,9.1613,9.1962,9.1962,9.1962,9.1962,9.1962,9.1962,9.1962,9.1962,9.1962,9.1962,9.1962,9.1962,9.1962,9.1962,9.1962,9.1962,9.1962,9.1962,9.1962,9.1962,9.1962,9.1962,9.1962,9.1962,9.1962,9.1962,9.1962,9.1962,9.1962,9.1962,9.1962,9.1962,9.1962,9.1962,9.1962,9.1962,9.1962,9.1962,9.1962,9.1962,9.1962,9.1962,9.1962,9.1962,9.1962,9.1962,9.1962,9.1962,9.1962,9.1962,9.1962,9.1962,5.33,5.365,5.365,5.365,5.2689,5.0686,4.6766,4.417,4.1485,3.7536,3.5118,3.3965,3.5002,3.434,3.5614,4.1575,4.3682,4.7583,5.626,5.8545,6.0755,6.4623,6.6253,6.7069,6.7068,7.0469,7.378,7.6396,7.66,7.66,7.66,7.66,7.66,7.66,7.66,7.7181,7.8496,7.8525,7.9165,8.0481,8.1799,8.241,8.2469,8.3605,8.4148,8.4148,8.4148,8.4148,8.4148,8.4148,8.4148,8.4148,8.4148,8.4972,8.6076,8.6105,8.7733,8.9972,9.0001,9.0844,9.1932,9.1962,9.1962,9.1962,9.1962,9.1962,9.1962,9.1962,9.1962,9.1962,9.1962,9.1962,9.1962,9.1962,9.1962,9.1962,9.1962,9.1962,9.1962,9.1962,9.1962,9.1962,9.1962,9.1962,9.1962,9.1962,9.1962,9.1962,9.1962,9.1962,9.1962,9.1962,9.1962,9.1962,9.1962,9.1962,9.1962,9.1962,9.1962,9.1962,9.1962,9.1962,9.1962,9.1962,9.1962,9.1962,9.1962,9.1962,9.1962,9.1962,9.1962,9.1962,5.3533,5.365,5.365,5.365,5.2689,5.0686,4.6766,4.4748,4.2352,3.7695,3.6253,3.5462,3.4301,3.5195,3.7275,4.0881,4.4646,4.8926,5.4079,5.8196,6.1426,6.3489,6.57,6.7417,6.8346,7.1051,7.378,7.6396,7.66,7.66,7.66,7.66,7.66,7.66,7.66,7.6774,7.7152,7.8089,7.8729,7.9136,8.1325,8.241,8.2469,8.3605,8.4148,8.4148,8.4148,8.4148,8.4148,8.4148,8.4148,8.4148,8.4148,8.4381,8.4855,8.5786,8.66,8.753,8.9361,9.0262,9.0728,9.1671,9.1962,9.1962,9.1962,9.1962,9.1962,9.1962,9.1962,9.1962,9.1962,9.1962,9.1962,9.1962,9.1962,9.1962,9.1962,9.1962,9.1962,9.1962,9.1962,9.1962,9.1962,9.1962,9.1962,9.1962,9.1962,9.1962,9.1962,9.1962,9.1962,9.1962,9.1962,9.1962,9.1962,9.1962,9.1962,9.1962,9.1962,9.1962,9.1962,9.1962,9.1962,9.1962,9.1962,9.1962,9.1962,9.1962,9.1962,9.1962,9.1962,9.1962,5.365,5.4003,5.4411,5.4411,5.4236,5.2869,4.8453,4.6475,4.4181,3.9181,3.7042,3.6156,3.6247,3.7167,3.951,4.4473,4.8562,5.2789,5.7532,6.1279,6.4012,6.532,6.6892,6.8173,6.8928,7.1254,7.3315,7.4913,7.5989,7.66,7.66,7.66,7.66,7.66,7.66,7.66,7.66,7.7355,7.7769,7.7798,7.987,8.1121,8.1712,8.2888,8.3722,8.4148,8.4148,8.4148,8.4148,8.4148,8.4148,8.4148,8.4148,8.4148,8.4264,8.5059,8.5669,8.6338,8.7908,8.9129,9.0146,9.0902,9.1164,9.1164,9.1164,9.1554,9.1962,9.1962,9.1962,9.1962,9.1962,9.1962,9.1962,9.1962,9.1962,9.1962,9.1962,9.1962,9.1962,9.1962,9.1962,9.1962,9.1962,9.1962,9.1962,9.1962,9.1962,9.1962,9.1962,9.1962,9.1962,9.1962,9.1962,9.1962,9.1962,9.1962,9.1962,9.1962,9.1962,9.1962,9.1962,9.1962,9.1962,9.1962,9.1962,9.1962,9.1962,9.1962,9.1962,9.1962,9.1962,9.1962,5.365,5.4585,5.5607,5.5607,5.6564,5.6186,5.0954,4.8867,4.652,4.1319,3.7779,3.6524,3.9385,3.9899,4.239,5.0123,5.4133,5.8341,6.4274,6.634,6.7679,6.8869,6.9015,6.9015,6.9015,7.1134,7.2559,7.2675,7.5001,7.6425,7.6425,7.6541,7.66,7.66,7.66,7.66,7.66,7.66,7.66,7.66,7.7914,7.9136,8.0336,8.177,8.3013,8.4012,8.4119,8.4148,8.4148,8.4148,8.4148,8.4148,8.4148,8.4148,8.4148,8.4148,8.4943,8.5931,8.6047,8.7675,8.9681,8.9797,8.9826,8.9826,8.9826,9.0728,9.1787,9.1787,9.1845,9.1962,9.1962,9.1962,9.1962,9.1962,9.1962,9.1962,9.1962,9.1962,9.1962,9.1962,9.1962,9.1962,9.1962,9.1962,9.1962,9.1962,9.1962,9.1962,9.1962,9.1962,9.1962,9.1962,9.1962,9.1962,9.1962,9.1962,9.1962,9.1962,9.1962,9.1962,9.1962,9.1962,9.1962,9.1962,9.1962,9.1962,9.1962,9.1962,9.1962,9.1962,9.1962,9.1962,5.365,5.4585,5.5607,5.5607,5.6564,5.6186,5.0954,4.9535,4.7617,4.1512,3.964,3.8838,3.7692,4.2128,4.6631,4.8618,5.6017,6.2384,6.4769,6.7124,6.8695,6.8986,6.9015,6.9015,6.9015,7.0411,7.169,7.2617,7.4163,7.5035,7.5035,7.6018,7.66,7.66,7.66,7.66,7.66,7.66,7.66,7.66,7.7914,7.867,7.9019,8.1325,8.2556,8.2838,8.3751,8.4148,8.4148,8.4148,8.4148,8.4148,8.4148,8.4148,8.4148,8.4148,8.4323,8.4739,8.5757,8.6483,8.7094,8.8152,8.8472,8.8472,8.8472,8.9402,9.0408,9.0408,9.1135,9.1962,9.1962,9.1962,9.1962,9.1962,9.1962,9.1962,9.1962,9.1962,9.1962,9.1962,9.1962,9.1962,9.1962,9.1962,9.1962,9.1962,9.1962,9.1962,9.1962,9.1962,9.1962,9.1962,9.1962,9.1962,9.1962,9.1962,9.1962,9.1962,9.1962,9.1962,9.1962,9.1962,9.1962,9.1962,9.1962,9.1962,9.1962,9.1962,9.1962,9.1962,9.1962,9.1962,5.4411,5.5546,5.6654,5.7236,5.8341,5.8312,5.4386,5.3019,5.0902,4.5067,4.2523,4.0925,3.96,4.4091,4.8825,5.1342,5.8714,6.4798,6.6717,6.8171,6.9015,6.9015,6.9015,6.9015,6.9015,7.0178,7.1196,7.1807,7.3615,7.4662,7.4662,7.5297,7.5966,7.657,7.66,7.66,7.66,7.66,7.66,7.66,7.7268,7.7943,7.8583,8.0569,8.1857,8.2469,8.3635,8.4148,8.4148,8.4148,8.4148,8.4148,8.4148,8.4148,8.4148,8.4148,8.4148,8.4264,8.4943,8.5582,8.6105,8.6164,8.6639,8.7134,8.7134,8.8064,8.9042,8.9042,9.0001,9.0989,9.0989,9.1454,9.1962,9.1962,9.1962,9.1962,9.1962,9.1962,9.1962,9.1962,9.1962,9.1962,9.1962,9.1962,9.1962,9.1962,9.1962,9.1962,9.1962,9.1962,9.1962,9.1962,9.1962,9.1962,9.1962,9.1962,9.1962,9.1962,9.1962,9.1962,9.1962,9.1962,9.1962,9.1962,9.1962,9.1962,9.1962,9.1962,9.1962,9.1962,9.1962,9.1962,5.4905,5.636,5.7757,5.8748,6.0117,6.0583,5.8106,5.6709,5.4531,4.9535,4.5996,4.3674,4.3224,4.6806,5.1171,5.5277,6.1482,6.6543,6.8724,6.9015,6.9015,6.9015,6.9015,6.9015,6.9015,6.9975,7.0705,7.0938,7.2858,7.4022,7.4022,7.4429,7.5122,7.6222,7.6483,7.66,7.66,7.66,7.66,7.66,7.66,7.7152,7.8234,7.9514,8.0714,8.1791,8.3266,8.3867,8.3867,8.4061,8.4148,8.4148,8.4148,8.4148,8.4148,8.4148,8.4148,8.4148,8.4148,8.4885,8.5611,8.4536,8.4914,8.5786,8.5786,8.6658,8.7715,8.7715,8.8675,8.9652,8.9652,9.0611,9.1613,9.1613,9.1787,9.1962,9.1962,9.1962,9.1962,9.1962,9.1962,9.1962,9.1962,9.1962,9.1962,9.1962,9.1962,9.1962,9.1962,9.1962,9.1962,9.1962,9.1962,9.1962,9.1962,9.1729,9.1613,9.1613,9.1409,9.1264,9.1264,9.1454,9.1613,9.1613,9.1845,9.1962,9.1962,9.1962,9.1722,9.1312,9.1312,9.1071,5.3562,5.5687,5.7582,5.7728,5.9506,6.0583,5.8106,5.7379,5.6127,5.2054,4.9932,4.8471,4.7283,5.2138,5.6496,5.7149,6.3576,6.8637,6.8925,6.9015,6.9015,6.9015,6.9015,6.9015,6.9015,6.916,6.9713,7.0879,7.1258,7.1432,7.1432,7.3498,7.4715,7.489,7.5989,7.66,7.66,7.66,7.66,7.66,7.66,7.6687,7.689,7.8205,7.8874,7.9165,8.1587,8.2635,8.2722,8.3722,8.4148,8.4148,8.4148,8.4148,8.4148,8.4148,8.4148,8.4148,8.4148,8.4264,8.4419,8.4206,8.4264,8.441,8.441,8.535,8.6367,8.6367,8.7337,8.8297,8.8297,8.9286,9.0262,9.0262,9.1106,9.1962,9.1962,9.1962,9.1962,9.1962,9.1962,9.1962,9.1962,9.1962,9.1962,9.1962,9.1962,9.1962,9.1962,9.1962,9.1962,9.1962,9.1962,9.1962,9.1962,9.0902,9.0262,9.0262,8.9228,8.8559,8.8559,8.9652,9.0262,9.0262,9.1338,9.1962,9.1962,9.1962,9.0829,8.8768,8.8768,8.7608,5.3097,5.4993,5.6771,5.8193,5.9359,6.0059,5.9681,5.9594,5.8719,5.5633,5.395,5.2413,5.0401,5.4677,5.8542,5.8542,6.442,6.9015,6.9015,6.9015,6.9015,6.9015,6.9015,6.9015,6.9015,6.9015,6.9247,6.98,6.9858,7.0149,7.0909,7.2592,7.3872,7.4633,7.5902,7.66,7.66,7.66,7.66,7.66,7.66,7.66,7.6629,7.7908,7.8525,7.8612,8.051,8.1325,8.1354,8.187,8.2102,8.219,8.2888,8.3149,8.3266,8.3954,8.4148,8.4148,8.4148,8.4148,8.4148,8.4148,8.4148,8.4148,8.4148,8.4594,8.503,8.503,8.596,8.6988,8.6988,8.7948,8.8908,8.8908,8.9885,9.0844,9.0844,9.1396,9.1962,9.1962,9.1962,9.1962,9.1962,9.1962,9.1962,9.1962,9.1962,9.1962,9.1962,9.1962,9.1962,9.1962,9.128,9.0844,9.0844,8.9664,8.8908,8.8908,8.8384,8.8035,8.8035,8.8617,8.8908,8.8908,8.9489,8.9145,8.7917,8.8474,8.7597,8.5312,8.5907,8.5573,5.1455,5.2871,5.4352,5.7114,5.8033,5.8691,6.0353,6.0729,6.032,5.8777,5.744,5.5956,5.3979,5.7294,6.029,6.029,6.5205,6.9015,6.9015,6.9015,6.9015,6.9015,6.9015,6.9015,6.9015,6.9015,6.9015,6.9015,6.9015,6.9422,7.0414,7.1574,7.2708,7.3673,7.5268,7.6076,7.6076,7.6425,7.66,7.66,7.66,7.66,7.6629,7.7623,7.806,7.8118,7.9398,7.9987,8.0016,8.0336,8.0481,8.0569,8.1566,8.1945,8.2053,8.3266,8.3722,8.3722,8.3722,8.3722,8.378,8.41,8.4148,8.4148,8.4148,8.4148,8.4148,8.4148,8.4885,8.5611,8.5611,8.6581,8.757,8.757,8.8559,8.9507,8.9507,9.0275,9.0973,9.0973,9.0973,9.0973,9.0973,9.0973,9.1205,9.1845,9.1671,9.1351,9.1002,9.0973,9.0973,9.0973,9.0059,8.9507,8.9507,8.8326,8.757,8.757,8.725,8.7076,8.7076,8.7366,8.757,8.757,8.7307,8.64,8.4744,8.49,8.3849,8.1641,8.27,8.286,4.7352,4.818,4.926,5.285,5.4576,5.6114,5.877,5.9361,5.9681,6.0816,6.0001,5.9068,5.8923,6.1134,6.2966,6.2966,6.6367,6.9015,6.9015,6.9015,6.9015,6.9015,6.9015,6.9015,6.9015,6.9015,6.9015,6.9015,6.9015,6.9044,6.9102,7.0324,7.1083,7.1141,7.3498,7.4715,7.4715,7.5995,7.66,7.66,7.66,7.66,7.66,7.6658,7.6687,7.6774,7.8089,7.8612,7.8729,7.9987,8.0481,8.0481,8.054,8.0569,8.0714,8.2061,8.2527,8.2527,8.2527,8.2527,8.2664,8.3809,8.4148,8.4148,8.4148,8.4148,8.4148,8.4148,8.4206,8.4264,8.4264,8.5233,8.6193,8.6193,8.7221,8.8152,8.8152,8.821,8.8239,8.8239,8.8239,8.8239,8.8239,8.8239,8.9082,9.1583,9.0873,8.9652,8.8413,8.8239,8.8239,8.8239,8.8181,8.8152,8.8152,8.6988,8.6193,8.6193,8.5059,8.4352,8.4352,8.5553,8.6193,8.6193,8.5348,8.4871,8.4744,8.2564,8.0274,7.786,7.9045,7.8336,4.6815,4.7187,4.7629,5.118,5.2409,5.3177,5.4893,5.5283,5.5616,5.6863,5.6752,5.6928,5.8688,5.9597,6.1028,6.3949,6.5397,6.6806,6.8712,6.9015,6.9015,6.9015,6.9015,6.9015,6.9015,6.9015,6.9015,6.9015,6.9015,6.9015,6.9015,7.0236,7.0967,7.0967,7.2534,7.3784,7.4662,7.5093,7.5727,7.66,7.66,7.66,7.66,7.66,7.66,7.66,7.7065,7.7268,7.7297,7.7798,7.7972,7.8089,7.8903,7.9223,7.9368,8.0685,8.1151,8.1151,8.1151,8.1151,8.1238,8.1637,8.2335,8.3042,8.3042,8.3586,8.4148,8.4148,8.4148,8.4148,8.4148,8.4536,8.4885,8.4885,8.5844,8.6814,8.6814,8.7483,8.8035,8.8035,8.8035,8.8035,8.8035,8.8035,8.8355,8.9315,8.8315,8.7617,8.8006,8.8035,8.8035,8.8035,8.7308,8.6814,8.6814,8.5611,8.4885,8.4885,8.441,8.4148,8.4148,8.4623,8.4172,8.2778,8.2435,8.08,7.7902,7.7693,7.6449,7.4228,7.5301,7.5322,4.4167,4.4037,4.4394,4.7925,4.9121,4.9896,5.2007,5.2471,5.2821,5.3979,5.4543,5.5379,5.7178,5.797,5.9306,6.236,6.3795,6.5238,6.7229,6.8348,6.9015,6.9015,6.9015,6.9015,6.9015,6.9015,6.9015,6.9015,6.9015,6.9015,6.9015,6.9829,7.0265,7.0265,7.1458,7.2505,7.3411,7.3784,7.4628,7.5902,7.5902,7.6134,7.66,7.66,7.66,7.66,7.66,7.66,7.66,7.66,7.66,7.6687,7.7565,7.7885,7.8031,7.9376,7.9514,7.9223,7.9696,7.9841,7.9899,8.0336,8.1034,8.177,8.177,8.2277,8.3024,8.3431,8.3615,8.3635,8.41,8.4148,8.4148,8.4148,8.4826,8.5466,8.5466,8.6135,8.6756,8.6756,8.6756,8.6756,8.6756,8.7105,8.725,8.6814,8.6745,8.6745,8.6756,8.6756,8.6756,8.6756,8.596,8.5466,8.5466,8.4681,8.4148,8.4148,8.4148,8.4148,8.4148,8.3431,8.2363,8.0879,7.9355,7.7069,7.4075,7.4019,7.3196,7.1818,7.2845,7.3334,3.9398,3.8544,3.9317,4.2911,4.4554,4.6319,5.0141,5.1009,5.1386,5.2626,5.3779,5.4583,5.4723,5.6576,5.8104,5.8311,6.1669,6.4308,6.4396,6.6988,6.8893,6.8893,6.8954,6.9015,6.9015,6.9015,6.9015,6.9015,6.9015,6.8983,6.892,6.8983,6.8983,6.892,7.0175,7.0909,7.0967,7.2098,7.329,7.457,7.457,7.5239,7.6483,7.6512,7.6541,7.66,7.66,7.66,7.66,7.66,7.66,7.66,7.66,7.66,7.6745,7.8002,7.7646,7.6774,7.8031,7.8467,7.867,7.9958,8.0365,8.0423,8.0423,8.0452,8.0743,8.2003,8.2352,8.2605,8.3751,8.4061,8.409,8.409,8.4148,8.4148,8.4148,8.4148,8.4148,8.4148,8.4148,8.4148,8.4148,8.5233,8.5611,8.4352,8.6309,8.7046,8.4507,8.4148,8.4148,8.4148,8.4148,8.4148,8.4148,8.4148,8.4148,8.4148,8.4119,8.409,8.409,8.1932,8.0727,8.0646,7.6265,7.3928,7.384,7.1687,7.0692,7.0765,7.1745,7.2258,4.2659,3.9945,3.797,4.0619,4.1489,4.2166,4.4022,4.4406,4.5187,4.7873,4.8678,4.9747,5.2468,5.2489,5.3498,5.7663,5.8241,5.896,6.1155,6.3916,6.5752,6.5752,6.7713,6.9015,6.9015,6.9015,6.9015,6.9015,6.9015,6.8385,6.6955,6.8229,6.8356,6.6922,6.8606,7.0004,7.0967,7.1287,7.2039,7.3261,7.3261,7.3435,7.378,7.4744,7.5704,7.66,7.66,7.66,7.66,7.66,7.66,7.66,7.66,7.66,7.6629,7.7007,7.689,7.6658,7.7007,7.7123,7.7181,7.7565,7.8292,7.9049,7.9049,7.9725,8.054,8.0889,8.1005,8.1063,8.1404,8.216,8.2896,8.2896,8.3556,8.4148,8.4148,8.4148,8.4148,8.4148,8.4148,8.4148,8.4148,8.4439,8.4555,8.4206,8.4797,8.5001,8.4264,8.4148,8.4148,8.4148,8.4148,8.4148,8.4148,8.4148,8.4148,8.4148,8.3382,8.2896,8.2896,7.9948,7.7579,7.5982,7.3243,7.0961,6.9278,6.8666,6.877,6.9481,6.9798,7.0381,4.0387,3.7028,3.4051,3.6259,3.6825,3.7704,4.1025,4.1072,4.1194,4.4053,4.5318,4.6589,4.8804,4.9527,5.0871,5.4203,5.5332,5.6382,5.8152,6.0884,6.3196,6.4396,6.5416,6.5997,6.5997,6.6379,6.6656,6.6656,6.6656,6.6138,6.5048,6.6039,6.6496,6.611,6.7179,6.8542,7.012,7.012,7.0731,7.1981,7.1981,7.2243,7.2704,7.3494,7.425,7.4943,7.4943,7.5262,7.5791,7.5791,7.6076,7.66,7.66,7.66,7.6454,7.5379,7.4943,7.4943,7.4943,7.532,7.5791,7.5791,7.6693,7.7704,7.7704,7.8234,7.8961,7.9521,7.963,7.9812,8.0336,8.1034,8.1587,8.1587,8.214,8.2762,8.3324,8.344,8.3615,8.41,8.4148,8.4148,8.4148,8.4148,8.4148,8.4148,8.4148,8.4148,8.4148,8.4148,8.4148,8.4148,8.4148,8.3983,8.3498,8.2946,8.2617,8.2617,8.1994,8.1221,8.0342,7.7514,7.4976,7.2819,7.0598,6.8838,6.7457,6.7457,6.7774,6.8384,6.8384,6.8701,3.4291,3.1418,2.9025,3.0742,3.1269,3.2899,0.0,3.8826,3.8215,4.0427,4.2547,4.4133,4.448,4.6977,4.9198,4.9662,5.2782,5.515,5.5278,5.7883,6.0733,6.3252,6.213,6.1289,6.1597,6.2599,6.3202,6.3202,6.3302,6.3252,6.3106,6.3252,6.4036,6.545,6.5883,6.6922,6.864,6.8891,6.9596,7.0734,7.0734,7.1283,7.2301,7.2447,7.2505,7.2505,7.265,7.3377,7.4458,7.4458,7.5122,7.6164,7.6164,7.6164,7.5838,7.3316,7.2379,7.2346,7.2144,7.2861,7.3819,7.3819,7.4731,7.5884,7.6028,7.6227,7.6629,7.7972,7.8321,7.8583,7.9754,8.0161,8.0249,8.0249,8.0365,8.0772,8.1974,8.2207,8.2518,8.3547,8.3896,8.3983,8.3983,8.4061,8.4061,8.3809,8.378,8.378,8.378,8.378,8.378,8.378,8.378,8.3353,8.2294,8.1121,8.0481,8.0481,8.0336,7.9341,7.7234,7.4887,7.2708,7.0607,6.815,6.6896,6.6896,6.6896,6.6969,6.7091,6.7213,6.7067,0.0,0.0,0.0,0.0,0.0,0.0,0.0,3.1184,3.2639,3.4766,3.6943,3.9249,4.1767,4.3541,4.5703,4.9198,5.0426,5.1253,5.2224,5.4827,5.6834,5.743,5.716,5.7922,6.0304,6.1495,6.2129,6.2129,6.2914,6.2723,6.1265,6.2583,6.2862,6.1737,6.4547,6.6275,6.6632,6.8229,6.9131,6.9393,6.9393,6.9509,6.9771,7.0818,7.1283,7.1312,7.2301,7.282,7.3053,7.3053,7.3232,7.3431,7.3431,7.3431,7.3238,7.1246,7.0532,7.0296,6.8825,6.8491,6.8683,6.8683,6.9883,7.1465,7.2511,7.3839,7.5297,7.66,7.6948,7.7007,7.7268,7.8118,7.8903,7.8903,7.9725,8.054,8.0801,8.0831,8.0918,8.118,8.2053,8.2751,8.2751,8.3556,8.3489,8.1492,8.1172,8.1172,8.1172,8.1172,8.1172,8.1172,8.1172,8.1121,8.086,8.0598,8.0481,8.0481,7.9492,7.798,7.5867,7.2759,7.0138,6.8143,6.5094,6.3572,6.3572,6.3572,6.4036,6.4981,6.5793,6.4792,0.0,0.0,0.0,0.0,0.0,0.0,0.0,0.0,0.0,0.0,0.0,3.4316,3.5965,0.0,4.2733,4.5291,4.753,4.9369,5.0476,5.1894,5.2782,5.2782,5.3309,5.4429,5.6467,5.7599,5.843,5.8961,5.949,5.9651,5.93,6.0153,6.0671,6.0645,6.3287,6.5155,6.611,6.804,6.9015,6.9015,6.9015,6.9015,6.9044,6.9684,6.9975,7.0004,7.0614,7.0876,7.0934,7.1545,7.2185,7.2492,7.0271,6.9391,6.9163,6.7355,6.6672,6.6533,6.5615,6.5736,6.6292,6.6292,6.7343,6.8935,7.0495,7.0938,7.129,7.2847,7.3749,7.4264,7.4264,7.5907,7.753,7.753,7.8089,7.87,7.9376,7.9521,7.9725,8.0336,8.1005,8.1442,8.1442,8.0228,7.9514,8.0331,7.958,7.929,8.0342,8.0481,8.0219,7.9608,7.9521,7.9223,7.8583,7.8525,7.8525,7.8525,7.7304,7.525,7.2281,6.9853,6.7245,6.4318,6.2622,6.1815,6.1815,6.1815,6.2108,6.271,6.3206,6.2571,0.0,0.0,0.0,0.0,0.0,0.0,0.0,0.0,0.0,0.0,0.0,0.0,0.0,0.0,0.0,4.1062,4.4637,4.7682,4.9232,4.9271,4.9223,4.9442,5.0476,5.151,5.2356,5.3566,5.4689,5.5507,5.5775,5.6287,5.7227,5.7471,5.8239,5.9725,6.2126,6.407,6.5551,6.7879,6.9015,6.9015,6.9015,0.0,6.9015,6.9015,6.9015,6.9015,6.9015,6.9015,6.9102,7.012,7.1109,7.1547,6.7227,6.5584,6.535,6.3494,6.2862,6.2792,6.2443,6.298,6.388,6.388,6.4804,6.6309,6.803,6.7765,0.0,6.8954,7.022,7.1028,7.1028,7.3134,7.5227,7.4847,7.5224,7.5791,7.6512,7.6806,7.7264,7.8305,7.8707,7.902,7.9419,7.6151,7.4592,7.7717,7.6968,7.6693,7.8551,7.8973,7.8852,7.8227,7.8176,7.774,7.6687,7.5902,7.5698,7.6164,7.4541,7.1856,6.805,6.6606,6.4206,6.0564,6.0043,6.0107,6.0741,6.0741,6.0741,6.0668,5.8374,5.7861,0.0,0.0,0.0,0.0,0.0,0.0,0.0,0.0,0.0,0.0,0.0,0.0,0.0,0.0,0.0,0.0,4.2138,4.455,4.7905,4.7612,4.7343,4.8264,4.932,5.0036,5.0125,5.2038,5.3308,5.343,5.4274,5.4849,5.5006,5.5873,0.0,0.0,0.0,6.346,6.3693,6.7207,6.9015,6.9015,6.9015,6.9015,6.9015,6.9015,6.9015,6.9015,6.9015,6.9015,6.9015,6.9189,6.9306,6.9045,6.5192,6.3693,6.3425,6.1595,6.0943,6.0717,5.9092,0.0,0.0,5.8746,5.9945,6.1645,6.3009,6.44,6.5807,6.7201,6.768,6.7788,6.7788,6.9235,7.03,6.8701,7.0255,7.1701,7.0232,7.0638,7.1359,7.1468,7.2429,7.3838,7.5689,7.3098,7.0673,7.0166,7.0719,7.1559,7.2722,7.3711,7.4906,7.6627,7.6803,0.0,7.66,7.3523,7.2505,7.4715,7.1574,6.809,6.464,6.3253,6.1271,5.8522,5.6401,5.6751,5.9653,5.9653,5.9653,5.9385,4.8856,4.652,0.0,0.0,0.0,0.0,0.0,0.0,0.0,0.0,0.0,0.0,0.0,0.0,0.0,0.0,0.0,0.0,3.7423,4.0723,4.1645,4.3486,4.5118,4.6161,4.7264,4.8198,4.8776,4.9711,5.076,5.2072,5.2551,5.3357,5.4567,5.5019,5.5263,5.5263,5.892,6.0866,6.0866,6.5146,6.7309,6.7337,6.8481,6.9015,6.9015,6.9015,6.8385,6.7309,6.7309,6.6693,6.574,6.574,6.574,6.5545,0.0,0.0,0.0,0.0,5.9971,5.8969,5.8186,5.791,5.791,5.791,5.8461,5.9352,6.0969,6.1243,6.1346,6.2962,6.3954,6.4542,6.4542,6.6479,6.8219,6.7426,6.8168,6.8849,6.8073,6.8239,6.8552,6.8552,6.9521,0.0,6.9024,6.718,6.6529,6.8516,6.8735,6.9252,7.0802,7.247,7.3509,7.3631,7.4753,7.5151,7.439,7.2883,0.0,0.0,0.0,7.02,6.8126,6.6418,0.0,0.0,0.0,5.3303,5.2922,4.9808,0.0,0.0,4.4484,4.3237,0.0,0.0,0.0,0.0,0.0,0.0,0.0,0.0,0.0,0.0,0.0,0.0,0.0,0.0,0.0,0.0,3.2723,3.6492,3.5441,3.9189,4.2191,4.2651,4.4508,4.583,4.6001,4.7069,4.8442,5.0068,5.0459,5.1379,5.3176,5.3591,5.3884,5.4177,5.7064,5.8601,5.8601,6.2519,6.4486,6.4519,6.6207,6.7014,6.7043,6.7353,6.666,6.535,6.535,6.4581,6.3356,6.3356,6.3356,6.3199,6.159,6.0155,5.8997,5.8997,5.8332,5.7495,5.7813,5.752,5.7056,5.7349,5.7251,5.7328,5.8931,5.8496,5.7794,5.9445,6.058,6.1313,6.1313,6.3343,6.53,6.4815,6.5309,6.5741,6.5215,6.5341,6.5551,6.5551,6.5961,6.5537,6.3243,6.2456,6.3116,6.5824,6.5934,6.6329,6.8008,6.9816,7.0969,7.1103,7.2449,7.3194,7.2729,7.1749,7.1458,7.2185,7.1225,7.0556,7.0443,6.8032,6.4841,6.0938,5.5733,5.1336,0.0,0.0,0.0,0.0,0.0,0.0,0.0,0.0,0.0,0.0,0.0,0.0,0.0,0.0,0.0,0.0,0.0,0.0,0.0,0.0,0.0,0.0,0.0,0.0,3.0881,3.5283,3.8265,3.7314,4.0899,4.2658,4.0685,4.4273,4.6733,4.6807,4.7727,4.8776,4.9857,5.0964,5.2072,5.3088,5.5912,5.7403,5.7403,5.9415,6.043,6.0457,6.1527,6.2061,6.2054,6.3085,6.3494,6.3425,6.3425,6.3425,6.3356,6.3356,6.3356,6.2796,5.7096,5.4856,5.4809,5.4809,5.5433,5.6409,5.752,5.6519,5.4909,5.5922,5.5556,5.4933,5.5994,5.6275,5.6483,5.7668,5.8048,5.8072,5.8072,5.9438,6.0411,5.8634,6.034,6.1895,6.0113,6.0498,6.1247,6.1247,6.0449,5.9749,5.9647,6.0439,6.0781,5.9896,6.0605,0.0,6.2673,6.3758,6.5854,6.9628,7.0047,7.083,7.2542,6.9337,6.829,7.085,6.7475,6.6485,6.8986,6.5378,6.273,6.1427,5.6651,5.1717,4.6685,0.0,0.0,0.0,0.0,0.0,0.0,0.0,0.0,0.0,0.0,0.0,0.0,0.0,0.0,0.0,0.0,0.0,0.0,0.0,0.0,0.0,0.0,0.0,0.0,3.3218,3.707,3.6021,3.8412,3.906,3.6364,3.9223,4.1292,4.1366,4.4256,4.6532,4.7636,4.8734,4.9491,4.9857,5.2208,5.3459,5.3459,5.6707,5.8338,5.8338,6.0005,6.0785,6.0812,6.1124,6.0613,5.9386,5.9386,5.869,5.7589,5.7589,5.7589,5.7373,5.5417,5.464,5.464,5.464,5.4824,5.519,5.5616,5.525,5.4689,5.5019,5.4933,5.4689,5.5044,5.5141,5.5214,5.5641,5.6251,5.6751,5.6751,5.7783,5.8697,5.8098,5.8657,5.9204,5.8575,5.8716,5.896,5.896,5.7495,5.5836,5.4431,5.7422,5.8935,5.5714,5.8545,6.1164,6.1552,6.309,6.4665,6.5997,6.8414,6.9855,6.961,6.9651,6.9657,6.9655,6.8433,6.8113,6.8986,6.6523,6.4931,6.452,5.9853,5.2746,4.3141,0.0,0.0,0.0,0.0,0.0,0.0,0.0,0.0,0.0,0.0,0.0,0.0,0.0,0.0,0.0,0.0,0.0,0.0,0.0,0.0,0.0,0.0,0.0,0.0,0.0,0.0,3.3824,3.5532,0.0,3.2524,3.4085,3.5456,3.5801,3.8727,4.1434,4.3705,4.4756,4.601,4.7605,4.9059,4.9938,5.0329,5.282,5.4093,5.4093,5.6154,5.7168,5.7194,5.7905,5.7555,5.6373,5.6373,5.5729,5.4518,5.2981,5.1849,5.1166,5.1166,5.0678,5.0125,5.0873,5.141,5.1858,5.219,5.2859,5.3371,5.2615,5.133,5.01,4.9834,4.9362,4.93,5.1273,5.2548,5.3646,5.5204,5.6434,5.73,5.73,5.7617,5.791,5.791,5.73,5.6739,5.6739,5.5592,5.3713,5.0842,5.3176,5.4629,5.2258,5.4811,5.7753,5.9667,6.1099,6.219,6.2815,6.5161,6.6857,6.7307,6.8503,6.9157,6.8981,6.9015,6.8701,6.8008,6.6759,6.5075,6.2869,5.8449,5.1319,0.0,0.0,0.0,0.0,0.0,0.0,0.0,0.0,0.0,0.0,0.0,0.0,0.0,0.0,0.0,0.0,0.0,0.0,0.0,0.0,0.0,0.0,0.0,0.0,0.0,0.0,0.0,3.0512,3.2157,0.0,0.0,0.0,0.0,3.0159,3.1439,3.3953,3.7983,3.9097,4.1615,4.5943,4.6113,4.6727,4.7895,4.7999,4.8104,4.8239,5.0353,5.1339,5.1412,5.3371,5.4299,5.4299,5.4299,5.4299,5.3981,4.9727,4.6721,4.482,4.4601,4.3309,4.1798,4.3788,4.5195,4.6314,4.7371,4.9176,5.0604,4.8333,4.4943,4.1587,4.0732,3.9406,0.0,0.0,4.6787,4.8493,5.2964,5.4948,5.5824,5.6031,5.6946,5.7739,5.7739,5.6104,5.4507,5.4204,5.4009,5.2546,4.8089,0.0,4.7943,4.8778,4.9346,5.1571,5.6836,5.7726,5.8586,6.0345,6.0609,6.2091,6.5651,6.6044,6.6922,6.8888,6.8891,6.804,6.6176,6.5693,6.2717,5.6758,5.2459,0.0,0.0,0.0,0.0,0.0,0.0,0.0,0.0,0.0,0.0,0.0,0.0,0.0,0.0,0.0,0.0,0.0,0.0,0.0,0.0,0.0,0.0,0.0,0.0,0.0,0.0,2.5146,2.7743,2.6999,2.7589,2.6299,0.0,0.0,0.0,0.0,0.0,0.0,3.1782,3.2926,3.4896,3.7896,3.8725,4.0729,4.4115,4.5016,4.6375,4.8215,4.8776,4.9044,4.9044,4.9605,4.9849,4.9849,4.9849,4.9849,4.9581,4.6044,4.4264,4.3435,4.0214,3.8684,3.8352,3.8692,3.9081,3.964,4.1154,4.2452,4.2909,3.9938,3.8621,3.7608,3.4334,0.0,0.0,0.0,0.0,4.1192,4.6205,4.88,5.0949,5.4232,5.5239,5.547,5.547,5.5031,5.3236,4.8465,4.572,4.2371,3.6625,3.828,0.0,3.7243,4.3646,4.9448,5.1434,5.5314,5.8111,5.8586,5.9825,6.156,6.3899,6.5317,6.6922,6.8888,6.7657,6.6599,6.611,6.0419,5.5753,5.2556,0.0,0.0,0.0,0.0,0.0,0.0,0.0,0.0,0.0,0.0,0.0,0.0,0.0,0.0,0.0,0.0,0.0,0.0,0.0,0.0,0.0,0.0,0.0,0.0,0.0,0.0,0.0,2.3003,2.557,2.4812,2.4722,2.3161,0.0,0.0,0.0,0.0,0.0,0.0,0.0,0.0,0.0,3.1478,3.2132,3.4142,3.7704,3.9123,4.1021,4.3368,4.4584,4.5473,4.6118,4.7069,4.7508,4.7532,4.802,4.6223,4.2868,4.124,3.9281,3.6972,0.0,0.0,0.0,0.0,3.1851,3.2183,3.412,3.508,3.5077,3.2829,0.0,0.0,0.0,0.0,0.0,0.0,0.0,3.5557,4.1189,4.515,4.8502,5.1724,5.2883,5.3259,5.3259,4.9304,4.4723,4.1102,3.844,3.5086,2.9657,3.0753,0.0,0.0,0.0,4.5573,4.9105,5.4456,5.791,5.791,5.8858,6.0526,6.3175,6.4309,6.6072,6.8857,6.6761,6.4191,6.1508,5.5417,4.9139,0.0,0.0,0.0,0.0,0.0,0.0,0.0,0.0,0.0,0.0,0.0,0.0,0.0,0.0,0.0,0.0,0.0,0.0,0.0,0.0,0.0,0.0,0.0,0.0,0.0,0.0,0.0,0.0,0.0,2.3958,2.2779,0.0,0.0,0.0,0.0,0.0,0.0,0.0,0.0,0.0,0.0,0.0,0.0,0.0,2.7328,3.0262,3.1783,3.3687,3.6076,3.8545,4.037,4.1649,4.3777,4.4837,4.4982,4.555,0.0,3.6001,3.5767,0.0,0.0,0.0,0.0,0.0,0.0,0.0,0.0,0.0,0.0,0.0,0.0,0.0,0.0,0.0,0.0,0.0,0.0,0.0,0.0,0.0,0.0,4.5617,4.7625,4.9063,4.9808,4.9012,4.0919,3.3646,3.3091,3.1622,2.9124,0.0,0.0,0.0,0.0,0.0,0.0,4.7582,5.3663,5.7476,5.7886,5.791,5.9424,6.3071,6.3187,6.4727,6.8503,6.5055,6.0395,5.4943,5.0368,0.0,0.0,0.0,0.0,0.0,0.0,0.0,0.0,0.0,0.0,0.0,0.0,0.0,0.0,0.0,0.0,0.0,0.0,0.0,0.0,0.0,0.0,0.0,0.0,0.0,0.0,0.0,0.0,0.0,0.0,0.0,0.0,0.0,0.0,0.0,0.0,0.0,0.0,0.0,0.0,0.0,0.0,0.0,0.0,0.0,0.0,0.0,0.0,0.0,0.0,3.1368,3.2035,3.2333,3.4103,3.5329,3.594,3.3972,3.3548,3.3985,3.05,0.0,0.0,0.0,0.0,0.0,0.0,0.0,0.0,0.0,0.0,0.0,0.0,0.0,0.0,0.0,0.0,0.0,0.0,0.0,0.0,0.0,0.0,3.4933,3.8354,4.0816,4.0961,3.5766,0.0,0.0,0.0,0.0,0.0,0.0,0.0,0.0,0.0,0.0,0.0,4.2082,4.9496,5.5185,5.7638,5.791,5.9424,6.3071,6.2368,6.3368,6.7143,5.9046,5.3176,0.0,0.0,0.0,0.0,0.0,0.0,0.0,0.0,0.0,0.0,0.0,0.0,0.0,0.0,0.0,0.0,0.0,0.0,0.0,0.0,0.0,0.0,0.0,0.0,0.0,0.0,0.0,0.0,0.0,0.0,0.0,0.0,0.0,0.0,0.0,0.0,0.0,0.0,0.0,0.0,0.0,0.0,0.0,0.0,0.0,0.0,0.0,0.0,0.0,0.0,0.0,0.0,0.0,0.0,0.0,0.0,0.0,0.0,2.7212,2.5142,0.0,0.0,0.0,0.0,0.0,0.0,0.0,0.0,0.0,0.0,0.0,0.0,0.0,0.0,0.0,0.0,0.0,0.0,0.0,0.0,0.0,0.0,0.0,0.0,0.0,0.0,0.0,0.0,0.0,0.0,0.0,0.0,0.0,0.0,0.0,0.0,0.0,0.0,0.0,0.0,3.8485,4.7487,5.3985,5.5454,5.645,5.8135,6.0901,6.0824,6.0679,6.0795,5.4115,0.0,0.0,0.0,0.0,0.0,0.0,0.0,0.0,0.0,0.0,0.0,0.0,0.0,0.0,0.0,0.0,0.0,0.0,0.0,0.0,0.0,0.0,0.0,0.0,0.0,0.0,0.0,0.0,0.0,0.0,0.0,0.0,0.0,0.0,0.0,0.0,0.0,0.0,0.0,0.0,0.0,0.0,0.0,0.0,0.0,0.0,0.0,0.0,0.0,0.0,0.0,0.0,0.0,0.0,0.0,0.0,0.0,0.0,0.0,2.1576,1.817,0.0,0.0,0.0,0.0,0.0,0.0,0.0,0.0,0.0,0.0,0.0,0.0,0.0,0.0,0.0,0.0,0.0,0.0,0.0,0.0,0.0,0.0,0.0,0.0,0.0,0.0,0.0,0.0,0.0,0.0,0.0,0.0,0.0,0.0,0.0,0.0,0.0,0.0,0.0,0.0,3.606,4.5709,5.237,5.2989,5.474,5.6774,5.9086,5.9388,5.8112,5.4914,4.953,0.0,0.0,0.0,0.0,0.0,0.0,0.0,0.0,0.0,0.0,0.0,0.0,0.0,0.0,0.0,0.0,0.0,0.0,0.0,0.0,0.0,0.0,0.0,0.0,0.0,0.0,0.0,0.0,0.0,0.0,0.0,0.0,0.0,0.0,0.0,0.0,0.0,0.0,0.0,0.0,0.0,0.0,0.0,0.0,0.0,0.0,0.0,0.0,0.0,0.0,0.0,0.0,0.0,0.0,0.0,0.0,0.0,0.0,0.0,0.0,0.0,0.0,0.0,0.0,0.0,0.0,0.0,0.0,0.0,0.0,0.0,0.0,0.0,0.0,0.0,0.0,0.0,0.0,0.0,0.0,0.0,0.0,0.0,0.0,0.0,0.0,0.0,0.0,0.0,0.0,0.0,0.0,0.0,0.0,0.0,0.0,0.0,0.0,0.0,0.0,0.0,3.5105,4.2867,4.8842,5.1549,5.3615,5.6133,5.9528,5.8787,5.6868,5.3978,0.0,0.0,0.0,0.0,0.0,0.0,0.0,0.0,0.0,0.0,0.0,0.0,0.0,0.0,0.0,0.0,0.0,0.0,0.0,0.0,0.0,0.0,0.0,0.0,0.0,0.0,0.0,0.0,0.0,0.0,0.0,0.0,0.0,0.0,0.0,0.0,0.0,0.0,0.0,0.0,0.0,0.0,0.0,0.0,0.0,0.0,0.0,0.0,0.0,0.0,0.0,0.0,0.0,0.0,0.0,0.0,0.0,0.0,0.0,0.0,0.0,0.0,0.0,0.0,0.0,0.0,0.0,0.0,0.0,0.0,0.0,0.0,0.0,0.0,0.0,0.0,0.0,0.0,0.0,0.0,0.0,0.0,0.0,0.0,0.0,0.0,0.0,0.0,0.0,0.0,0.0,0.0,0.0,0.0,0.0,0.0,0.0,0.0,0.0,0.0,0.0,0.0,3.2377,4.0968,4.7174,4.8855,5.1818,5.4265,5.5669,5.6504,5.3871,4.6519,0.0,0.0,0.0,0.0,0.0,0.0,0.0,0.0,0.0,0.0,0.0,0.0,0.0,0.0,0.0,0.0,0.0,0.0,0.0,0.0,0.0,0.0,0.0,0.0,0.0,0.0,0.0,0.0,0.0,0.0,0.0,0.0,0.0,0.0,0.0,0.0,0.0,0.0,0.0,0.0,0.0,0.0,0.0,0.0,0.0,0.0,0.0,0.0,0.0,0.0,0.0,0.0,0.0,0.0,0.0,0.0,0.0,0.0,0.0,0.0,0.0,0.0,0.0,0.0,0.0,0.0,0.0,0.0,0.0,0.0,0.0,0.0,0.0,0.0,0.0,0.0,0.0,0.0,0.0,0.0,0.0,0.0,0.0,0.0,0.0,0.0,0.0,0.0,0.0,0.0,0.0,0.0,0.0,0.0,0.0,0.0,0.0,0.0,0.0,0.0,0.0,0.0,3.024,3.9003,4.5258,4.6623,4.975,5.2054,5.276,5.4665,5.148,4.1347,0.0,0.0,0.0,0.0,0.0,0.0,0.0,0.0,0.0,0.0,0.0,0.0,0.0,0.0,0.0,0.0,0.0,0.0,0.0,0.0,0.0,0.0,0.0,0.0,0.0,0.0,0.0,0.0,0.0,0.0,0.0,0.0,0.0,0.0,0.0,0.0,0.0,0.0,0.0,0.0,0.0,0.0,0.0,0.0,0.0,0.0,0.0,0.0,0.0,0.0,0.0,0.0,0.0,0.0,0.0,0.0,0.0,0.0,0.0,0.0,0.0,0.0,0.0,0.0,0.0,0.0,0.0,0.0,0.0,0.0,0.0,0.0,0.0,0.0,0.0,0.0,0.0,0.0,0.0,0.0,0.0,0.0,0.0,0.0,0.0,0.0,0.0,0.0,0.0,0.0,0.0,0.0,0.0,0.0,0.0,0.0,0.0,0.0,0.0,0.0,0.0,0.0,2.9359,3.6782,4.2679,4.5408,4.7469,4.9648,5.21,5.3605,5.0339,0.0,0.0,0.0,0.0,0.0,0.0,0.0,0.0,0.0,0.0,0.0,0.0,0.0,0.0,0.0,0.0,0.0,0.0,0.0,0.0,0.0,0.0,0.0,0.0,0.0,0.0,0.0,0.0,0.0,0.0,0.0,0.0,0.0,0.0,0.0,0.0,0.0,0.0,0.0,0.0,0.0,0.0,0.0,0.0,0.0,0.0,0.0,0.0,0.0,0.0,0.0,0.0,0.0,0.0,0.0,0.0,0.0,0.0,0.0,0.0,0.0,0.0,0.0,0.0,0.0,0.0,0.0,0.0,0.0,0.0,0.0,0.0,0.0,0.0,0.0,0.0,0.0,0.0,0.0,0.0,0.0,0.0,0.0,0.0,0.0,0.0,0.0,0.0,0.0,0.0,0.0,0.0,0.0,0.0,0.0,0.0,0.0,0.0,0.0,0.0,0.0,0.0,0.0,2.7478,3.3592,3.8566,4.1743,4.4809,4.6944,4.7722,5.1233,4.9449,4.0204,0.0,0.0,0.0,0.0,0.0,0.0,0.0,0.0,0.0,0.0,0.0,0.0,0.0,0.0,0.0,0.0,0.0,0.0,0.0,0.0,0.0,0.0,0.0,0.0,0.0,0.0,0.0,0.0,0.0,0.0,0.0,0.0,0.0,0.0,0.0,0.0,0.0,0.0,0.0,0.0,0.0,0.0,0.0,0.0,0.0,0.0,0.0,0.0,0.0,0.0,0.0,0.0,0.0,0.0,0.0,0.0,0.0,0.0,0.0,0.0,0.0,0.0,0.0,0.0,0.0,0.0,0.0,0.0,0.0,0.0,0.0,0.0,0.0,0.0,0.0,0.0,0.0,0.0,0.0,0.0,0.0,0.0,0.0,0.0,0.0,0.0,0.0,0.0,0.0,0.0,0.0,0.0,0.0,0.0,0.0,0.0,0.0,0.0,0.0,0.0,0.0,0.0,0.0,3.1805,3.6551,4.0071,4.2911,4.4721,4.5054,4.9424,4.8325,3.9444,0.0,0.0,0.0,0.0,0.0,0.0,0.0,0.0,0.0,0.0,0.0,0.0,0.0,0.0,0.0,0.0,0.0,0.0,0.0,0.0,0.0,0.0,0.0,0.0,0.0,0.0,0.0,0.0,0.0,0.0,0.0,0.0,0.0,0.0,0.0,0.0,0.0,0.0,0.0,0.0,0.0,0.0,0.0,0.0,0.0,0.0,0.0,0.0,0.0,0.0,0.0,0.0,0.0,0.0,0.0,0.0,0.0,0.0,0.0,0.0,0.0,0.0,0.0,0.0,0.0,0.0,0.0,0.0,0.0,0.0,0.0,0.0,0.0,0.0,0.0,0.0,0.0,0.0,0.0,0.0,0.0,0.0,0.0,0.0,0.0,0.0,0.0,0.0,0.0,0.0,0.0,0.0,0.0,0.0,0.0,0.0,0.0,0.0,0.0,0.0,0.0,0.0,0.0,3.1221,3.6006,3.9648,4.1476,4.2782,4.3755,4.7944,4.6889,3.8435,3.4967,0.0,0.0,0.0,0.0,0.0,0.0,0.0,0.0,0.0,0.0,0.0,0.0,0.0,0.0,0.0,0.0,0.0,0.0,0.0,0.0,0.0,0.0,0.0,0.0,0.0,0.0,0.0,0.0,0.0,0.0,0.0,0.0,0.0,0.0,0.0,0.0,0.0,0.0,0.0,0.0,0.0,0.0,0.0,0.0,0.0,0.0,0.0,0.0,0.0,0.0,0.0,0.0,0.0,0.0,0.0,0.0,0.0,0.0,0.0,0.0,0.0,0.0,0.0,0.0,0.0,0.0,0.0,0.0,0.0,0.0,0.0,0.0,0.0,0.0,0.0,0.0,0.0,0.0,0.0,0.0,0.0,0.0,0.0,0.0,0.0,0.0,0.0,0.0,0.0,0.0,0.0,0.0,0.0,0.0,0.0,0.0,0.0,0.0,0.0,0.0,0.0,0.0,2.9917,3.2442,3.5882,3.7773,3.937,4.0875,4.4302,4.3913,3.8239,3.4773,0.0,0.0,0.0,0.0,0.0,0.0,0.0,0.0,0.0,0.0,0.0,0.0,0.0,0.0,0.0,0.0,0.0,0.0,0.0,0.0,0.0,0.0,0.0,0.0,0.0,0.0,0.0,0.0,0.0,0.0,0.0,0.0,0.0,0.0,0.0,0.0,0.0,0.0,0.0,0.0,0.0,0.0,0.0,0.0,0.0,0.0,0.0,0.0,0.0,0.0,0.0,0.0,0.0,0.0,0.0,0.0,0.0,0.0,0.0,0.0,0.0,0.0,0.0,0.0,0.0,0.0,0.0,0.0,0.0,0.0,0.0,0.0,0.0,0.0,0.0,0.0,0.0,0.0,0.0,0.0,0.0,0.0,0.0,0.0,0.0,0.0,0.0,0.0,0.0,0.0,0.0,0.0,0.0,0.0,0.0,0.0,0.0,0.0,0.0,0.0,0.0,0.0,2.3553,2.6781,3.2666,3.5469,3.7542,3.9104,4.2406,4.2289,3.7421,3.3801,0.0,0.0,0.0,0.0,0.0,0.0,0.0,0.0,0.0,0.0,0.0,0.0,0.0,0.0,0.0,0.0,0.0,0.0,0.0,0.0,0.0,0.0,0.0,0.0,0.0,0.0,0.0,0.0,0.0,0.0,0.0,0.0,0.0,0.0,0.0,0.0,0.0,0.0,0.0,0.0,0.0,0.0,0.0,0.0,0.0,0.0,0.0,0.0,0.0,0.0,0.0,0.0,0.0,0.0,0.0,0.0,0.0,0.0,0.0,0.0,0.0,0.0,0.0,0.0,0.0,0.0,0.0,0.0,0.0,0.0,0.0,0.0,0.0,0.0,0.0,0.0,0.0,0.0,0.0,0.0,0.0,0.0,0.0,0.0,0.0,0.0,0.0,0.0,0.0,0.0,0.0,0.0,0.0,0.0,0.0,0.0,0.0,0.0,0.0,0.0,0.0,0.0,0.0,2.1743,2.9367,3.3231,3.6015,3.7937,4.099,4.0786,3.6168,0.0,0.0,0.0,0.0,0.0,0.0,0.0,0.0,0.0,0.0,0.0,0.0,0.0,0.0,0.0,0.0,0.0,0.0,0.0,0.0,0.0,0.0,0.0,0.0,0.0,0.0,0.0,0.0,0.0,0.0,0.0,0.0,0.0,0.0,0.0,0.0,0.0,0.0,0.0,0.0,0.0,0.0,0.0,0.0,0.0,0.0,0.0,0.0,0.0,0.0,0.0,0.0,0.0,0.0,0.0,0.0,0.0,0.0,0.0,0.0,0.0,0.0,0.0,0.0,0.0,0.0,0.0,0.0,0.0,0.0,0.0,0.0,0.0,0.0,0.0,0.0,0.0,0.0,0.0,0.0,0.0,0.0,0.0,0.0,0.0,0.0,0.0,0.0,0.0,0.0,0.0,0.0,0.0,0.0,0.0,0.0,0.0,0.0,0.0,0.0,0.0,0.0,0.0,0.0,2.3034,2.4864,2.8642,3.2751,3.6938,3.7918,3.7235,3.4662,0.0,0.0,0.0,0.0,0.0,0.0,0.0,0.0,0.0,0.0,0.0,0.0,0.0,0.0]}]]]